Time,TemperatureF,DewpointF,PressureIn,WindDirection,WindDirectionDegrees,WindSpeedMPH,WindSpeedGustMPH,Humidity,HourlyPrecipIn,Conditions,Clouds,dailyrainin,SolarRadiationWatts/m^2,SoftwareType,DateUTC
2013-03-02 00:00:00,30.4,21.1,29.68,WNW,288,0.0,0.0,68,0.00,,,0.01,0.00,VWS V14.01,2013-03-02 05:00:00,
2013-03-02 00:01:00,30.4,21.1,29.68,West,270,0.0,0.0,68,0.00,,,0.01,0.00,VWS V14.01,2013-03-02 05:01:00,
2013-03-02 00:02:00,30.3,21.0,29.68,West,275,0.0,0.0,68,0.00,,,0.00,0.00,VWS V14.01,2013-03-02 05:02:00,
2013-03-02 00:03:00,30.3,21.0,29.68,West,267,0.0,0.0,68,0.00,,,0.00,0.00,VWS V14.01,2013-03-02 05:03:00,
2013-03-02 00:04:00,30.3,21.0,29.68,West,261,0.0,0.0,68,0.00,,,0.00,0.00,VWS V14.01,2013-03-02 05:04:00,
2013-03-02 00:05:00,30.3,21.0,29.68,West,274,0.0,0.0,68,0.00,,,0.00,0.00,VWS V14.01,2013-03-02 05:05:00,
2013-03-02 00:06:00,30.3,21.0,29.68,WNW,284,0.0,0.0,68,0.00,,,0.00,0.00,VWS V14.01,2013-03-02 05:06:00,
2013-03-02 00:07:00,30.3,21.0,29.68,West,275,0.0,0.0,68,0.00,,,0.00,0.00,VWS V14.01,2013-03-02 05:07:00,
2013-03-02 00:08:00,30.3,21.0,29.68,WNW,302,0.0,0.0,68,0.00,,,0.00,0.00,VWS V14.01,2013-03-02 05:08:00,
2013-03-02 00:09:00,30.3,21.0,29.68,West,265,0.0,0.0,68,0.00,,,0.00,0.00,VWS V14.01,2013-03-02 05:09:00,
2013-03-02 00:10:00,30.3,21.0,29.68,West,280,0.0,0.0,68,0.00,,,0.00,0.00,VWS V14.01,2013-03-02 05:10:00,
2013-03-02 00:11:00,30.3,21.0,29.68,WNW,294,0.0,0.0,68,0.00,,,0.00,0.00,VWS V14.01,2013-03-02 05:11:00,
2013-03-02 00:12:00,30.3,21.0,29.68,West,277,0.0,0.0,68,0.00,,,0.00,0.00,VWS V14.01,2013-03-02 05:12:00,
2013-03-02 00:13:00,30.3,21.0,29.68,WNW,302,0.0,0.0,68,0.00,,,0.00,0.00,VWS V14.01,2013-03-02 05:13:00,
2013-03-02 00:14:00,30.3,21.0,29.68,WSW,250,0.0,0.0,68,0.00,,,0.00,0.00,VWS V14.01,2013-03-02 05:14:00,
2013-03-02 00:15:00,30.3,21.0,29.69,West,275,0.0,0.0,68,0.00,,,0.00,0.00,VWS V14.01,2013-03-02 05:15:00,
2013-03-02 00:16:00,30.3,21.0,29.69,West,275,0.0,0.0,68,0.00,,,0.00,0.00,VWS V14.01,2013-03-02 05:16:00,
2013-03-02 00:17:00,30.3,21.0,29.69,West,275,0.0,0.0,68,0.00,,,0.00,0.00,VWS V14.01,2013-03-02 05:17:00,
2013-03-02 00:18:00,30.3,21.0,29.68,WNW,298,0.0,0.0,68,0.00,,,0.00,0.00,VWS V14.01,2013-03-02 05:18:00,
2013-03-02 00:20:00,30.3,21.0,29.69,WSW,257,0.0,0.0,68,0.00,,,0.00,0.00,VWS V14.01,2013-03-02 05:20:00,
2013-03-02 00:21:00,30.3,21.0,29.69,West,263,0.0,0.0,68,0.00,,,0.00,0.00,VWS V14.01,2013-03-02 05:21:00,
2013-03-02 00:22:00,30.3,21.0,29.69,West,267,0.0,0.0,68,0.00,,,0.00,0.00,VWS V14.01,2013-03-02 05:22:00,
2013-03-02 00:24:00,30.3,21.0,29.69,WNW,291,0.0,0.0,68,0.00,,,0.00,0.00,VWS V14.01,2013-03-02 05:24:00,
2013-03-02 00:25:00,30.3,21.0,29.69,WSW,244,0.0,0.0,68,0.00,,,0.00,0.00,VWS V14.01,2013-03-02 05:25:00,
2013-03-02 00:26:00,30.3,21.0,29.69,WSW,248,0.0,0.0,68,0.00,,,0.00,0.00,VWS V14.01,2013-03-02 05:26:00,
2013-03-02 00:28:00,30.1,20.8,29.69,West,268,0.0,0.0,68,0.00,,,0.00,0.00,VWS V14.01,2013-03-02 05:28:00,
2013-03-02 00:29:00,30.3,21.0,29.69,West,260,0.0,0.0,68,0.00,,,0.00,0.00,VWS V14.01,2013-03-02 05:29:00,
2013-03-02 00:30:00,30.1,20.8,29.69,West,274,0.0,0.0,68,0.00,,,0.00,0.00,VWS V14.01,2013-03-02 05:30:00,
2013-03-02 00:31:00,30.1,20.8,29.69,West,270,0.0,0.0,68,0.00,,,0.00,0.00,VWS V14.01,2013-03-02 05:31:00,
2013-03-02 00:32:00,30.1,20.8,29.69,WSW,251,0.0,0.0,68,0.00,,,0.00,0.00,VWS V14.01,2013-03-02 05:32:00,
2013-03-02 00:33:00,30.1,20.8,29.69,West,265,0.0,0.0,68,0.00,,,0.00,0.00,VWS V14.01,2013-03-02 05:33:00,
2013-03-02 00:34:00,30.1,20.8,29.69,WNW,284,0.0,0.0,68,0.00,,,0.00,0.00,VWS V14.01,2013-03-02 05:34:00,
2013-03-02 00:35:00,30.1,20.8,29.69,West,270,0.0,0.0,68,0.00,,,0.00,0.00,VWS V14.01,2013-03-02 05:35:00,
2013-03-02 00:36:00,30.1,20.8,29.69,WSW,240,0.0,0.0,68,0.00,,,0.00,0.00,VWS V14.01,2013-03-02 05:36:00,
2013-03-02 00:37:00,30.1,20.8,29.69,West,261,0.0,0.0,68,0.00,,,0.00,0.00,VWS V14.01,2013-03-02 05:37:00,
2013-03-02 00:38:00,30.1,20.8,29.69,West,280,0.0,0.0,68,0.00,,,0.00,0.00,VWS V14.01,2013-03-02 05:38:00,
2013-03-02 00:39:00,30.1,20.8,29.69,West,267,0.0,0.0,68,0.00,,,0.00,0.00,VWS V14.01,2013-03-02 05:39:00,
2013-03-02 00:40:00,30.1,20.8,29.69,West,270,0.0,0.0,68,0.00,,,0.00,0.00,VWS V14.01,2013-03-02 05:40:00,
2013-03-02 00:41:00,30.1,20.8,29.69,WNW,288,0.0,0.0,68,0.00,,,0.00,0.00,VWS V14.01,2013-03-02 05:41:00,
2013-03-02 00:42:00,30.1,20.8,29.69,WNW,294,0.0,0.0,68,0.00,,,0.00,0.00,VWS V14.01,2013-03-02 05:42:00,
2013-03-02 00:43:00,30.1,20.8,29.69,West,264,0.0,0.0,68,0.00,,,0.00,0.00,VWS V14.01,2013-03-02 05:43:00,
2013-03-02 00:44:00,30.1,20.8,29.69,WSW,243,0.0,0.0,68,0.00,,,0.00,0.00,VWS V14.01,2013-03-02 05:44:00,
2013-03-02 00:45:00,30.1,20.8,29.69,WNW,282,0.0,0.0,68,0.00,,,0.00,0.00,VWS V14.01,2013-03-02 05:45:00,
2013-03-02 00:46:00,30.1,20.8,29.69,WNW,294,0.0,0.0,68,0.00,,,0.00,0.00,VWS V14.01,2013-03-02 05:46:00,
2013-03-02 00:47:00,30.1,20.8,29.69,West,274,0.0,0.0,68,0.00,,,0.00,0.00,VWS V14.01,2013-03-02 05:47:00,
2013-03-02 00:48:00,30.1,20.8,29.69,West,270,0.0,0.0,68,0.00,,,0.00,0.00,VWS V14.01,2013-03-02 05:48:00,
2013-03-02 00:49:00,30.1,20.8,29.69,West,263,0.0,0.0,68,0.00,,,0.00,0.00,VWS V14.01,2013-03-02 05:49:00,
2013-03-02 00:50:00,30.1,20.8,29.69,WNW,287,0.0,0.0,68,0.00,,,0.00,0.00,VWS V14.01,2013-03-02 05:50:00,
2013-03-02 00:51:00,30.1,20.8,29.69,WNW,285,0.0,0.0,68,0.00,,,0.00,0.00,VWS V14.01,2013-03-02 05:51:00,
2013-03-02 00:52:00,30.1,20.8,29.69,West,271,0.0,0.0,68,0.00,,,0.00,0.00,VWS V14.01,2013-03-02 05:52:00,
2013-03-02 00:53:00,30.1,20.8,29.69,West,280,0.0,0.0,68,0.00,,,0.00,0.00,VWS V14.01,2013-03-02 05:53:00,
2013-03-02 00:54:00,30.0,20.7,29.69,West,261,0.0,0.0,68,0.00,,,0.00,0.00,VWS V14.01,2013-03-02 05:54:00,
2013-03-02 00:55:00,30.1,20.8,29.69,NW,313,0.0,0.0,68,0.00,,,0.00,0.00,VWS V14.01,2013-03-02 05:55:00,
2013-03-02 00:56:00,30.0,20.4,29.69,West,272,0.0,0.0,67,0.00,,,0.00,0.00,VWS V14.01,2013-03-02 05:56:00,
2013-03-02 00:57:00,30.0,20.4,29.69,WNW,291,0.0,0.0,67,0.00,,,0.00,0.00,VWS V14.01,2013-03-02 05:57:00,
2013-03-02 00:58:00,30.0,20.4,29.69,WNW,291,0.0,0.0,67,0.00,,,0.00,0.00,VWS V14.01,2013-03-02 05:58:00,
2013-03-02 00:59:00,30.0,20.4,29.69,West,281,0.0,0.0,67,0.00,,,0.00,0.00,VWS V14.01,2013-03-02 05:59:00,
2013-03-02 01:00:00,30.0,20.4,29.69,West,275,0.0,0.0,67,0.00,,,0.00,0.00,VWS V14.01,2013-03-02 06:00:00,
2013-03-02 01:01:00,30.0,20.4,29.69,West,272,0.0,0.0,67,0.00,,,0.00,0.00,VWS V14.01,2013-03-02 06:01:00,
2013-03-02 01:02:00,30.0,20.4,29.69,WSW,244,0.0,0.0,67,0.00,,,0.00,0.00,VWS V14.01,2013-03-02 06:02:00,
2013-03-02 01:03:00,30.0,20.4,29.69,WNW,285,0.0,0.0,67,0.00,,,0.00,0.00,VWS V14.01,2013-03-02 06:03:00,
2013-03-02 01:04:00,30.0,20.4,29.69,West,277,0.0,0.0,67,0.00,,,0.00,0.00,VWS V14.01,2013-03-02 06:04:00,
2013-03-02 01:05:00,30.0,20.4,29.69,WSW,256,0.0,0.0,67,0.00,,,0.00,0.00,VWS V14.01,2013-03-02 06:05:00,
2013-03-02 01:06:00,30.1,20.5,29.69,SSW,205,0.0,0.0,67,0.00,,,0.00,0.00,VWS V14.01,2013-03-02 06:06:00,
2013-03-02 01:07:00,30.0,20.4,29.69,WSW,244,0.0,0.0,67,0.00,,,0.00,0.00,VWS V14.01,2013-03-02 06:07:00,
2013-03-02 01:08:00,30.1,20.5,29.69,West,275,0.0,0.0,67,0.00,,,0.00,0.00,VWS V14.01,2013-03-02 06:08:00,
2013-03-02 01:09:00,30.1,20.5,29.69,West,274,0.0,0.0,67,0.00,,,0.00,0.00,VWS V14.01,2013-03-02 06:09:00,
2013-03-02 01:10:00,30.1,20.5,29.69,West,275,0.0,0.0,67,0.00,,,0.00,0.00,VWS V14.01,2013-03-02 06:10:00,
2013-03-02 01:11:00,30.1,20.5,29.69,WNW,287,0.0,0.0,67,0.00,,,0.00,0.00,VWS V14.01,2013-03-02 06:11:00,
2013-03-02 01:12:00,30.1,20.5,29.69,SW,224,0.0,0.0,67,0.00,,,0.00,0.00,VWS V14.01,2013-03-02 06:12:00,
2013-03-02 01:13:00,30.1,20.5,29.69,West,275,0.0,0.0,67,0.00,,,0.00,0.00,VWS V14.01,2013-03-02 06:13:00,
2013-03-02 01:14:00,30.1,20.8,29.69,West,272,0.0,0.0,68,0.00,,,0.00,0.00,VWS V14.01,2013-03-02 06:14:00,
2013-03-02 01:15:00,30.1,20.8,29.70,SW,219,0.0,0.0,68,0.00,,,0.00,0.00,VWS V14.01,2013-03-02 06:15:00,
2013-03-02 01:16:00,30.1,20.5,29.70,NW,309,0.0,0.0,67,0.00,,,0.00,0.00,VWS V14.01,2013-03-02 06:16:00,
2013-03-02 01:17:00,30.1,20.5,29.70,WNW,291,0.0,0.0,67,0.00,,,0.00,0.00,VWS V14.01,2013-03-02 06:17:00,
2013-03-02 01:18:00,30.1,20.5,29.70,West,260,0.0,0.0,67,0.00,,,0.00,0.00,VWS V14.01,2013-03-02 06:18:00,
2013-03-02 01:19:00,30.1,20.8,29.69,West,272,0.0,0.0,68,0.00,,,0.00,0.00,VWS V14.01,2013-03-02 06:19:00,
2013-03-02 01:20:00,30.1,20.5,29.70,West,277,0.0,0.0,67,0.00,,,0.00,0.00,VWS V14.01,2013-03-02 06:20:00,
2013-03-02 01:21:00,30.0,20.4,29.70,West,274,0.0,0.0,67,0.00,,,0.00,0.00,VWS V14.01,2013-03-02 06:21:00,
2013-03-02 01:22:00,30.0,20.4,29.70,West,277,0.0,0.0,67,0.00,,,0.00,0.00,VWS V14.01,2013-03-02 06:22:00,
2013-03-02 01:23:00,30.0,20.7,29.70,WSW,241,0.0,0.0,68,0.00,,,0.00,0.00,VWS V14.01,2013-03-02 06:23:00,
2013-03-02 01:24:00,30.0,20.4,29.70,WSW,239,0.0,0.0,67,0.00,,,0.00,0.00,VWS V14.01,2013-03-02 06:24:00,
2013-03-02 01:25:00,30.1,20.5,29.70,West,277,0.0,0.0,67,0.00,,,0.00,0.00,VWS V14.01,2013-03-02 06:25:00,
2013-03-02 01:26:00,30.0,20.4,29.70,West,280,0.0,0.0,67,0.00,,,0.00,0.00,VWS V14.01,2013-03-02 06:26:00,
2013-03-02 01:27:00,30.0,20.4,29.70,WNW,289,0.0,0.0,67,0.00,,,0.00,0.00,VWS V14.01,2013-03-02 06:27:00,
2013-03-02 01:28:00,30.0,20.4,29.70,WNW,296,0.0,0.0,67,0.00,,,0.00,0.00,VWS V14.01,2013-03-02 06:28:00,
2013-03-02 01:29:00,30.0,20.4,29.70,WNW,282,0.0,0.0,67,0.00,,,0.00,0.00,VWS V14.01,2013-03-02 06:29:00,
2013-03-02 01:30:00,30.0,20.4,29.70,South,171,0.0,0.0,67,0.00,,,0.00,0.00,VWS V14.01,2013-03-02 06:30:00,
2013-03-02 01:31:00,30.0,20.4,29.69,West,264,0.0,0.0,67,0.00,,,0.00,0.00,VWS V14.01,2013-03-02 06:31:00,
2013-03-02 01:32:00,30.0,20.4,29.69,West,261,0.0,0.0,67,0.00,,,0.00,0.00,VWS V14.01,2013-03-02 06:32:00,
2013-03-02 01:33:00,30.0,20.7,29.69,West,281,0.0,0.0,68,0.00,,,0.00,0.00,VWS V14.01,2013-03-02 06:33:00,
2013-03-02 01:34:00,30.0,20.7,29.69,West,281,0.0,0.0,68,0.00,,,0.00,0.00,VWS V14.01,2013-03-02 06:34:00,
2013-03-02 01:35:00,30.0,20.4,29.69,West,263,0.0,0.0,67,0.00,,,0.00,0.00,VWS V14.01,2013-03-02 06:35:00,
2013-03-02 01:36:00,30.0,20.7,29.69,West,271,0.0,0.0,68,0.00,,,0.00,0.00,VWS V14.01,2013-03-02 06:36:00,
2013-03-02 01:37:00,30.0,20.7,29.69,West,264,0.0,0.0,68,0.00,,,0.00,0.00,VWS V14.01,2013-03-02 06:37:00,
2013-03-02 01:38:00,30.0,20.7,29.69,West,263,0.0,0.0,68,0.00,,,0.00,0.00,VWS V14.01,2013-03-02 06:38:00,
2013-03-02 01:39:00,30.0,20.7,29.69,WSW,241,0.0,0.0,68,0.00,,,0.00,0.00,VWS V14.01,2013-03-02 06:39:00,
2013-03-02 01:40:00,30.0,20.7,29.69,SW,232,0.0,0.0,68,0.00,,,0.00,0.00,VWS V14.01,2013-03-02 06:40:00,
2013-03-02 01:41:00,30.0,20.7,29.69,West,271,0.0,0.0,68,0.00,,,0.00,0.00,VWS V14.01,2013-03-02 06:41:00,
2013-03-02 01:42:00,30.0,21.1,29.69,SSW,202,0.0,0.0,69,0.00,,,0.00,0.00,VWS V14.01,2013-03-02 06:42:00,
2013-03-02 01:43:00,29.8,20.9,29.69,WSW,248,0.0,0.0,69,0.00,,,0.00,0.00,VWS V14.01,2013-03-02 06:43:00,
2013-03-02 01:44:00,29.8,20.5,29.69,WSW,256,0.0,0.0,68,0.00,,,0.00,0.00,VWS V14.01,2013-03-02 06:44:00,
2013-03-02 01:45:00,30.0,20.7,29.69,West,271,0.0,0.0,68,0.00,,,0.00,0.00,VWS V14.01,2013-03-02 06:45:00,
2013-03-02 01:46:00,29.8,20.5,29.70,WNW,282,0.0,0.0,68,0.00,,,0.00,0.00,VWS V14.01,2013-03-02 06:46:00,
2013-03-02 01:47:00,29.8,20.5,29.70,West,264,0.0,0.0,68,0.00,,,0.00,0.00,VWS V14.01,2013-03-02 06:47:00,
2013-03-02 01:48:00,29.8,20.5,29.70,WNW,284,0.0,0.0,68,0.00,,,0.00,0.00,VWS V14.01,2013-03-02 06:48:00,
2013-03-02 01:49:00,29.8,20.5,29.70,West,277,0.0,0.0,68,0.00,,,0.00,0.00,VWS V14.01,2013-03-02 06:49:00,
2013-03-02 01:50:00,29.8,20.5,29.70,West,272,0.0,0.0,68,0.00,,,0.00,0.00,VWS V14.01,2013-03-02 06:50:00,
2013-03-02 01:51:00,29.8,20.9,29.70,West,277,0.0,0.0,69,0.00,,,0.00,0.00,VWS V14.01,2013-03-02 06:51:00,
2013-03-02 01:52:00,29.8,20.9,29.70,West,274,0.0,0.0,69,0.00,,,0.00,0.00,VWS V14.01,2013-03-02 06:52:00,
2013-03-02 01:53:00,29.8,20.9,29.70,West,271,0.0,0.0,69,0.00,,,0.00,0.00,VWS V14.01,2013-03-02 06:53:00,
2013-03-02 01:54:00,29.8,20.5,29.70,West,271,0.0,0.0,68,0.00,,,0.00,0.00,VWS V14.01,2013-03-02 06:54:00,
2013-03-02 01:55:00,29.8,20.5,29.70,West,261,0.0,0.0,68,0.00,,,0.00,0.00,VWS V14.01,2013-03-02 06:55:00,
2013-03-02 01:56:00,29.7,20.8,29.70,WSW,254,0.0,0.0,69,0.00,,,0.00,0.00,VWS V14.01,2013-03-02 06:56:00,
2013-03-02 01:57:00,29.7,20.8,29.70,WSW,253,0.0,0.0,69,0.00,,,0.00,0.00,VWS V14.01,2013-03-02 06:57:00,
2013-03-02 01:58:00,29.7,20.8,29.70,WSW,256,0.0,0.0,69,0.00,,,0.00,0.00,VWS V14.01,2013-03-02 06:58:00,
2013-03-02 01:59:00,29.7,20.8,29.70,WSW,248,0.0,0.0,69,0.00,,,0.00,0.00,VWS V14.01,2013-03-02 06:59:00,
2013-03-02 02:00:00,29.7,20.8,29.69,WNW,295,0.0,0.0,69,0.00,,,0.00,0.00,VWS V14.01,2013-03-02 07:00:00,
2013-03-02 02:01:00,29.7,20.8,29.70,WSW,254,0.0,0.0,69,0.00,,,0.00,0.00,VWS V14.01,2013-03-02 07:01:00,
2013-03-02 02:02:00,29.7,20.8,29.69,WNW,282,0.0,0.0,69,0.00,,,0.00,0.00,VWS V14.01,2013-03-02 07:02:00,
2013-03-02 02:03:00,29.7,20.8,29.69,West,264,0.0,0.0,69,0.00,,,0.00,0.00,VWS V14.01,2013-03-02 07:03:00,
2013-03-02 02:04:00,29.7,20.8,29.69,WNW,285,0.0,0.0,69,0.00,,,0.00,0.00,VWS V14.01,2013-03-02 07:04:00,
2013-03-02 02:05:00,29.7,20.8,29.69,West,281,0.0,0.0,69,0.00,,,0.00,0.00,VWS V14.01,2013-03-02 07:05:00,
2013-03-02 02:06:00,29.5,20.6,29.69,WNW,287,0.0,0.0,69,0.00,,,0.00,0.00,VWS V14.01,2013-03-02 07:06:00,
2013-03-02 02:07:00,29.7,20.8,29.69,WNW,282,0.0,0.0,69,0.00,,,0.00,0.00,VWS V14.01,2013-03-02 07:07:00,
2013-03-02 02:08:00,29.5,20.6,29.69,WNW,298,0.0,0.0,69,0.00,,,0.00,0.00,VWS V14.01,2013-03-02 07:08:00,
2013-03-02 02:09:00,29.5,20.6,29.69,WNW,302,0.0,0.0,69,0.00,,,0.00,0.00,VWS V14.01,2013-03-02 07:09:00,
2013-03-02 02:10:00,29.5,20.6,29.69,West,267,0.0,0.0,69,0.00,,,0.00,0.00,VWS V14.01,2013-03-02 07:10:00,
2013-03-02 02:11:00,29.5,20.3,29.69,WSW,239,0.0,0.0,68,0.00,,,0.00,0.00,VWS V14.01,2013-03-02 07:11:00,
2013-03-02 02:12:00,29.5,20.6,29.69,SW,215,0.0,0.0,69,0.00,,,0.00,0.00,VWS V14.01,2013-03-02 07:12:00,
2013-03-02 02:13:00,29.5,20.3,29.69,WSW,244,0.0,0.0,68,0.00,,,0.00,0.00,VWS V14.01,2013-03-02 07:13:00,
2013-03-02 02:14:00,29.5,20.3,29.69,WSW,257,0.0,0.0,68,0.00,,,0.00,0.00,VWS V14.01,2013-03-02 07:14:00,
2013-03-02 02:15:00,29.5,20.3,29.69,WSW,250,0.0,0.0,68,0.00,,,0.00,0.00,VWS V14.01,2013-03-02 07:15:00,
2013-03-02 02:16:00,29.5,20.3,29.69,WNW,282,0.0,0.0,68,0.00,,,0.00,0.00,VWS V14.01,2013-03-02 07:16:00,
2013-03-02 02:17:00,29.5,20.3,29.69,WSW,256,0.0,0.0,68,0.00,,,0.00,0.00,VWS V14.01,2013-03-02 07:17:00,
2013-03-02 02:18:00,29.5,20.3,29.69,WNW,291,0.0,0.0,68,0.00,,,0.00,0.00,VWS V14.01,2013-03-02 07:18:00,
2013-03-02 02:19:00,29.5,19.9,29.69,West,281,0.0,0.0,67,0.00,,,0.00,0.00,VWS V14.01,2013-03-02 07:19:00,
2013-03-02 02:20:00,29.5,19.9,29.69,WNW,298,0.0,0.0,67,0.00,,,0.00,0.00,VWS V14.01,2013-03-02 07:20:00,
2013-03-02 02:21:00,29.5,19.9,29.69,SW,236,0.0,0.0,67,0.00,,,0.00,0.00,VWS V14.01,2013-03-02 07:21:00,
2013-03-02 02:22:00,29.5,20.3,29.69,West,271,0.0,0.0,68,0.00,,,0.00,0.00,VWS V14.01,2013-03-02 07:22:00,
2013-03-02 02:23:00,29.5,19.9,29.69,WNW,291,0.0,0.0,67,0.00,,,0.00,0.00,VWS V14.01,2013-03-02 07:23:00,
2013-03-02 02:24:00,29.5,20.3,29.69,West,261,0.0,0.0,68,0.00,,,0.00,0.00,VWS V14.01,2013-03-02 07:24:00,
2013-03-02 02:25:00,29.5,20.3,29.69,West,265,0.0,0.0,68,0.00,,,0.00,0.00,VWS V14.01,2013-03-02 07:25:00,
2013-03-02 02:26:00,29.5,20.3,29.69,WSW,250,0.0,0.0,68,0.00,,,0.00,0.00,VWS V14.01,2013-03-02 07:26:00,
2013-03-02 02:27:00,29.5,20.3,29.69,West,268,0.0,0.0,68,0.00,,,0.00,0.00,VWS V14.01,2013-03-02 07:27:00,
2013-03-02 02:28:00,29.5,19.9,29.69,WNW,291,0.0,0.0,67,0.00,,,0.00,0.00,VWS V14.01,2013-03-02 07:28:00,
2013-03-02 02:29:00,29.5,20.3,29.69,West,267,0.0,0.0,68,0.00,,,0.00,0.00,VWS V14.01,2013-03-02 07:29:00,
2013-03-02 02:30:00,29.5,20.3,29.69,West,260,0.0,0.0,68,0.00,,,0.00,0.00,VWS V14.01,2013-03-02 07:30:00,
2013-03-02 02:31:00,29.5,20.3,29.69,West,272,0.0,0.0,68,0.00,,,0.00,0.00,VWS V14.01,2013-03-02 07:31:00,
2013-03-02 02:32:00,29.5,20.3,29.69,SSW,210,0.0,0.0,68,0.00,,,0.00,0.00,VWS V14.01,2013-03-02 07:32:00,
2013-03-02 02:33:00,29.5,20.3,29.69,West,277,0.0,0.0,68,0.00,,,0.00,0.00,VWS V14.01,2013-03-02 07:33:00,
2013-03-02 02:34:00,29.5,20.3,29.69,West,265,0.0,0.0,68,0.00,,,0.00,0.00,VWS V14.01,2013-03-02 07:34:00,
2013-03-02 02:35:00,29.5,20.3,29.69,WSW,248,0.0,0.0,68,0.00,,,0.00,0.00,VWS V14.01,2013-03-02 07:35:00,
2013-03-02 02:36:00,29.5,20.3,29.69,West,268,0.0,0.0,68,0.00,,,0.00,0.00,VWS V14.01,2013-03-02 07:36:00,
2013-03-02 02:37:00,29.5,20.3,29.69,West,280,0.0,0.0,68,0.00,,,0.00,0.00,VWS V14.01,2013-03-02 07:37:00,
2013-03-02 02:38:00,29.5,19.9,29.69,WSW,251,0.0,0.0,67,0.00,,,0.00,0.00,VWS V14.01,2013-03-02 07:38:00,
2013-03-02 02:39:00,29.5,20.3,29.69,West,265,0.0,0.0,68,0.00,,,0.00,0.00,VWS V14.01,2013-03-02 07:39:00,
2013-03-02 02:40:00,29.5,20.3,29.69,WNW,302,0.0,0.0,68,0.00,,,0.00,0.00,VWS V14.01,2013-03-02 07:40:00,
2013-03-02 02:41:00,29.5,20.3,29.69,WSW,258,0.0,0.0,68,0.00,,,0.00,0.00,VWS V14.01,2013-03-02 07:41:00,
2013-03-02 02:42:00,29.5,20.3,29.69,West,275,0.0,0.0,68,0.00,,,0.00,0.00,VWS V14.01,2013-03-02 07:42:00,
2013-03-02 02:43:00,29.5,20.3,29.69,SW,236,0.0,0.0,68,0.00,,,0.00,0.00,VWS V14.01,2013-03-02 07:43:00,
2013-03-02 02:44:00,29.5,19.9,29.69,West,263,0.0,0.0,67,0.00,,,0.00,0.00,VWS V14.01,2013-03-02 07:44:00,
2013-03-02 02:45:00,29.4,20.2,29.68,WSW,257,0.0,0.0,68,0.00,,,0.00,0.00,VWS V14.01,2013-03-02 07:45:00,
2013-03-02 02:46:00,29.4,20.2,29.68,West,272,0.0,0.0,68,0.00,,,0.00,0.00,VWS V14.01,2013-03-02 07:46:00,
2013-03-02 02:47:00,29.4,20.2,29.68,West,270,0.0,0.0,68,0.00,,,0.00,0.00,VWS V14.01,2013-03-02 07:47:00,
2013-03-02 02:48:00,29.4,20.2,29.68,South,174,0.0,0.0,68,0.00,,,0.00,0.00,VWS V14.01,2013-03-02 07:48:00,
2013-03-02 02:49:00,29.5,20.3,29.69,West,265,0.0,0.0,68,0.00,,,0.00,0.00,VWS V14.01,2013-03-02 07:49:00,
2013-03-02 02:50:00,29.4,20.2,29.68,WSW,251,0.0,0.0,68,0.00,,,0.00,0.00,VWS V14.01,2013-03-02 07:50:00,
2013-03-02 02:51:00,29.4,20.2,29.68,WSW,247,0.0,0.0,68,0.00,,,0.00,0.00,VWS V14.01,2013-03-02 07:51:00,
2013-03-02 02:52:00,29.4,20.2,29.68,WSW,240,0.0,0.0,68,0.00,,,0.00,0.00,VWS V14.01,2013-03-02 07:52:00,
2013-03-02 02:53:00,29.4,20.2,29.68,West,265,0.0,0.0,68,0.00,,,0.00,0.00,VWS V14.01,2013-03-02 07:53:00,
2013-03-02 02:54:00,29.4,20.2,29.68,South,179,0.0,0.0,68,0.00,,,0.00,0.00,VWS V14.01,2013-03-02 07:54:00,
2013-03-02 02:55:00,29.4,20.5,29.68,West,277,0.0,0.0,69,0.00,,,0.00,0.00,VWS V14.01,2013-03-02 07:55:00,
2013-03-02 02:56:00,29.4,20.5,29.68,WSW,250,0.0,0.0,69,0.00,,,0.00,0.00,VWS V14.01,2013-03-02 07:56:00,
2013-03-02 02:57:00,29.4,20.5,29.68,West,272,0.0,0.0,69,0.00,,,0.00,0.00,VWS V14.01,2013-03-02 07:57:00,
2013-03-02 02:58:00,29.4,20.5,29.68,West,267,0.0,0.0,69,0.00,,,0.00,0.00,VWS V14.01,2013-03-02 07:58:00,
2013-03-02 02:59:00,29.4,20.2,29.68,West,265,0.0,0.0,68,0.00,,,0.00,0.00,VWS V14.01,2013-03-02 07:59:00,
2013-03-02 03:00:00,29.4,20.5,29.68,WSW,240,0.0,0.0,69,0.00,,,0.00,0.00,VWS V14.01,2013-03-02 08:00:00,
2013-03-02 03:01:00,29.4,20.5,29.68,South,181,0.0,0.0,69,0.00,,,0.00,0.00,VWS V14.01,2013-03-02 08:01:00,
2013-03-02 03:02:00,29.4,20.5,29.68,SW,236,0.0,0.0,69,0.00,,,0.00,0.00,VWS V14.01,2013-03-02 08:02:00,
2013-03-02 03:03:00,29.4,20.5,29.68,West,278,0.0,0.0,69,0.00,,,0.00,0.00,VWS V14.01,2013-03-02 08:03:00,
2013-03-02 03:04:00,29.4,20.5,29.68,West,278,0.0,0.0,69,0.00,,,0.00,0.00,VWS V14.01,2013-03-02 08:04:00,
2013-03-02 03:05:00,29.4,20.5,29.68,WSW,240,0.0,0.0,69,0.00,,,0.00,0.00,VWS V14.01,2013-03-02 08:05:00,
2013-03-02 03:06:00,29.4,20.5,29.68,West,275,0.0,0.0,69,0.00,,,0.00,0.00,VWS V14.01,2013-03-02 08:06:00,
2013-03-02 03:07:00,29.4,20.5,29.68,West,275,0.0,0.0,69,0.00,,,0.00,0.00,VWS V14.01,2013-03-02 08:07:00,
2013-03-02 03:08:00,29.4,20.5,29.68,West,275,0.0,0.0,69,0.00,,,0.00,0.00,VWS V14.01,2013-03-02 08:08:00,
2013-03-02 03:09:00,29.4,20.5,29.68,South,189,0.0,0.0,69,0.00,,,0.00,0.00,VWS V14.01,2013-03-02 08:09:00,
2013-03-02 03:10:00,29.4,20.5,29.68,West,275,0.0,0.0,69,0.00,,,0.00,0.00,VWS V14.01,2013-03-02 08:10:00,
2013-03-02 03:11:00,29.4,20.5,29.68,SSW,198,0.0,0.0,69,0.00,,,0.00,0.00,VWS V14.01,2013-03-02 08:11:00,
2013-03-02 03:12:00,29.4,20.8,29.68,SSW,203,0.0,0.0,70,0.00,,,0.00,0.00,VWS V14.01,2013-03-02 08:12:00,
2013-03-02 03:13:00,29.4,20.8,29.68,West,268,0.0,0.0,70,0.00,,,0.00,0.00,VWS V14.01,2013-03-02 08:13:00,
2013-03-02 03:14:00,29.4,20.8,29.68,West,268,0.0,0.0,70,0.00,,,0.00,0.00,VWS V14.01,2013-03-02 08:14:00,
2013-03-02 03:15:00,29.4,20.5,29.68,SSW,196,0.0,0.0,69,0.00,,,0.00,0.00,VWS V14.01,2013-03-02 08:15:00,
2013-03-02 03:16:00,29.4,20.8,29.68,West,268,0.0,0.0,70,0.00,,,0.00,0.00,VWS V14.01,2013-03-02 08:16:00,
2013-03-02 03:17:00,29.4,20.8,29.68,West,268,0.0,0.0,70,0.00,,,0.00,0.00,VWS V14.01,2013-03-02 08:17:00,
2013-03-02 03:18:00,29.4,20.8,29.68,West,268,0.0,0.0,70,0.00,,,0.00,0.00,VWS V14.01,2013-03-02 08:18:00,
2013-03-02 03:19:00,29.4,20.8,29.68,West,264,0.0,0.0,70,0.00,,,0.00,0.00,VWS V14.01,2013-03-02 08:19:00,
2013-03-02 03:20:00,29.4,20.8,29.68,West,260,0.0,0.0,70,0.00,,,0.00,0.00,VWS V14.01,2013-03-02 08:20:00,
2013-03-02 03:21:00,29.4,20.8,29.68,West,268,0.0,0.0,70,0.00,,,0.00,0.00,VWS V14.01,2013-03-02 08:21:00,
2013-03-02 03:22:00,29.4,20.8,29.68,West,260,0.0,0.0,70,0.00,,,0.00,0.00,VWS V14.01,2013-03-02 08:22:00,
2013-03-02 03:23:00,29.4,20.8,29.68,WSW,258,0.0,0.0,70,0.00,,,0.00,0.00,VWS V14.01,2013-03-02 08:23:00,
2013-03-02 03:24:00,29.4,20.8,29.68,WSW,258,0.0,0.0,70,0.00,,,0.00,0.00,VWS V14.01,2013-03-02 08:24:00,
2013-03-02 03:25:00,29.4,20.8,29.68,WSW,258,0.0,0.0,70,0.00,,,0.00,0.00,VWS V14.01,2013-03-02 08:25:00,
2013-03-02 03:26:00,29.4,20.8,29.68,West,260,0.0,0.0,70,0.00,,,0.00,0.00,VWS V14.01,2013-03-02 08:26:00,
2013-03-02 03:27:00,29.4,20.8,29.68,West,260,0.0,0.0,70,0.00,,,0.00,0.00,VWS V14.01,2013-03-02 08:27:00,
2013-03-02 03:28:00,29.4,20.8,29.68,SSW,203,0.0,0.0,70,0.00,,,0.00,0.00,VWS V14.01,2013-03-02 08:28:00,
2013-03-02 03:29:00,29.4,20.8,29.68,SW,236,0.0,0.0,70,0.00,,,0.00,0.00,VWS V14.01,2013-03-02 08:29:00,
2013-03-02 03:30:00,29.3,20.8,29.68,WNW,282,0.0,0.0,70,0.00,,,0.00,0.00,VWS V14.01,2013-03-02 08:30:00,
2013-03-02 03:31:00,29.3,21.1,29.68,WSW,253,0.0,0.0,71,0.00,,,0.00,0.00,VWS V14.01,2013-03-02 08:31:00,
2013-03-02 03:32:00,29.3,21.1,29.68,WSW,251,0.0,0.0,71,0.00,,,0.00,0.00,VWS V14.01,2013-03-02 08:32:00,
2013-03-02 03:33:00,29.4,20.8,29.68,SSW,203,0.0,0.0,70,0.00,,,0.00,0.00,VWS V14.01,2013-03-02 08:33:00,
2013-03-02 03:34:00,29.3,21.1,29.68,SW,216,0.0,0.0,71,0.00,,,0.00,0.00,VWS V14.01,2013-03-02 08:34:00,
2013-03-02 03:35:00,29.3,21.1,29.68,West,268,0.0,0.0,71,0.00,,,0.00,0.00,VWS V14.01,2013-03-02 08:35:00,
2013-03-02 03:36:00,29.3,21.1,29.68,WSW,244,0.0,0.0,71,0.00,,,0.00,0.00,VWS V14.01,2013-03-02 08:36:00,
2013-03-02 03:37:00,29.3,21.1,29.68,WSW,254,0.0,0.0,71,0.00,,,0.00,0.00,VWS V14.01,2013-03-02 08:37:00,
2013-03-02 03:38:00,29.3,21.1,29.68,West,277,0.0,0.0,71,0.00,,,0.00,0.00,VWS V14.01,2013-03-02 08:38:00,
2013-03-02 03:39:00,29.3,21.1,29.68,West,277,0.0,0.0,71,0.00,,,0.00,0.00,VWS V14.01,2013-03-02 08:39:00,
2013-03-02 03:40:00,29.3,21.1,29.68,West,277,0.0,0.0,71,0.00,,,0.00,0.00,VWS V14.01,2013-03-02 08:40:00,
2013-03-02 03:41:00,29.3,21.1,29.68,SW,229,0.0,0.0,71,0.00,,,0.00,0.00,VWS V14.01,2013-03-02 08:41:00,
2013-03-02 03:42:00,29.3,21.1,29.68,South,191,0.0,0.0,71,0.00,,,0.00,0.00,VWS V14.01,2013-03-02 08:42:00,
2013-03-02 03:43:00,29.3,21.1,29.68,South,175,0.0,0.0,71,0.00,,,0.00,0.00,VWS V14.01,2013-03-02 08:43:00,
2013-03-02 03:44:00,29.3,21.1,29.68,West,277,0.0,0.0,71,0.00,,,0.00,0.00,VWS V14.01,2013-03-02 08:44:00,
2013-03-02 03:45:00,29.3,21.1,29.68,WSW,257,0.0,0.0,71,0.00,,,0.00,0.00,VWS V14.01,2013-03-02 08:45:00,
2013-03-02 03:46:00,29.3,21.1,29.68,WSW,239,0.0,0.0,71,0.00,,,0.00,0.00,VWS V14.01,2013-03-02 08:46:00,
2013-03-02 03:47:00,29.3,21.4,29.68,WSW,256,0.0,0.0,72,0.00,,,0.00,0.00,VWS V14.01,2013-03-02 08:47:00,
2013-03-02 03:48:00,29.3,21.4,29.68,West,265,0.0,0.0,72,0.00,,,0.00,0.00,VWS V14.01,2013-03-02 08:48:00,
2013-03-02 03:49:00,29.3,21.1,29.68,West,265,0.0,0.0,71,0.00,,,0.00,0.00,VWS V14.01,2013-03-02 08:49:00,
2013-03-02 03:50:00,29.1,21.2,29.68,West,260,0.0,0.0,72,0.00,,,0.00,0.00,VWS V14.01,2013-03-02 08:50:00,
2013-03-02 03:51:00,29.1,21.2,29.68,West,281,0.0,0.0,72,0.00,,,0.00,0.00,VWS V14.01,2013-03-02 08:51:00,
2013-03-02 03:52:00,29.1,21.2,29.68,WSW,241,0.0,0.0,72,0.00,,,0.00,0.00,VWS V14.01,2013-03-02 08:52:00,
2013-03-02 03:53:00,29.1,21.2,29.68,WSW,241,0.0,0.0,72,0.00,,,0.00,0.00,VWS V14.01,2013-03-02 08:53:00,
2013-03-02 03:54:00,29.1,21.2,29.68,West,260,0.0,0.0,72,0.00,,,0.00,0.00,VWS V14.01,2013-03-02 08:54:00,
2013-03-02 03:55:00,29.1,21.2,29.68,West,260,0.0,0.0,72,0.00,,,0.00,0.00,VWS V14.01,2013-03-02 08:55:00,
2013-03-02 03:56:00,29.1,21.2,29.68,WSW,254,0.0,0.0,72,0.00,,,0.00,0.00,VWS V14.01,2013-03-02 08:56:00,
2013-03-02 03:57:00,29.1,21.2,29.68,WSW,258,0.0,0.0,72,0.00,,,0.00,0.00,VWS V14.01,2013-03-02 08:57:00,
2013-03-02 03:58:00,29.1,21.2,29.68,WSW,257,0.0,0.0,72,0.00,,,0.00,0.00,VWS V14.01,2013-03-02 08:58:00,
2013-03-02 03:59:00,29.1,21.2,29.68,WSW,256,0.0,0.0,72,0.00,,,0.00,0.00,VWS V14.01,2013-03-02 08:59:00,
2013-03-02 04:00:00,29.1,21.2,29.68,West,268,0.0,0.0,72,0.00,,,0.00,0.00,VWS V14.01,2013-03-02 09:00:00,
2013-03-02 04:01:00,29.1,21.2,29.67,WSW,256,0.0,0.0,72,0.00,,,0.00,0.00,VWS V14.01,2013-03-02 09:01:00,
2013-03-02 04:02:00,29.1,21.2,29.67,WSW,256,0.0,0.0,72,0.00,,,0.00,0.00,VWS V14.01,2013-03-02 09:02:00,
2013-03-02 04:03:00,29.1,21.2,29.67,WSW,256,0.0,0.0,72,0.00,,,0.00,0.00,VWS V14.01,2013-03-02 09:03:00,
2013-03-02 04:04:00,29.1,21.2,29.67,SSW,206,0.0,0.0,72,0.00,,,0.00,0.00,VWS V14.01,2013-03-02 09:04:00,
2013-03-02 04:05:00,29.1,21.2,29.67,WSW,256,0.0,0.0,72,0.00,,,0.00,0.00,VWS V14.01,2013-03-02 09:05:00,
2013-03-02 04:06:00,29.1,21.2,29.67,West,263,0.0,0.0,72,0.00,,,0.00,0.00,VWS V14.01,2013-03-02 09:06:00,
2013-03-02 04:07:00,29.1,21.2,29.67,West,263,0.0,0.0,72,0.00,,,0.00,0.00,VWS V14.01,2013-03-02 09:07:00,
2013-03-02 04:08:00,29.0,21.1,29.67,WSW,254,0.0,0.0,72,0.00,,,0.00,0.00,VWS V14.01,2013-03-02 09:08:00,
2013-03-02 04:09:00,29.0,21.1,29.67,WSW,256,0.0,0.0,72,0.00,,,0.00,0.00,VWS V14.01,2013-03-02 09:09:00,
2013-03-02 04:10:00,29.1,21.2,29.67,WNW,298,0.0,0.0,72,0.00,,,0.00,0.00,VWS V14.01,2013-03-02 09:10:00,
2013-03-02 04:11:00,29.0,21.4,29.67,WSW,256,0.0,0.0,73,0.00,,,0.00,0.00,VWS V14.01,2013-03-02 09:11:00,
2013-03-02 04:12:00,29.0,21.4,29.67,West,277,0.0,0.0,73,0.00,,,0.00,0.00,VWS V14.01,2013-03-02 09:12:00,
2013-03-02 04:13:00,29.0,21.4,29.67,WNW,282,0.0,0.0,73,0.00,,,0.00,0.00,VWS V14.01,2013-03-02 09:13:00,
2013-03-02 04:14:00,29.0,21.4,29.67,West,263,0.0,0.0,73,0.00,,,0.00,0.00,VWS V14.01,2013-03-02 09:14:00,
2013-03-02 04:15:00,29.0,21.1,29.67,WSW,256,0.0,0.0,72,0.00,,,0.00,0.00,VWS V14.01,2013-03-02 09:15:00,
2013-03-02 04:16:00,29.0,21.4,29.67,WNW,294,0.0,0.0,73,0.00,,,0.00,0.00,VWS V14.01,2013-03-02 09:16:00,
2013-03-02 04:17:00,29.0,21.4,29.67,West,275,0.0,0.0,73,0.00,,,0.00,0.00,VWS V14.01,2013-03-02 09:17:00,
2013-03-02 04:18:00,29.0,21.4,29.67,West,277,0.0,0.0,73,0.00,,,0.00,0.00,VWS V14.01,2013-03-02 09:18:00,
2013-03-02 04:19:00,29.0,21.4,29.67,SW,229,0.0,0.0,73,0.00,,,0.00,0.00,VWS V14.01,2013-03-02 09:19:00,
2013-03-02 04:20:00,29.0,21.4,29.67,West,278,0.0,0.0,73,0.00,,,0.00,0.00,VWS V14.01,2013-03-02 09:20:00,
2013-03-02 04:21:00,29.0,21.4,29.67,WNW,284,0.0,0.0,73,0.00,,,0.00,0.00,VWS V14.01,2013-03-02 09:21:00,
2013-03-02 04:22:00,28.8,21.2,29.67,West,264,0.0,0.0,73,0.00,,,0.00,0.00,VWS V14.01,2013-03-02 09:22:00,
2013-03-02 04:23:00,28.8,21.2,29.67,West,260,0.0,0.0,73,0.00,,,0.00,0.00,VWS V14.01,2013-03-02 09:23:00,
2013-03-02 04:24:00,28.8,21.2,29.67,West,260,0.0,0.0,73,0.00,,,0.00,0.00,VWS V14.01,2013-03-02 09:24:00,
2013-03-02 04:25:00,29.0,21.4,29.67,SW,232,0.0,0.0,73,0.00,,,0.00,0.00,VWS V14.01,2013-03-02 09:25:00,
2013-03-02 04:26:00,28.8,21.2,29.67,West,278,0.0,0.0,73,0.00,,,0.00,0.00,VWS V14.01,2013-03-02 09:26:00,
2013-03-02 04:27:00,28.8,21.2,29.67,NW,313,0.0,0.0,73,0.00,,,0.00,0.00,VWS V14.01,2013-03-02 09:27:00,
2013-03-02 04:28:00,28.8,21.2,29.67,West,275,0.0,0.0,73,0.00,,,0.00,0.00,VWS V14.01,2013-03-02 09:28:00,
2013-03-02 04:29:00,28.7,21.2,29.67,NW,309,0.0,0.0,73,0.00,,,0.00,0.00,VWS V14.01,2013-03-02 09:29:00,
2013-03-02 04:30:00,28.7,21.2,29.66,WNW,302,0.0,0.0,73,0.00,,,0.00,0.00,VWS V14.01,2013-03-02 09:30:00,
2013-03-02 04:31:00,28.8,21.2,29.67,West,278,0.0,0.0,73,0.00,,,0.00,0.00,VWS V14.01,2013-03-02 09:31:00,
2013-03-02 04:32:00,28.7,21.5,29.66,West,280,0.0,0.0,74,0.00,,,0.00,0.00,VWS V14.01,2013-03-02 09:32:00,
2013-03-02 04:33:00,28.7,21.5,29.66,West,280,0.0,0.0,74,0.00,,,0.00,0.00,VWS V14.01,2013-03-02 09:33:00,
2013-03-02 04:34:00,28.7,21.5,29.66,West,280,0.0,0.0,74,0.00,,,0.00,0.00,VWS V14.01,2013-03-02 09:34:00,
2013-03-02 04:35:00,28.7,21.5,29.66,WNW,289,0.0,0.0,74,0.00,,,0.00,0.00,VWS V14.01,2013-03-02 09:35:00,
2013-03-02 04:36:00,28.7,21.1,29.66,WNW,296,0.0,0.0,73,0.00,,,0.00,0.00,VWS V14.01,2013-03-02 09:36:00,
2013-03-02 04:37:00,28.5,21.3,29.66,WSW,257,0.0,0.0,74,0.00,,,0.00,0.00,VWS V14.01,2013-03-02 09:37:00,
2013-03-02 04:38:00,28.5,21.3,29.66,WNW,287,0.0,0.0,74,0.00,,,0.00,0.00,VWS V14.01,2013-03-02 09:38:00,
2013-03-02 04:39:00,28.5,21.3,29.66,West,265,0.0,0.0,74,0.00,,,0.00,0.00,VWS V14.01,2013-03-02 09:39:00,
2013-03-02 04:40:00,28.5,21.3,29.66,WSW,254,0.0,0.0,74,0.00,,,0.00,0.00,VWS V14.01,2013-03-02 09:40:00,
2013-03-02 04:41:00,28.7,21.5,29.66,West,274,0.0,0.0,74,0.00,,,0.00,0.00,VWS V14.01,2013-03-02 09:41:00,
2013-03-02 04:42:00,28.5,21.3,29.66,West,260,0.0,0.0,74,0.00,,,0.00,0.00,VWS V14.01,2013-03-02 09:42:00,
2013-03-02 04:43:00,28.5,21.3,29.66,West,268,0.0,0.0,74,0.00,,,0.00,0.00,VWS V14.01,2013-03-02 09:43:00,
2013-03-02 04:44:00,28.5,21.3,29.66,West,268,0.0,0.0,74,0.00,,,0.00,0.00,VWS V14.01,2013-03-02 09:44:00,
2013-03-02 04:45:00,28.5,21.3,29.66,West,277,0.0,0.0,74,0.00,,,0.00,0.00,VWS V14.01,2013-03-02 09:45:00,
2013-03-02 04:46:00,28.4,21.2,29.66,South,179,0.0,0.0,74,0.00,,,0.00,0.00,VWS V14.01,2013-03-02 09:46:00,
2013-03-02 04:47:00,28.5,21.3,29.66,West,260,0.0,0.0,74,0.00,,,0.00,0.00,VWS V14.01,2013-03-02 09:47:00,
2013-03-02 04:48:00,28.4,21.2,29.66,West,280,0.0,0.0,74,0.00,,,0.00,0.00,VWS V14.01,2013-03-02 09:48:00,
2013-03-02 04:49:00,28.4,21.2,29.66,West,278,0.0,0.0,74,0.00,,,0.00,0.00,VWS V14.01,2013-03-02 09:49:00,
2013-03-02 04:50:00,28.4,21.2,29.66,West,270,0.0,0.0,74,0.00,,,0.00,0.00,VWS V14.01,2013-03-02 09:50:00,
2013-03-02 04:51:00,28.4,21.2,29.66,West,274,0.0,0.0,74,0.00,,,0.00,0.00,VWS V14.01,2013-03-02 09:51:00,
2013-03-02 04:52:00,28.4,21.2,29.66,WNW,288,0.0,0.0,74,0.00,,,0.00,0.00,VWS V14.01,2013-03-02 09:52:00,
2013-03-02 04:53:00,28.4,21.2,29.66,West,280,0.0,0.0,74,0.00,,,0.00,0.00,VWS V14.01,2013-03-02 09:53:00,
2013-03-02 04:54:00,28.4,20.9,29.66,West,267,0.0,0.0,73,0.00,,,0.00,0.00,VWS V14.01,2013-03-02 09:54:00,
2013-03-02 04:55:00,28.4,20.9,29.66,West,264,0.0,0.0,73,0.00,,,0.00,0.00,VWS V14.01,2013-03-02 09:55:00,
2013-03-02 04:56:00,28.4,20.9,29.66,WNW,285,0.0,0.0,73,0.00,,,0.00,0.00,VWS V14.01,2013-03-02 09:56:00,
2013-03-02 04:57:00,28.4,20.9,29.66,West,270,0.0,0.0,73,0.00,,,0.00,0.00,VWS V14.01,2013-03-02 09:57:00,
2013-03-02 04:58:00,28.4,20.9,29.66,WNW,291,0.0,0.0,73,0.00,,,0.00,0.00,VWS V14.01,2013-03-02 09:58:00,
2013-03-02 04:59:00,28.4,20.9,29.66,West,275,0.0,0.0,73,0.00,,,0.00,0.00,VWS V14.01,2013-03-02 09:59:00,
2013-03-02 05:00:00,28.4,20.9,29.66,WNW,287,0.0,0.0,73,0.00,,,0.00,0.00,VWS V14.01,2013-03-02 10:00:00,
2013-03-02 05:01:00,28.4,20.9,29.66,WNW,294,0.0,0.0,73,0.00,,,0.00,0.00,VWS V14.01,2013-03-02 10:01:00,
2013-03-02 05:02:00,28.4,20.9,29.66,West,260,0.0,0.0,73,0.00,,,0.00,0.00,VWS V14.01,2013-03-02 10:02:00,
2013-03-02 05:03:00,28.4,20.9,29.66,West,275,0.0,0.0,73,0.00,,,0.00,0.00,VWS V14.01,2013-03-02 10:03:00,
2013-03-02 05:04:00,28.4,20.9,29.66,West,275,0.0,0.0,73,0.00,,,0.00,0.00,VWS V14.01,2013-03-02 10:04:00,
2013-03-02 05:05:00,28.4,20.9,29.66,West,278,0.0,0.0,73,0.00,,,0.00,0.00,VWS V14.01,2013-03-02 10:05:00,
2013-03-02 05:06:00,28.4,20.9,29.66,West,265,0.0,0.0,73,0.00,,,0.00,0.00,VWS V14.01,2013-03-02 10:06:00,
2013-03-02 05:07:00,28.4,20.9,29.66,WNW,289,0.0,0.0,73,0.00,,,0.00,0.00,VWS V14.01,2013-03-02 10:07:00,
2013-03-02 05:08:00,28.4,20.9,29.66,WNW,289,0.0,0.0,73,0.00,,,0.00,0.00,VWS V14.01,2013-03-02 10:08:00,
2013-03-02 05:09:00,28.4,20.9,29.66,West,274,0.0,0.0,73,0.00,,,0.00,0.00,VWS V14.01,2013-03-02 10:09:00,
2013-03-02 05:10:00,28.4,20.9,29.66,West,278,0.0,0.0,73,0.00,,,0.00,0.00,VWS V14.01,2013-03-02 10:10:00,
2013-03-02 05:11:00,28.2,20.7,29.66,West,270,0.0,0.0,73,0.00,,,0.00,0.00,VWS V14.01,2013-03-02 10:11:00,
2013-03-02 05:12:00,28.2,20.7,29.66,WSW,251,0.0,0.0,73,0.00,,,0.00,0.00,VWS V14.01,2013-03-02 10:12:00,
2013-03-02 05:13:00,28.2,20.7,29.66,WSW,237,0.0,0.0,73,0.00,,,0.00,0.00,VWS V14.01,2013-03-02 10:13:00,
2013-03-02 05:14:00,28.2,20.7,29.66,West,275,0.0,0.0,73,0.00,,,0.00,0.00,VWS V14.01,2013-03-02 10:14:00,
2013-03-02 05:15:00,28.2,20.7,29.66,West,268,0.0,0.0,73,0.00,,,0.00,0.00,VWS V14.01,2013-03-02 10:15:00,
2013-03-02 05:16:00,28.2,20.7,29.66,West,270,0.0,0.0,73,0.00,,,0.00,0.00,VWS V14.01,2013-03-02 10:16:00,
2013-03-02 05:17:00,28.2,20.7,29.66,West,272,0.0,0.0,73,0.00,,,0.00,0.00,VWS V14.01,2013-03-02 10:17:00,
2013-03-02 05:18:00,28.2,20.7,29.66,West,274,0.0,0.0,73,0.00,,,0.00,0.00,VWS V14.01,2013-03-02 10:18:00,
2013-03-02 05:19:00,28.2,20.7,29.66,WSW,253,0.0,0.0,73,0.00,,,0.00,0.00,VWS V14.01,2013-03-02 10:19:00,
2013-03-02 05:20:00,28.2,20.7,29.66,WSW,254,0.0,0.0,73,0.00,,,0.00,0.00,VWS V14.01,2013-03-02 10:20:00,
2013-03-02 05:21:00,28.2,20.7,29.66,West,264,0.0,0.0,73,0.00,,,0.00,0.00,VWS V14.01,2013-03-02 10:21:00,
2013-03-02 05:22:00,28.2,20.7,29.66,West,272,0.0,0.0,73,0.00,,,0.00,0.00,VWS V14.01,2013-03-02 10:22:00,
2013-03-02 05:23:00,28.1,20.2,29.66,West,268,0.0,0.0,72,0.00,,,0.00,0.00,VWS V14.01,2013-03-02 10:23:00,
2013-03-02 05:24:00,28.1,20.2,29.66,West,268,0.0,0.0,72,0.00,,,0.00,0.00,VWS V14.01,2013-03-02 10:24:00,
2013-03-02 05:25:00,28.1,19.9,29.66,West,270,0.0,0.0,71,0.00,,,0.00,0.00,VWS V14.01,2013-03-02 10:25:00,
2013-03-02 05:26:00,28.1,19.9,29.66,WSW,243,0.0,0.0,71,0.00,,,0.00,0.00,VWS V14.01,2013-03-02 10:26:00,
2013-03-02 05:27:00,28.2,20.7,29.66,West,267,0.0,0.0,73,0.00,,,0.00,0.00,VWS V14.01,2013-03-02 10:27:00,
2013-03-02 05:28:00,28.1,19.9,29.66,WNW,288,0.0,0.0,71,0.00,,,0.00,0.00,VWS V14.01,2013-03-02 10:28:00,
2013-03-02 05:29:00,28.1,19.9,29.66,West,267,0.0,0.0,71,0.00,,,0.00,0.00,VWS V14.01,2013-03-02 10:29:00,
2013-03-02 05:30:00,28.1,19.9,29.66,WSW,258,0.0,0.0,71,0.00,,,0.00,0.00,VWS V14.01,2013-03-02 10:30:00,
2013-03-02 05:31:00,28.1,19.9,29.66,West,280,0.0,0.0,71,0.00,,,0.00,0.00,VWS V14.01,2013-03-02 10:31:00,
2013-03-02 05:32:00,28.1,19.9,29.66,West,275,0.0,0.0,71,0.00,,,0.00,0.00,VWS V14.01,2013-03-02 10:32:00,
2013-03-02 05:33:00,28.1,19.9,29.66,WNW,288,0.0,0.0,71,0.00,,,0.00,0.00,VWS V14.01,2013-03-02 10:33:00,
2013-03-02 05:34:00,28.1,19.9,29.66,West,271,0.0,0.0,71,0.00,,,0.00,0.00,VWS V14.01,2013-03-02 10:34:00,
2013-03-02 05:35:00,27.9,19.7,29.66,West,275,0.0,0.0,71,0.00,,,0.00,0.00,VWS V14.01,2013-03-02 10:35:00,
2013-03-02 05:36:00,27.9,19.7,29.66,NW,315,0.0,0.0,71,0.00,,,0.00,0.00,VWS V14.01,2013-03-02 10:36:00,
2013-03-02 05:37:00,27.9,19.7,29.66,WSW,241,0.0,0.0,71,0.00,,,0.00,0.00,VWS V14.01,2013-03-02 10:37:00,
2013-03-02 05:38:00,27.9,19.7,29.66,West,272,0.0,0.0,71,0.00,,,0.00,0.00,VWS V14.01,2013-03-02 10:38:00,
2013-03-02 05:39:00,28.1,19.9,29.66,West,271,0.0,0.0,71,0.00,,,0.00,0.00,VWS V14.01,2013-03-02 10:39:00,
2013-03-02 05:40:00,27.9,19.7,29.66,West,265,0.0,0.0,71,0.00,,,0.00,0.00,VWS V14.01,2013-03-02 10:40:00,
2013-03-02 05:41:00,27.9,19.7,29.66,WSW,258,0.0,0.0,71,0.00,,,0.00,0.00,VWS V14.01,2013-03-02 10:41:00,
2013-03-02 05:42:00,27.9,19.4,29.66,WSW,257,0.0,0.0,70,0.00,,,0.00,0.00,VWS V14.01,2013-03-02 10:42:00,
2013-03-02 05:43:00,27.9,19.4,29.66,WSW,246,0.0,0.0,70,0.00,,,0.00,0.00,VWS V14.01,2013-03-02 10:43:00,
2013-03-02 05:44:00,27.9,19.4,29.66,West,281,0.0,0.0,70,0.00,,,0.00,0.00,VWS V14.01,2013-03-02 10:44:00,
2013-03-02 05:45:00,27.9,19.7,29.66,West,265,0.0,0.0,71,0.00,,,0.00,0.00,VWS V14.01,2013-03-02 10:45:00,
2013-03-02 05:46:00,27.9,19.4,29.66,WSW,240,0.0,0.0,70,0.00,,,0.00,0.00,VWS V14.01,2013-03-02 10:46:00,
2013-03-02 05:47:00,27.9,19.4,29.66,WNW,299,0.0,0.0,70,0.00,,,0.00,0.00,VWS V14.01,2013-03-02 10:47:00,
2013-03-02 05:48:00,27.9,19.4,29.66,West,275,0.0,0.0,70,0.00,,,0.00,0.00,VWS V14.01,2013-03-02 10:48:00,
2013-03-02 05:49:00,27.9,19.4,29.66,West,268,0.0,0.0,70,0.00,,,0.00,0.00,VWS V14.01,2013-03-02 10:49:00,
2013-03-02 05:50:00,27.9,19.4,29.66,West,265,0.0,0.0,70,0.00,,,0.00,0.00,VWS V14.01,2013-03-02 10:50:00,
2013-03-02 05:51:00,27.9,19.4,29.66,WSW,240,0.0,0.0,70,0.00,,,0.00,0.00,VWS V14.01,2013-03-02 10:51:00,
2013-03-02 05:52:00,27.9,19.4,29.66,WSW,246,0.0,0.0,70,0.00,,,0.00,0.00,VWS V14.01,2013-03-02 10:52:00,
2013-03-02 05:53:00,27.9,19.4,29.66,West,271,0.0,0.0,70,0.00,,,0.00,0.00,VWS V14.01,2013-03-02 10:53:00,
2013-03-02 05:54:00,27.9,19.4,29.66,WSW,256,0.0,0.0,70,0.00,,,0.00,0.00,VWS V14.01,2013-03-02 10:54:00,
2013-03-02 05:55:00,27.9,19.4,29.66,WNW,284,0.0,0.0,70,0.00,,,0.00,0.00,VWS V14.01,2013-03-02 10:55:00,
2013-03-02 05:56:00,27.9,19.4,29.66,South,185,0.0,0.0,70,0.00,,,0.00,0.00,VWS V14.01,2013-03-02 10:56:00,
2013-03-02 05:57:00,27.9,19.4,29.66,WSW,246,0.0,0.0,70,0.00,,,0.00,0.00,VWS V14.01,2013-03-02 10:57:00,
2013-03-02 05:58:00,27.9,19.4,29.66,WSW,258,0.0,0.0,70,0.00,,,0.00,0.00,VWS V14.01,2013-03-02 10:58:00,
2013-03-02 05:59:00,27.9,19.4,29.66,SW,223,0.0,0.0,70,0.00,,,0.00,0.00,VWS V14.01,2013-03-02 10:59:00,
2013-03-02 06:00:00,27.9,19.4,29.67,WSW,243,0.0,0.0,70,0.00,,,0.00,0.00,VWS V14.01,2013-03-02 11:00:00,
2013-03-02 06:01:00,27.9,19.4,29.67,West,271,0.0,0.0,70,0.00,,,0.00,0.00,VWS V14.01,2013-03-02 11:01:00,
2013-03-02 06:02:00,27.9,19.4,29.66,West,265,0.0,0.0,70,0.00,,,0.00,0.00,VWS V14.01,2013-03-02 11:02:00,
2013-03-02 06:03:00,27.9,19.4,29.67,WSW,248,0.0,0.0,70,0.00,,,0.00,0.00,VWS V14.01,2013-03-02 11:03:00,
2013-03-02 06:04:00,27.9,19.4,29.67,WSW,248,0.0,0.0,70,0.00,,,0.00,0.00,VWS V14.01,2013-03-02 11:04:00,
2013-03-02 06:05:00,27.9,19.4,29.67,West,272,0.0,0.0,70,0.00,,,0.00,0.00,VWS V14.01,2013-03-02 11:05:00,
2013-03-02 06:06:00,27.9,19.4,29.67,West,265,0.0,0.0,70,0.00,,,0.00,0.00,VWS V14.01,2013-03-02 11:06:00,
2013-03-02 06:07:00,27.9,19.4,29.67,West,268,0.0,0.0,70,0.00,,,0.00,0.00,VWS V14.01,2013-03-02 11:07:00,
2013-03-02 06:08:00,27.9,19.4,29.67,WSW,248,0.0,0.0,70,0.00,,,0.00,0.00,VWS V14.01,2013-03-02 11:08:00,
2013-03-02 06:09:00,27.9,19.4,29.67,West,275,0.0,0.0,70,0.00,,,0.00,0.00,VWS V14.01,2013-03-02 11:09:00,
2013-03-02 06:10:00,27.9,19.4,29.67,WSW,251,0.0,0.0,70,0.00,,,0.00,0.00,VWS V14.01,2013-03-02 11:10:00,
2013-03-02 06:11:00,27.9,19.4,29.67,West,260,0.0,0.0,70,0.00,,,0.00,0.00,VWS V14.01,2013-03-02 11:11:00,
2013-03-02 06:12:00,27.9,19.4,29.67,West,260,0.0,0.0,70,0.00,,,0.00,0.00,VWS V14.01,2013-03-02 11:12:00,
2013-03-02 06:13:00,27.9,19.4,29.67,West,264,0.0,0.0,70,0.00,,,0.00,0.00,VWS V14.01,2013-03-02 11:13:00,
2013-03-02 06:14:00,27.9,19.4,29.67,West,261,0.0,0.0,70,0.00,,,0.00,0.00,VWS V14.01,2013-03-02 11:14:00,
2013-03-02 06:15:00,27.9,19.4,29.67,West,267,0.0,0.0,70,0.00,,,0.00,0.00,VWS V14.01,2013-03-02 11:15:00,
2013-03-02 06:16:00,27.9,19.4,29.67,WSW,244,0.0,0.0,70,0.00,,,0.00,0.00,VWS V14.01,2013-03-02 11:16:00,
2013-03-02 06:17:00,27.9,19.4,29.67,SSW,209,0.0,0.0,70,0.00,,,0.00,0.00,VWS V14.01,2013-03-02 11:17:00,
2013-03-02 06:18:00,27.9,19.4,29.67,West,260,0.0,0.0,70,0.00,,,0.00,0.00,VWS V14.01,2013-03-02 11:18:00,
2013-03-02 06:19:00,27.9,19.4,29.67,WSW,257,0.0,0.0,70,0.00,,,0.00,0.00,VWS V14.01,2013-03-02 11:19:00,
2013-03-02 06:20:00,27.9,19.7,29.67,South,191,0.0,0.0,71,0.00,,,0.00,0.00,VWS V14.01,2013-03-02 11:20:00,
2013-03-02 06:21:00,27.9,19.7,29.67,South,186,0.0,0.0,71,0.00,,,0.00,0.00,VWS V14.01,2013-03-02 11:21:00,
2013-03-02 06:22:00,27.9,19.7,29.67,West,263,0.0,0.0,71,0.00,,,0.00,0.00,VWS V14.01,2013-03-02 11:22:00,
2013-03-02 06:23:00,27.9,19.4,29.67,SSW,198,0.0,0.0,70,0.00,,,0.00,0.00,VWS V14.01,2013-03-02 11:23:00,
2013-03-02 06:24:00,27.9,19.7,29.67,West,277,0.0,0.0,71,0.00,,,0.00,0.00,VWS V14.01,2013-03-02 11:24:00,
2013-03-02 06:25:00,27.9,19.7,29.67,West,277,0.0,0.0,71,0.00,,,0.00,0.00,VWS V14.01,2013-03-02 11:25:00,
2013-03-02 06:26:00,27.9,19.7,29.67,West,277,0.0,0.0,71,0.00,,,0.00,0.00,VWS V14.01,2013-03-02 11:26:00,
2013-03-02 06:27:00,27.9,19.7,29.67,West,265,0.0,0.0,71,0.00,,,0.00,0.00,VWS V14.01,2013-03-02 11:27:00,
2013-03-02 06:28:00,27.9,19.7,29.67,West,267,0.0,0.0,71,0.00,,,0.00,0.00,VWS V14.01,2013-03-02 11:28:00,
2013-03-02 06:29:00,27.9,19.7,29.67,West,277,0.0,0.0,71,0.00,,,0.00,0.00,VWS V14.01,2013-03-02 11:29:00,
2013-03-02 06:30:00,27.9,19.7,29.67,West,274,0.0,0.0,71,0.00,,,0.00,0.00,VWS V14.01,2013-03-02 11:30:00,
2013-03-02 06:31:00,27.9,19.7,29.67,West,281,0.0,0.0,71,0.00,,,0.00,0.00,VWS V14.01,2013-03-02 11:31:00,
2013-03-02 06:32:00,27.9,19.7,29.67,WSW,246,0.0,0.0,71,0.00,,,0.00,0.00,VWS V14.01,2013-03-02 11:32:00,
2013-03-02 06:33:00,27.9,19.7,29.67,West,260,0.0,0.0,71,0.00,,,0.00,0.00,VWS V14.01,2013-03-02 11:33:00,
2013-03-02 06:34:00,27.9,19.7,29.67,West,278,0.0,0.0,71,0.00,,,0.00,0.00,VWS V14.01,2013-03-02 11:34:00,
2013-03-02 06:35:00,27.9,19.7,29.67,West,274,0.0,0.0,71,0.00,,,0.00,0.00,VWS V14.01,2013-03-02 11:35:00,
2013-03-02 06:36:00,27.9,19.7,29.67,SSW,202,0.0,0.0,71,0.00,,,0.00,0.00,VWS V14.01,2013-03-02 11:36:00,
2013-03-02 06:37:00,27.9,19.7,29.67,West,263,0.0,0.0,71,0.00,,,0.00,0.00,VWS V14.01,2013-03-02 11:37:00,
2013-03-02 06:38:00,27.9,19.7,29.67,West,264,0.0,0.0,71,0.00,,,0.00,0.00,VWS V14.01,2013-03-02 11:38:00,
2013-03-02 06:39:00,27.9,20.1,29.67,West,264,0.0,0.0,72,0.00,,,0.00,0.00,VWS V14.01,2013-03-02 11:39:00,
2013-03-02 06:40:00,27.9,19.7,29.67,South,191,0.0,0.0,71,0.00,,,0.00,0.00,VWS V14.01,2013-03-02 11:40:00,
2013-03-02 06:41:00,27.9,20.1,29.67,West,272,0.0,0.0,72,0.00,,,0.00,0.00,VWS V14.01,2013-03-02 11:41:00,
2013-03-02 06:42:00,27.9,20.1,29.67,West,275,0.0,0.0,72,0.00,,,0.00,0.00,VWS V14.01,2013-03-02 11:42:00,
2013-03-02 06:43:00,27.9,20.1,29.67,West,275,0.0,0.0,72,0.00,,,0.00,0.00,VWS V14.01,2013-03-02 11:43:00,
2013-03-02 06:44:00,27.9,20.1,29.67,SW,219,0.0,0.0,72,0.00,,,0.00,0.00,VWS V14.01,2013-03-02 11:44:00,
2013-03-02 06:45:00,27.9,20.1,29.67,West,260,0.0,0.0,72,0.00,,,0.00,0.00,VWS V14.01,2013-03-02 11:45:00,
2013-03-02 06:46:00,27.9,20.1,29.67,West,272,0.0,0.0,72,0.00,,,0.00,0.00,VWS V14.01,2013-03-02 11:46:00,
2013-03-02 06:47:00,27.9,20.1,29.67,WNW,284,0.0,0.0,72,0.00,,,0.00,0.00,VWS V14.01,2013-03-02 11:47:00,
2013-03-02 06:48:00,27.8,20.0,29.67,WSW,244,0.0,0.0,72,0.00,,,0.00,0.00,VWS V14.01,2013-03-02 11:48:00,
2013-03-02 06:49:00,27.8,20.0,29.67,West,265,0.0,0.0,72,0.00,,,0.00,0.00,VWS V14.01,2013-03-02 11:49:00,
2013-03-02 06:50:00,27.8,20.0,29.67,West,265,0.0,0.0,72,0.00,,,0.00,0.00,VWS V14.01,2013-03-02 11:50:00,
2013-03-02 06:51:00,27.9,20.1,29.67,West,267,0.0,0.0,72,0.00,,,0.00,0.00,VWS V14.01,2013-03-02 11:51:00,
2013-03-02 06:52:00,27.8,20.0,29.67,WSW,258,0.0,0.0,72,0.00,,,0.00,0.00,VWS V14.01,2013-03-02 11:52:00,
2013-03-02 06:53:00,27.8,20.0,29.67,WNW,284,0.0,0.0,72,0.00,,,0.00,0.00,VWS V14.01,2013-03-02 11:53:00,
2013-03-02 06:54:00,27.8,20.0,29.67,WSW,240,0.0,0.0,72,0.00,,,0.00,0.00,VWS V14.01,2013-03-02 11:54:00,
2013-03-02 06:55:00,27.8,20.0,29.67,West,265,0.0,0.0,72,0.00,,,0.00,0.00,VWS V14.01,2013-03-02 11:55:00,
2013-03-02 06:56:00,27.8,20.0,29.67,West,265,0.0,0.0,72,0.00,,,0.00,0.00,VWS V14.01,2013-03-02 11:56:00,
2013-03-02 06:57:00,27.8,20.0,29.67,WSW,258,0.0,0.0,72,0.00,,,0.00,0.00,VWS V14.01,2013-03-02 11:57:00,
2013-03-02 06:58:00,27.8,20.0,29.67,West,265,0.0,0.0,72,0.00,,,0.00,0.00,VWS V14.01,2013-03-02 11:58:00,
2013-03-02 06:59:00,27.8,20.3,29.67,West,265,0.0,0.0,73,0.00,,,0.00,0.00,VWS V14.01,2013-03-02 11:59:00,
2013-03-02 07:00:00,27.8,20.3,29.67,West,265,0.0,0.0,73,0.00,,,0.00,0.00,VWS V14.01,2013-03-02 12:00:00,
2013-03-02 07:01:00,27.8,20.3,29.67,West,261,0.0,0.0,73,0.00,,,0.00,0.00,VWS V14.01,2013-03-02 12:01:00,
2013-03-02 07:02:00,27.8,20.0,29.67,West,265,0.0,0.0,72,0.00,,,0.00,0.00,VWS V14.01,2013-03-02 12:02:00,
2013-03-02 07:03:00,27.8,20.3,29.67,West,261,0.0,0.0,73,0.00,,,0.00,5.00,VWS V14.01,2013-03-02 12:03:00,
2013-03-02 07:04:00,27.8,20.3,29.67,West,261,0.0,0.0,73,0.00,,,0.00,5.00,VWS V14.01,2013-03-02 12:04:00,
2013-03-02 07:05:00,27.8,20.3,29.67,WNW,285,0.0,0.0,73,0.00,,,0.00,5.00,VWS V14.01,2013-03-02 12:05:00,
2013-03-02 07:06:00,27.8,20.3,29.67,WNW,285,0.0,0.0,73,0.00,,,0.00,5.00,VWS V14.01,2013-03-02 12:06:00,
2013-03-02 07:07:00,27.8,20.3,29.67,West,277,0.0,0.0,73,0.00,,,0.00,5.00,VWS V14.01,2013-03-02 12:07:00,
2013-03-02 07:08:00,27.8,20.3,29.67,West,261,0.0,0.0,73,0.00,,,0.00,5.00,VWS V14.01,2013-03-02 12:08:00,
2013-03-02 07:09:00,27.8,20.3,29.67,WNW,287,0.0,0.0,73,0.00,,,0.00,5.00,VWS V14.01,2013-03-02 12:09:00,
2013-03-02 07:10:00,27.8,20.3,29.67,WNW,285,0.0,0.0,73,0.00,,,0.00,11.00,VWS V14.01,2013-03-02 12:10:00,
2013-03-02 07:11:00,27.8,20.3,29.67,WNW,285,0.0,0.0,73,0.00,,,0.00,11.00,VWS V14.01,2013-03-02 12:11:00,
2013-03-02 07:12:00,27.8,20.6,29.67,WNW,282,0.0,0.0,74,0.00,,,0.00,11.00,VWS V14.01,2013-03-02 12:12:00,
2013-03-02 07:13:00,27.8,20.3,29.67,WNW,284,0.0,0.0,73,0.00,,,0.00,5.00,VWS V14.01,2013-03-02 12:13:00,
2013-03-02 07:14:00,27.8,20.6,29.67,West,275,0.0,0.0,74,0.00,,,0.00,11.00,VWS V14.01,2013-03-02 12:14:00,
2013-03-02 07:15:00,27.8,20.6,29.67,WSW,253,0.0,0.0,74,0.00,,,0.00,11.00,VWS V14.01,2013-03-02 12:15:00,
2013-03-02 07:16:00,27.8,20.6,29.67,WSW,240,0.0,0.0,74,0.00,,,0.00,11.00,VWS V14.01,2013-03-02 12:16:00,
2013-03-02 07:17:00,27.8,20.6,29.67,WSW,253,0.0,0.0,74,0.00,,,0.00,11.00,VWS V14.01,2013-03-02 12:17:00,
2013-03-02 07:18:00,27.8,20.6,29.67,SW,227,0.0,0.0,74,0.00,,,0.00,11.00,VWS V14.01,2013-03-02 12:18:00,
2013-03-02 07:19:00,27.8,20.6,29.67,West,275,0.0,0.0,74,0.00,,,0.00,11.00,VWS V14.01,2013-03-02 12:19:00,
2013-03-02 07:20:00,27.8,20.6,29.67,West,267,0.0,0.0,74,0.00,,,0.00,12.00,VWS V14.01,2013-03-02 12:20:00,
2013-03-02 07:21:00,27.8,20.6,29.67,South,188,0.0,0.0,74,0.00,,,0.00,12.00,VWS V14.01,2013-03-02 12:21:00,
2013-03-02 07:22:00,27.8,20.6,29.67,WSW,250,0.0,0.0,74,0.00,,,0.00,12.00,VWS V14.01,2013-03-02 12:22:00,
2013-03-02 07:23:00,27.8,20.6,29.67,WSW,241,0.0,0.0,74,0.00,,,0.00,16.00,VWS V14.01,2013-03-02 12:23:00,
2013-03-02 07:24:00,27.8,20.6,29.67,SW,234,0.0,0.0,74,0.00,,,0.00,12.00,VWS V14.01,2013-03-02 12:24:00,
2013-03-02 07:25:00,27.8,20.9,29.67,WNW,287,0.0,0.0,75,0.00,,,0.00,16.00,VWS V14.01,2013-03-02 12:25:00,
2013-03-02 07:26:00,27.8,20.9,29.67,WNW,287,0.0,0.0,75,0.00,,,0.00,16.00,VWS V14.01,2013-03-02 12:26:00,
2013-03-02 07:27:00,27.8,20.9,29.67,WSW,257,0.0,0.0,75,0.00,,,0.00,16.00,VWS V14.01,2013-03-02 12:27:00,
2013-03-02 07:28:00,27.8,20.9,29.67,West,277,0.0,0.0,75,0.00,,,0.00,16.00,VWS V14.01,2013-03-02 12:28:00,
2013-03-02 07:29:00,27.8,20.6,29.67,SW,230,0.0,0.0,74,0.00,,,0.00,16.00,VWS V14.01,2013-03-02 12:29:00,
2013-03-02 07:30:00,27.8,20.9,29.68,West,275,0.0,0.0,75,0.00,,,0.00,16.00,VWS V14.01,2013-03-02 12:30:00,
2013-03-02 07:31:00,27.8,20.9,29.68,West,263,0.0,0.0,75,0.00,,,0.00,16.00,VWS V14.01,2013-03-02 12:31:00,
2013-03-02 07:32:00,27.8,20.9,29.68,WSW,256,0.0,0.0,75,0.00,,,0.00,16.00,VWS V14.01,2013-03-02 12:32:00,
2013-03-02 07:33:00,27.8,20.9,29.68,WSW,237,0.0,0.0,75,0.00,,,0.00,21.00,VWS V14.01,2013-03-02 12:33:00,
2013-03-02 07:34:00,27.8,20.9,29.68,WSW,253,0.0,0.0,75,0.00,,,0.00,21.00,VWS V14.01,2013-03-02 12:34:00,
2013-03-02 07:35:00,27.8,20.9,29.68,West,275,0.0,0.0,75,0.00,,,0.00,16.00,VWS V14.01,2013-03-02 12:35:00,
2013-03-02 07:36:00,27.8,20.9,29.68,West,261,0.0,0.0,75,0.00,,,0.00,28.00,VWS V14.01,2013-03-02 12:36:00,
2013-03-02 07:37:00,27.8,20.9,29.68,West,261,0.0,0.0,75,0.00,,,0.00,28.00,VWS V14.01,2013-03-02 12:37:00,
2013-03-02 07:38:00,27.8,20.9,29.68,West,261,0.0,0.0,75,0.00,,,0.00,28.00,VWS V14.01,2013-03-02 12:38:00,
2013-03-02 07:39:00,27.8,20.9,29.68,SSW,203,0.0,0.0,75,0.00,,,0.00,28.00,VWS V14.01,2013-03-02 12:39:00,
2013-03-02 07:40:00,27.8,20.9,29.68,SSW,203,0.0,0.0,75,0.00,,,0.00,23.00,VWS V14.01,2013-03-02 12:40:00,
2013-03-02 07:41:00,27.8,20.9,29.68,West,261,0.0,0.0,75,0.00,,,0.00,28.00,VWS V14.01,2013-03-02 12:41:00,
2013-03-02 07:42:00,27.8,20.9,29.68,WSW,254,0.0,0.0,75,0.00,,,0.00,23.00,VWS V14.01,2013-03-02 12:42:00,
2013-03-02 07:43:00,27.8,20.9,29.68,West,265,0.0,0.0,75,0.00,,,0.00,23.00,VWS V14.01,2013-03-02 12:43:00,
2013-03-02 07:44:00,27.8,20.9,29.68,West,271,0.0,0.0,75,0.00,,,0.00,28.00,VWS V14.01,2013-03-02 12:44:00,
2013-03-02 07:45:00,27.8,20.9,29.68,West,274,0.0,0.0,75,0.00,,,0.00,28.00,VWS V14.01,2013-03-02 12:45:00,
2013-03-02 07:46:00,27.9,21.0,29.68,West,275,0.0,0.0,75,0.00,,,0.00,28.00,VWS V14.01,2013-03-02 12:46:00,
2013-03-02 07:47:00,27.8,20.9,29.68,WSW,254,0.0,0.0,75,0.00,,,0.00,23.00,VWS V14.01,2013-03-02 12:47:00,
2013-03-02 07:48:00,27.9,21.0,29.68,West,260,0.0,0.0,75,0.00,,,0.00,30.00,VWS V14.01,2013-03-02 12:48:00,
2013-03-02 07:49:00,27.9,21.0,29.68,SW,236,0.0,0.0,75,0.00,,,0.00,30.00,VWS V14.01,2013-03-02 12:49:00,
2013-03-02 07:50:00,27.9,21.0,29.68,WSW,253,0.0,0.0,75,0.00,,,0.00,30.00,VWS V14.01,2013-03-02 12:50:00,
2013-03-02 07:51:00,27.9,21.0,29.68,WSW,257,0.0,0.0,75,0.00,,,0.00,30.00,VWS V14.01,2013-03-02 12:51:00,
2013-03-02 07:52:00,27.9,21.0,29.68,WSW,246,0.0,0.0,75,0.00,,,0.00,26.00,VWS V14.01,2013-03-02 12:52:00,
2013-03-02 07:53:00,27.9,21.0,29.68,West,260,0.0,0.0,75,0.00,,,0.00,30.00,VWS V14.01,2013-03-02 12:53:00,
2013-03-02 07:54:00,27.9,21.0,29.68,West,274,0.0,0.0,75,0.00,,,0.00,26.00,VWS V14.01,2013-03-02 12:54:00,
2013-03-02 07:55:00,27.9,21.0,29.68,West,278,0.0,0.0,75,0.00,,,0.00,26.00,VWS V14.01,2013-03-02 12:55:00,
2013-03-02 07:56:00,27.9,21.0,29.68,West,278,0.0,0.0,75,0.00,,,0.00,33.00,VWS V14.01,2013-03-02 12:56:00,
2013-03-02 07:57:00,27.9,21.0,29.68,SW,215,0.0,0.0,75,0.00,,,0.00,33.00,VWS V14.01,2013-03-02 12:57:00,
2013-03-02 07:58:00,27.9,21.0,29.68,SSE,165,0.0,0.0,75,0.00,,,0.00,33.00,VWS V14.01,2013-03-02 12:58:00,
2013-03-02 07:59:00,27.9,21.0,29.68,West,274,0.0,0.0,75,0.00,,,0.00,26.00,VWS V14.01,2013-03-02 12:59:00,
2013-03-02 08:00:00,27.9,21.0,29.68,WNW,289,0.0,0.0,75,0.00,,,0.00,39.00,VWS V14.01,2013-03-02 13:00:00,
2013-03-02 08:01:00,27.9,21.0,29.68,WNW,285,0.0,0.0,75,0.00,,,0.00,39.00,VWS V14.01,2013-03-02 13:01:00,
2013-03-02 08:02:00,27.9,21.0,29.68,West,271,0.0,0.0,75,0.00,,,0.00,39.00,VWS V14.01,2013-03-02 13:02:00,
2013-03-02 08:03:00,27.9,21.0,29.68,West,280,0.0,0.0,75,0.00,,,0.00,39.00,VWS V14.01,2013-03-02 13:03:00,
2013-03-02 08:04:00,27.9,21.0,29.68,WSW,244,0.0,0.0,75,0.00,,,0.00,33.00,VWS V14.01,2013-03-02 13:04:00,
2013-03-02 08:05:00,27.9,21.0,29.68,West,277,0.0,0.0,75,0.00,,,0.00,39.00,VWS V14.01,2013-03-02 13:05:00,
2013-03-02 08:06:00,27.9,21.0,29.68,West,277,0.0,0.0,75,0.00,,,0.00,39.00,VWS V14.01,2013-03-02 13:06:00,
2013-03-02 08:07:00,27.9,21.0,29.68,West,277,0.0,0.0,75,0.00,,,0.00,39.00,VWS V14.01,2013-03-02 13:07:00,
2013-03-02 08:08:00,27.9,21.0,29.68,West,277,0.0,0.0,75,0.00,,,0.00,39.00,VWS V14.01,2013-03-02 13:08:00,
2013-03-02 08:09:00,28.1,21.2,29.68,West,277,0.0,0.0,75,0.00,,,0.00,42.00,VWS V14.01,2013-03-02 13:09:00,
2013-03-02 08:10:00,27.9,21.0,29.68,West,277,0.0,0.0,75,0.00,,,0.00,39.00,VWS V14.01,2013-03-02 13:10:00,
2013-03-02 08:11:00,28.1,20.9,29.68,West,277,0.0,0.0,74,0.00,,,0.00,42.00,VWS V14.01,2013-03-02 13:11:00,
2013-03-02 08:12:00,28.1,20.9,29.68,West,277,0.0,0.0,74,0.00,,,0.00,42.00,VWS V14.01,2013-03-02 13:12:00,
2013-03-02 08:13:00,28.1,20.9,29.68,WNW,296,0.0,0.0,74,0.00,,,0.00,44.00,VWS V14.01,2013-03-02 13:13:00,
2013-03-02 08:14:00,27.9,20.4,29.68,West,271,0.0,0.0,73,0.00,,,0.00,44.00,VWS V14.01,2013-03-02 13:14:00,
2013-03-02 08:15:00,28.1,21.2,29.68,NW,311,0.0,0.0,75,0.00,,,0.00,42.00,VWS V14.01,2013-03-02 13:15:00,
2013-03-02 08:16:00,27.9,20.4,29.70,SW,217,0.0,0.0,73,0.00,,,0.00,44.00,VWS V14.01,2013-03-02 13:16:00,
2013-03-02 08:17:00,27.9,20.4,29.70,West,264,0.0,0.0,73,0.00,,,0.00,49.00,VWS V14.01,2013-03-02 13:17:00,
2013-03-02 08:18:00,27.9,20.4,29.70,WNW,288,0.0,0.0,73,0.00,,,0.00,49.00,VWS V14.01,2013-03-02 13:18:00,
2013-03-02 08:19:00,27.9,20.4,29.70,West,272,0.0,0.0,73,0.00,,,0.00,49.00,VWS V14.01,2013-03-02 13:19:00,
2013-03-02 08:20:00,27.9,20.4,29.70,WNW,285,0.0,0.0,73,0.00,,,0.00,44.00,VWS V14.01,2013-03-02 13:20:00,
2013-03-02 08:21:00,27.9,20.4,29.70,West,265,0.0,0.0,73,0.00,,,0.00,67.00,VWS V14.01,2013-03-02 13:21:00,
2013-03-02 08:22:00,27.9,20.4,29.70,WSW,244,0.0,0.0,73,0.00,,,0.00,76.00,VWS V14.01,2013-03-02 13:22:00,
2013-03-02 08:23:00,27.9,20.4,29.70,West,265,0.0,0.0,73,0.00,,,0.00,74.00,VWS V14.01,2013-03-02 13:23:00,
2013-03-02 08:24:00,27.9,20.4,29.70,West,268,0.0,0.0,73,0.00,,,0.00,74.00,VWS V14.01,2013-03-02 13:24:00,
2013-03-02 08:25:00,27.9,20.4,29.70,WSW,258,0.0,0.0,73,0.00,,,0.00,76.00,VWS V14.01,2013-03-02 13:25:00,
2013-03-02 08:26:00,27.9,20.4,29.70,West,265,0.0,0.0,73,0.00,,,0.00,67.00,VWS V14.01,2013-03-02 13:26:00,
2013-03-02 08:27:00,27.9,20.4,29.70,SSW,203,0.0,0.0,73,0.00,,,0.00,84.00,VWS V14.01,2013-03-02 13:27:00,
2013-03-02 08:28:00,27.9,20.4,29.70,West,277,0.0,0.0,73,0.00,,,0.00,95.00,VWS V14.01,2013-03-02 13:28:00,
2013-03-02 08:29:00,27.9,20.4,29.70,West,281,0.0,0.0,73,0.00,,,0.00,104.00,VWS V14.01,2013-03-02 13:29:00,
2013-03-02 08:30:00,27.9,20.4,29.69,West,268,0.0,0.0,73,0.00,,,0.00,113.00,VWS V14.01,2013-03-02 13:30:00,
2013-03-02 08:31:00,27.9,20.4,29.69,WNW,287,0.0,0.0,73,0.00,,,0.00,114.00,VWS V14.01,2013-03-02 13:31:00,
2013-03-02 08:32:00,27.9,20.4,29.70,SSW,203,0.0,0.0,73,0.00,,,0.00,84.00,VWS V14.01,2013-03-02 13:32:00,
2013-03-02 08:33:00,27.9,20.4,29.69,West,271,0.0,0.0,73,0.00,,,0.00,107.00,VWS V14.01,2013-03-02 13:33:00,
2013-03-02 08:34:00,27.9,20.4,29.69,WSW,248,0.0,0.0,73,0.00,,,0.00,104.00,VWS V14.01,2013-03-02 13:34:00,
2013-03-02 08:35:00,28.1,20.6,29.69,West,267,0.0,0.0,73,0.00,,,0.00,104.00,VWS V14.01,2013-03-02 13:35:00,
2013-03-02 08:36:00,28.1,20.6,29.69,WSW,256,0.0,0.0,73,0.00,,,0.00,104.00,VWS V14.01,2013-03-02 13:36:00,
2013-03-02 08:37:00,27.9,20.4,29.69,WSW,251,0.0,0.0,73,0.00,,,0.00,113.00,VWS V14.01,2013-03-02 13:37:00,
2013-03-02 08:38:00,28.1,20.6,29.69,West,260,0.0,0.0,73,0.00,,,0.00,107.00,VWS V14.01,2013-03-02 13:38:00,
2013-03-02 08:39:00,28.1,20.6,29.69,SSW,202,0.0,0.0,73,0.00,,,0.00,114.00,VWS V14.01,2013-03-02 13:39:00,
2013-03-02 08:40:00,28.2,20.7,29.69,WSW,256,0.0,0.0,73,0.00,,,0.00,127.00,VWS V14.01,2013-03-02 13:40:00,
2013-03-02 08:41:00,28.2,20.7,29.69,West,272,0.0,0.0,73,0.00,,,0.00,130.00,VWS V14.01,2013-03-02 13:41:00,
2013-03-02 08:42:00,28.2,20.7,29.69,West,274,0.0,0.0,73,0.00,,,0.00,132.00,VWS V14.01,2013-03-02 13:42:00,
2013-03-02 08:43:00,28.1,20.6,29.69,West,260,0.0,0.0,73,0.00,,,0.00,107.00,VWS V14.01,2013-03-02 13:43:00,
2013-03-02 08:44:00,28.2,20.7,29.69,SW,236,0.0,0.0,73,0.00,,,0.00,134.00,VWS V14.01,2013-03-02 13:44:00,
2013-03-02 08:45:00,28.2,20.4,29.69,WNW,291,0.0,0.0,72,0.00,,,0.00,130.00,VWS V14.01,2013-03-02 13:45:00,
2013-03-02 08:46:00,28.4,20.5,29.69,NW,315,0.0,0.0,72,0.00,,,0.00,123.00,VWS V14.01,2013-03-02 13:46:00,
2013-03-02 08:47:00,28.4,20.5,29.69,West,274,0.0,0.0,72,0.00,,,0.00,118.00,VWS V14.01,2013-03-02 13:47:00,
2013-03-02 08:48:00,28.2,20.7,29.69,WSW,257,0.0,0.0,73,0.00,,,0.00,134.00,VWS V14.01,2013-03-02 13:48:00,
2013-03-02 08:49:00,28.4,20.5,29.69,WNW,299,0.0,0.0,72,0.00,,,0.00,109.00,VWS V14.01,2013-03-02 13:49:00,
2013-03-02 08:50:00,28.4,20.5,29.69,West,274,0.0,0.0,72,0.00,,,0.00,109.00,VWS V14.01,2013-03-02 13:50:00,
2013-03-02 08:51:00,28.4,20.5,29.69,West,274,0.0,0.0,72,0.00,,,0.00,102.00,VWS V14.01,2013-03-02 13:51:00,
2013-03-02 08:52:00,28.4,20.5,29.69,WSW,248,0.0,0.0,72,0.00,,,0.00,99.00,VWS V14.01,2013-03-02 13:52:00,
2013-03-02 08:53:00,28.4,20.5,29.69,SW,233,0.0,0.0,72,0.00,,,0.00,111.00,VWS V14.01,2013-03-02 13:53:00,
2013-03-02 08:54:00,28.5,20.6,29.69,West,272,0.0,0.0,72,0.00,,,0.00,97.00,VWS V14.01,2013-03-02 13:54:00,
2013-03-02 08:55:00,28.5,20.6,29.69,West,270,0.0,0.0,72,0.00,,,0.00,104.00,VWS V14.01,2013-03-02 13:55:00,
2013-03-02 08:56:00,28.5,20.6,29.69,SW,229,0.0,0.0,72,0.00,,,0.00,109.00,VWS V14.01,2013-03-02 13:56:00,
2013-03-02 08:57:00,28.5,20.6,29.69,WSW,257,0.0,0.0,72,0.00,,,0.00,114.00,VWS V14.01,2013-03-02 13:57:00,
2013-03-02 08:58:00,28.5,20.6,29.69,West,271,0.0,0.0,72,0.00,,,0.00,118.00,VWS V14.01,2013-03-02 13:58:00,
2013-03-02 08:59:00,28.5,20.6,29.69,West,272,0.0,0.0,72,0.00,,,0.00,97.00,VWS V14.01,2013-03-02 13:59:00,
2013-03-02 09:00:00,28.5,20.3,29.68,WNW,301,0.0,0.0,71,0.00,,,0.00,130.00,VWS V14.01,2013-03-02 14:00:00,
2013-03-02 09:01:00,28.5,20.3,29.68,WSW,248,0.0,0.0,71,0.00,,,0.00,128.00,VWS V14.01,2013-03-02 14:01:00,
2013-03-02 09:02:00,28.5,20.3,29.68,West,281,0.0,0.0,71,0.00,,,0.00,132.00,VWS V14.01,2013-03-02 14:02:00,
2013-03-02 09:03:00,28.5,20.3,29.68,West,272,0.0,0.0,71,0.00,,,0.00,137.00,VWS V14.01,2013-03-02 14:03:00,
2013-03-02 09:04:00,28.5,20.3,29.68,West,267,0.0,0.0,71,0.00,,,0.00,139.00,VWS V14.01,2013-03-02 14:04:00,
2013-03-02 09:05:00,28.5,20.3,29.68,WNW,301,0.0,0.0,71,0.00,,,0.00,130.00,VWS V14.01,2013-03-02 14:05:00,
2013-03-02 09:06:00,28.5,20.3,29.68,West,260,0.0,0.0,71,0.00,,,0.00,143.00,VWS V14.01,2013-03-02 14:06:00,
2013-03-02 09:07:00,28.5,20.3,29.68,WNW,288,0.0,0.0,71,0.00,,,0.00,139.00,VWS V14.01,2013-03-02 14:07:00,
2013-03-02 09:08:00,28.4,20.2,29.68,SSW,195,0.0,0.0,71,0.00,,,0.00,135.00,VWS V14.01,2013-03-02 14:08:00,
2013-03-02 09:09:00,28.4,20.2,29.68,WSW,251,0.0,0.0,71,0.00,,,0.00,134.00,VWS V14.01,2013-03-02 14:09:00,
2013-03-02 09:10:00,28.5,20.3,29.68,WSW,254,0.0,0.0,71,0.00,,,0.00,148.00,VWS V14.01,2013-03-02 14:10:00,
2013-03-02 09:11:00,28.4,20.2,29.68,West,263,0.0,0.0,71,0.00,,,0.00,128.00,VWS V14.01,2013-03-02 14:11:00,
2013-03-02 09:12:00,28.4,20.2,29.68,West,274,0.0,0.0,71,0.00,,,0.00,132.00,VWS V14.01,2013-03-02 14:12:00,
2013-03-02 09:13:00,28.4,19.9,29.68,West,275,0.0,0.0,70,0.00,,,0.00,137.00,VWS V14.01,2013-03-02 14:13:00,
2013-03-02 09:14:00,28.2,19.7,29.68,West,280,0.0,0.0,70,0.00,,,0.00,144.00,VWS V14.01,2013-03-02 14:14:00,
2013-03-02 09:15:00,28.4,20.2,29.68,West,261,0.0,0.0,71,0.00,,,0.00,132.00,VWS V14.01,2013-03-02 14:15:00,
2013-03-02 09:16:00,28.2,19.7,29.69,West,267,0.0,0.0,70,0.00,,,0.00,162.00,VWS V14.01,2013-03-02 14:16:00,
2013-03-02 09:17:00,28.2,19.7,29.69,WSW,251,0.0,0.0,70,0.00,,,0.00,174.00,VWS V14.01,2013-03-02 14:17:00,
2013-03-02 09:18:00,28.2,20.0,29.69,WSW,256,0.0,0.0,71,0.00,,,0.00,178.00,VWS V14.01,2013-03-02 14:18:00,
2013-03-02 09:19:00,28.2,19.7,29.69,WSW,247,0.0,0.0,70,0.00,,,0.00,179.00,VWS V14.01,2013-03-02 14:19:00,
2013-03-02 09:20:00,28.2,19.7,29.69,SW,234,0.0,0.0,70,0.00,,,0.00,157.00,VWS V14.01,2013-03-02 14:20:00,
2013-03-02 09:21:00,28.2,19.7,29.69,WSW,246,0.0,0.0,70,0.00,,,0.00,164.00,VWS V14.01,2013-03-02 14:21:00,
2013-03-02 09:22:00,28.2,19.7,29.69,West,274,0.0,0.0,70,0.00,,,0.00,162.00,VWS V14.01,2013-03-02 14:22:00,
2013-03-02 09:23:00,28.4,19.9,29.69,WNW,285,0.0,0.0,70,0.00,,,0.00,158.00,VWS V14.01,2013-03-02 14:23:00,
2013-03-02 09:24:00,28.4,19.9,29.69,NW,322,0.0,0.0,70,0.00,,,0.00,151.00,VWS V14.01,2013-03-02 14:24:00,
2013-03-02 09:25:00,28.4,19.9,29.69,West,278,0.0,0.0,70,0.00,,,0.00,157.00,VWS V14.01,2013-03-02 14:25:00,
2013-03-02 09:26:00,28.2,19.7,29.69,WSW,246,0.0,0.0,70,0.00,,,0.00,164.00,VWS V14.01,2013-03-02 14:26:00,
2013-03-02 09:27:00,28.4,19.5,29.69,West,278,0.0,0.0,69,0.00,,,0.00,139.00,VWS V14.01,2013-03-02 14:27:00,
2013-03-02 09:28:00,28.5,19.6,29.69,WSW,257,0.0,0.0,69,0.00,,,0.00,134.00,VWS V14.01,2013-03-02 14:28:00,
2013-03-02 09:29:00,28.5,19.6,29.69,WNW,301,0.0,0.0,69,0.00,,,0.00,130.00,VWS V14.01,2013-03-02 14:29:00,
2013-03-02 09:30:00,28.5,19.6,29.68,West,274,0.0,0.0,69,0.00,,,0.00,130.00,VWS V14.01,2013-03-02 14:30:00,
2013-03-02 09:31:00,28.5,19.6,29.68,WSW,254,0.0,0.0,69,0.00,,,0.00,134.00,VWS V14.01,2013-03-02 14:31:00,
2013-03-02 09:32:00,28.4,19.5,29.69,West,278,0.0,0.0,69,0.00,,,0.00,139.00,VWS V14.01,2013-03-02 14:32:00,
2013-03-02 09:33:00,28.5,19.6,29.68,WNW,282,0.0,0.0,69,0.00,,,0.00,141.00,VWS V14.01,2013-03-02 14:33:00,
2013-03-02 09:34:00,28.4,19.2,29.68,West,271,0.0,0.0,68,0.00,,,0.00,139.00,VWS V14.01,2013-03-02 14:34:00,
2013-03-02 09:36:00,28.4,19.2,29.68,West,271,0.0,0.0,68,0.00,,,0.00,130.00,VWS V14.01,2013-03-02 14:36:00,
2013-03-02 09:37:00,28.5,19.6,29.68,West,274,0.0,0.0,69,0.00,,,0.00,139.00,VWS V14.01,2013-03-02 14:37:00,
2013-03-02 09:38:00,28.4,19.5,29.68,West,268,0.0,0.0,69,0.00,,,0.00,135.00,VWS V14.01,2013-03-02 14:38:00,
2013-03-02 09:39:00,28.4,19.2,29.68,West,264,0.0,0.0,68,0.00,,,0.00,134.00,VWS V14.01,2013-03-02 14:39:00,
2013-03-02 09:40:00,28.4,19.2,29.68,West,263,0.0,0.0,68,0.00,,,0.00,139.00,VWS V14.01,2013-03-02 14:40:00,
2013-03-02 09:41:00,28.4,19.2,29.68,WSW,239,0.0,0.0,68,0.00,,,0.00,139.00,VWS V14.01,2013-03-02 14:41:00,
2013-03-02 09:42:00,28.4,19.2,29.68,West,261,0.0,0.0,68,0.00,,,0.00,143.00,VWS V14.01,2013-03-02 14:42:00,
2013-03-02 09:43:00,28.4,19.5,29.68,West,268,0.0,0.0,69,0.00,,,0.00,135.00,VWS V14.01,2013-03-02 14:43:00,
2013-03-02 09:44:00,28.4,19.2,29.68,WSW,254,0.0,0.0,68,0.00,,,0.00,150.00,VWS V14.01,2013-03-02 14:44:00,
2013-03-02 09:45:00,28.4,19.2,29.69,SW,232,0.0,0.0,68,0.00,,,0.00,150.00,VWS V14.01,2013-03-02 14:45:00,
2013-03-02 09:46:00,28.4,19.2,29.69,WNW,288,0.0,0.0,68,0.00,,,0.00,151.00,VWS V14.01,2013-03-02 14:46:00,
2013-03-02 09:47:00,28.4,19.2,29.69,WSW,243,0.0,0.0,68,0.00,,,0.00,153.00,VWS V14.01,2013-03-02 14:47:00,
2013-03-02 09:48:00,28.4,19.2,29.68,South,182,0.0,0.0,68,0.00,,,0.00,146.00,VWS V14.01,2013-03-02 14:48:00,
2013-03-02 09:49:00,28.4,19.2,29.69,SSW,199,0.0,0.0,68,0.00,,,0.00,162.00,VWS V14.01,2013-03-02 14:49:00,
2013-03-02 09:50:00,28.4,19.2,29.69,WSW,253,0.0,0.0,68,0.00,,,0.00,162.00,VWS V14.01,2013-03-02 14:50:00,
2013-03-02 09:51:00,28.4,19.2,29.69,West,275,0.0,0.0,68,0.00,,,0.00,167.00,VWS V14.01,2013-03-02 14:51:00,
2013-03-02 09:52:00,28.4,19.2,29.69,West,274,0.0,0.0,68,0.00,,,0.00,176.00,VWS V14.01,2013-03-02 14:52:00,
2013-03-02 09:53:00,28.4,19.2,29.69,SW,234,0.0,0.0,68,0.00,,,0.00,155.00,VWS V14.01,2013-03-02 14:53:00,
2013-03-02 09:54:00,28.5,19.3,29.69,WSW,240,0.0,0.0,68,0.00,,,0.00,179.00,VWS V14.01,2013-03-02 14:54:00,
2013-03-02 09:55:00,28.5,19.3,29.69,West,274,0.0,0.0,68,0.00,,,0.00,183.00,VWS V14.01,2013-03-02 14:55:00,
2013-03-02 09:56:00,28.5,19.0,29.69,WNW,301,0.0,0.0,67,0.00,,,0.00,181.00,VWS V14.01,2013-03-02 14:56:00,
2013-03-02 09:57:00,28.5,19.3,29.69,WSW,253,0.0,0.0,68,0.00,,,0.00,181.00,VWS V14.01,2013-03-02 14:57:00,
2013-03-02 09:58:00,28.5,19.3,29.69,WNW,301,0.0,0.0,68,0.00,,,0.00,178.00,VWS V14.01,2013-03-02 14:58:00,
2013-03-02 09:59:00,28.5,19.3,29.69,West,278,0.0,0.0,68,0.00,,,0.00,190.00,VWS V14.01,2013-03-02 14:59:00,
2013-03-02 10:00:00,28.5,19.0,29.68,WSW,257,0.0,0.0,67,0.00,,,0.00,208.00,VWS V14.01,2013-03-02 15:00:00,
2013-03-02 10:01:00,28.5,19.0,29.68,West,271,0.0,0.0,67,0.00,,,0.00,206.00,VWS V14.01,2013-03-02 15:01:00,
2013-03-02 10:02:00,28.5,19.0,29.68,WNW,287,0.0,0.0,67,0.00,,,0.00,208.00,VWS V14.01,2013-03-02 15:02:00,
2013-03-02 10:03:00,28.5,19.3,29.69,WSW,239,0.0,0.0,68,0.00,,,0.00,190.00,VWS V14.01,2013-03-02 15:03:00,
2013-03-02 10:04:00,28.5,19.0,29.68,West,278,0.0,0.0,67,0.00,,,0.00,206.00,VWS V14.01,2013-03-02 15:04:00,
2013-03-02 10:05:00,28.5,19.0,29.68,WNW,301,0.0,0.0,67,0.00,,,0.00,202.00,VWS V14.01,2013-03-02 15:05:00,
2013-03-02 10:06:00,28.7,19.1,29.68,WNW,287,0.0,0.0,67,0.00,,,0.00,199.00,VWS V14.01,2013-03-02 15:06:00,
2013-03-02 10:07:00,28.7,19.1,29.68,WNW,291,0.0,0.0,67,0.00,,,0.00,197.00,VWS V14.01,2013-03-02 15:07:00,
2013-03-02 10:08:00,28.5,19.0,29.68,NW,322,0.0,0.0,67,0.00,,,0.00,206.00,VWS V14.01,2013-03-02 15:08:00,
2013-03-02 10:09:00,28.7,18.8,29.68,NW,320,0.0,0.0,66,0.00,,,0.00,218.00,VWS V14.01,2013-03-02 15:09:00,
2013-03-02 10:10:00,28.8,18.9,29.68,NW,309,0.0,0.0,66,0.00,,,0.00,225.00,VWS V14.01,2013-03-02 15:10:00,
2013-03-02 10:11:00,28.8,18.9,29.68,WSW,258,0.0,0.0,66,0.00,,,0.00,222.00,VWS V14.01,2013-03-02 15:11:00,
2013-03-02 10:12:00,29.0,19.1,29.68,West,261,0.0,0.0,66,0.00,,,0.00,220.00,VWS V14.01,2013-03-02 15:12:00,
2013-03-02 10:13:00,29.0,19.1,29.68,South,181,0.0,0.0,66,0.00,,,0.00,227.00,VWS V14.01,2013-03-02 15:13:00,
2013-03-02 10:14:00,28.7,18.8,29.68,NW,320,0.0,0.0,66,0.00,,,0.00,218.00,VWS V14.01,2013-03-02 15:14:00,
2013-03-02 10:15:00,29.1,19.2,29.68,WSW,257,0.0,0.0,66,0.00,,,0.00,238.00,VWS V14.01,2013-03-02 15:15:00,
2013-03-02 10:16:00,29.1,18.8,29.68,WNW,285,0.0,0.0,65,0.00,,,0.00,234.00,VWS V14.01,2013-03-02 15:16:00,
2013-03-02 10:17:00,29.1,18.8,29.68,West,271,0.0,0.0,65,0.00,,,0.00,232.00,VWS V14.01,2013-03-02 15:17:00,
2013-03-02 10:18:00,29.1,18.8,29.68,WNW,296,0.0,0.0,65,0.00,,,0.00,232.00,VWS V14.01,2013-03-02 15:18:00,
2013-03-02 10:19:00,29.1,19.2,29.68,SE,128,0.0,0.0,66,0.00,,,0.00,229.00,VWS V14.01,2013-03-02 15:19:00,
2013-03-02 10:20:00,29.1,18.8,29.68,WNW,301,0.0,0.0,65,0.00,,,0.00,206.00,VWS V14.01,2013-03-02 15:20:00,
2013-03-02 10:21:00,29.1,18.8,29.68,WSW,244,0.0,0.0,65,0.00,,,0.00,211.00,VWS V14.01,2013-03-02 15:21:00,
2013-03-02 10:22:00,29.0,18.4,29.68,West,270,0.0,0.0,64,0.00,,,0.00,211.00,VWS V14.01,2013-03-02 15:22:00,
2013-03-02 10:23:00,29.0,18.7,29.68,West,275,0.0,0.0,65,0.00,,,0.00,206.00,VWS V14.01,2013-03-02 15:23:00,
2013-03-02 10:24:00,29.0,18.7,29.68,West,268,0.0,0.0,65,0.00,,,0.00,202.00,VWS V14.01,2013-03-02 15:24:00,
2013-03-02 10:25:00,29.1,18.8,29.68,WNW,301,0.0,0.0,65,0.00,,,0.00,206.00,VWS V14.01,2013-03-02 15:25:00,
2013-03-02 10:26:00,28.8,18.5,29.68,SW,233,0.0,0.0,65,0.00,,,0.00,211.00,VWS V14.01,2013-03-02 15:26:00,
2013-03-02 10:27:00,28.8,18.5,29.68,WNW,287,0.0,0.0,65,0.00,,,0.00,211.00,VWS V14.01,2013-03-02 15:27:00,
2013-03-02 10:28:00,28.8,18.5,29.68,WNW,284,0.0,0.0,65,0.00,,,0.00,215.00,VWS V14.01,2013-03-02 15:28:00,
2013-03-02 10:29:00,29.0,18.7,29.68,WNW,298,0.0,0.0,65,0.00,,,0.00,222.00,VWS V14.01,2013-03-02 15:29:00,
2013-03-02 10:30:00,29.0,18.7,29.68,West,263,0.0,0.0,65,0.00,,,0.00,211.00,VWS V14.01,2013-03-02 15:30:00,
2013-03-02 10:31:00,29.0,18.7,29.68,West,264,0.0,0.0,65,0.00,,,0.00,222.00,VWS V14.01,2013-03-02 15:31:00,
2013-03-02 10:32:00,29.0,18.7,29.68,West,277,0.0,0.0,65,0.00,,,0.00,220.00,VWS V14.01,2013-03-02 15:32:00,
2013-03-02 10:33:00,29.0,18.4,29.68,WNW,288,0.0,0.0,64,0.00,,,0.00,225.00,VWS V14.01,2013-03-02 15:33:00,
2013-03-02 10:34:00,29.0,18.4,29.68,WNW,294,0.0,0.0,64,0.00,,,0.00,234.00,VWS V14.01,2013-03-02 15:34:00,
2013-03-02 10:35:00,29.0,18.7,29.68,NW,309,0.0,0.0,65,0.00,,,0.00,222.00,VWS V14.01,2013-03-02 15:35:00,
2013-03-02 10:36:00,29.0,18.7,29.68,WSW,256,0.0,0.0,65,0.00,,,0.00,236.00,VWS V14.01,2013-03-02 15:36:00,
2013-03-02 10:37:00,29.0,18.7,29.68,West,263,0.0,0.0,65,0.00,,,0.00,229.00,VWS V14.01,2013-03-02 15:37:00,
2013-03-02 10:38:00,29.0,18.7,29.68,West,280,0.0,0.0,65,0.00,,,0.00,225.00,VWS V14.01,2013-03-02 15:38:00,
2013-03-02 10:39:00,29.0,18.4,29.68,WNW,296,0.0,0.0,64,0.00,,,0.00,222.00,VWS V14.01,2013-03-02 15:39:00,
2013-03-02 10:40:00,28.8,18.2,29.68,West,270,0.0,0.0,64,0.00,,,0.00,218.00,VWS V14.01,2013-03-02 15:40:00,
2013-03-02 10:41:00,29.0,18.7,29.68,WSW,256,0.0,0.0,65,0.00,,,0.00,236.00,VWS V14.01,2013-03-02 15:41:00,
2013-03-02 10:42:00,28.8,18.2,29.68,West,274,0.0,0.0,64,0.00,,,0.00,213.00,VWS V14.01,2013-03-02 15:42:00,
2013-03-02 10:43:00,28.8,18.2,29.68,West,278,0.0,0.0,64,0.00,,,0.00,216.00,VWS V14.01,2013-03-02 15:43:00,
2013-03-02 10:44:00,28.8,18.5,29.68,SW,219,0.0,0.0,65,0.00,,,0.00,223.00,VWS V14.01,2013-03-02 15:44:00,
2013-03-02 10:45:00,28.8,18.5,29.69,WSW,253,0.0,0.0,65,0.00,,,0.00,225.00,VWS V14.01,2013-03-02 15:45:00,
2013-03-02 10:46:00,28.8,18.2,29.68,SW,236,0.0,0.0,64,0.00,,,0.00,215.00,VWS V14.01,2013-03-02 15:46:00,
2013-03-02 10:47:00,29.0,18.7,29.69,WSW,257,0.0,0.0,65,0.00,,,0.00,215.00,VWS V14.01,2013-03-02 15:47:00,
2013-03-02 10:48:00,29.0,18.7,29.69,ESE,121,0.0,0.0,65,0.00,,,0.00,216.00,VWS V14.01,2013-03-02 15:48:00,
2013-03-02 10:49:00,29.1,18.8,29.69,ESE,121,0.0,0.0,65,0.00,,,0.00,218.00,VWS V14.01,2013-03-02 15:49:00,
2013-03-02 10:50:00,29.3,19.4,29.69,South,174,0.0,0.0,66,0.00,,,0.00,223.00,VWS V14.01,2013-03-02 15:50:00,
2013-03-02 10:51:00,28.8,18.5,29.69,WSW,256,0.0,0.0,65,0.00,,,0.00,220.00,VWS V14.01,2013-03-02 15:51:00,
2013-03-02 10:52:00,29.4,19.1,29.69,WSW,256,0.0,0.0,65,0.00,,,0.00,230.00,VWS V14.01,2013-03-02 15:52:00,
2013-03-02 10:53:00,29.4,19.1,29.69,WNW,291,0.0,0.0,65,0.00,,,0.00,229.00,VWS V14.01,2013-03-02 15:53:00,
2013-03-02 10:54:00,29.5,19.2,29.69,WNW,291,0.0,0.0,65,0.00,,,0.00,232.00,VWS V14.01,2013-03-02 15:54:00,
2013-03-02 10:55:00,29.5,19.2,29.69,WSW,257,0.0,0.0,65,0.00,,,0.00,215.00,VWS V14.01,2013-03-02 15:55:00,
2013-03-02 10:56:00,29.5,19.2,29.69,West,278,0.0,0.0,65,0.00,,,0.00,223.00,VWS V14.01,2013-03-02 15:56:00,
2013-03-02 10:57:00,29.4,19.1,29.69,WSW,256,0.0,0.0,65,0.00,,,0.00,230.00,VWS V14.01,2013-03-02 15:57:00,
2013-03-02 10:58:00,29.5,18.8,29.69,West,264,0.0,0.0,64,0.00,,,0.00,267.00,VWS V14.01,2013-03-02 15:58:00,
2013-03-02 10:59:00,29.5,18.8,29.69,West,278,0.0,0.0,64,0.00,,,0.00,276.00,VWS V14.01,2013-03-02 15:59:00,
2013-03-02 11:00:00,29.5,18.5,29.68,WSW,251,0.0,0.0,63,0.00,,,0.00,294.00,VWS V14.01,2013-03-02 16:00:00,
2013-03-02 11:01:00,29.5,18.8,29.68,West,275,0.0,0.0,64,0.00,,,0.00,278.00,VWS V14.01,2013-03-02 16:01:00,
2013-03-02 11:02:00,29.5,18.5,29.68,SW,215,0.0,0.0,63,0.00,,,0.00,266.00,VWS V14.01,2013-03-02 16:02:00,
2013-03-02 11:03:00,29.5,18.8,29.69,West,264,0.0,0.0,64,0.00,,,0.00,267.00,VWS V14.01,2013-03-02 16:03:00,
2013-03-02 11:04:00,29.5,18.5,29.68,WNW,282,0.0,0.0,63,0.00,,,0.00,274.00,VWS V14.01,2013-03-02 16:04:00,
2013-03-02 11:05:00,29.4,18.4,29.68,WSW,237,0.0,0.0,63,0.00,,,0.00,289.00,VWS V14.01,2013-03-02 16:05:00,
2013-03-02 11:06:00,29.5,18.5,29.68,SW,215,0.0,0.0,63,0.00,,,0.00,285.00,VWS V14.01,2013-03-02 16:06:00,
2013-03-02 11:07:00,29.5,18.8,29.68,SW,215,0.0,0.0,64,0.00,,,0.00,278.00,VWS V14.01,2013-03-02 16:07:00,
2013-03-02 11:08:00,29.5,18.8,29.68,WNW,295,0.0,0.0,64,0.00,,,0.00,266.00,VWS V14.01,2013-03-02 16:08:00,
2013-03-02 11:09:00,29.7,18.7,29.68,WSW,237,0.0,0.0,63,0.00,,,0.00,280.00,VWS V14.01,2013-03-02 16:09:00,
2013-03-02 11:10:00,29.7,18.7,29.68,WSW,237,0.0,0.0,63,0.00,,,0.00,294.00,VWS V14.01,2013-03-02 16:10:00,
2013-03-02 11:11:00,29.7,18.7,29.68,WNW,288,0.0,0.0,63,0.00,,,0.00,262.00,VWS V14.01,2013-03-02 16:11:00,
2013-03-02 11:12:00,29.7,18.3,29.68,WNW,287,0.0,0.0,62,0.00,,,0.00,260.00,VWS V14.01,2013-03-02 16:12:00,
2013-03-02 11:13:00,29.8,18.8,29.68,West,261,0.0,0.0,63,0.00,,,0.00,285.00,VWS V14.01,2013-03-02 16:13:00,
2013-03-02 11:14:00,29.7,18.7,29.68,WSW,237,0.0,0.0,63,0.00,,,0.00,280.00,VWS V14.01,2013-03-02 16:14:00,
2013-03-02 11:15:00,29.8,18.8,29.68,WNW,284,0.0,0.0,63,0.00,,,0.00,292.00,VWS V14.01,2013-03-02 16:15:00,
2013-03-02 11:16:00,29.8,18.4,29.68,NW,318,0.0,0.0,62,0.00,,,0.00,310.00,VWS V14.01,2013-03-02 16:16:00,
2013-03-02 11:17:00,29.7,18.3,29.68,West,261,0.0,0.0,62,0.00,,,0.00,315.00,VWS V14.01,2013-03-02 16:17:00,
2013-03-02 11:18:00,29.8,18.4,29.68,WNW,291,0.0,0.0,62,0.00,,,0.00,303.00,VWS V14.01,2013-03-02 16:18:00,
2013-03-02 11:19:00,29.8,18.4,29.68,WSW,250,0.0,0.0,62,0.00,,,0.00,296.00,VWS V14.01,2013-03-02 16:19:00,
2013-03-02 11:20:00,29.8,18.8,29.68,WNW,284,0.0,0.0,63,0.00,,,0.00,292.00,VWS V14.01,2013-03-02 16:20:00,
2013-03-02 11:21:00,29.8,18.4,29.68,SW,223,0.0,0.0,62,0.00,,,0.00,301.00,VWS V14.01,2013-03-02 16:21:00,
2013-03-02 11:22:00,29.8,18.8,29.68,SSE,162,0.0,0.0,63,0.00,,,0.00,274.00,VWS V14.01,2013-03-02 16:22:00,
2013-03-02 11:23:00,29.8,18.8,29.68,West,265,0.0,0.0,63,0.00,,,0.00,259.00,VWS V14.01,2013-03-02 16:23:00,
2013-03-02 11:24:00,30.0,19.0,29.68,WNW,289,0.0,0.0,63,0.00,,,0.00,262.00,VWS V14.01,2013-03-02 16:24:00,
2013-03-02 11:25:00,30.0,19.0,29.68,SW,216,0.0,0.0,63,0.00,,,0.00,273.00,VWS V14.01,2013-03-02 16:25:00,
2013-03-02 11:26:00,29.8,18.4,29.68,SW,223,0.0,0.0,62,0.00,,,0.00,301.00,VWS V14.01,2013-03-02 16:26:00,
2013-03-02 11:27:00,30.0,18.6,29.68,SW,233,0.0,0.0,62,0.00,,,0.00,280.00,VWS V14.01,2013-03-02 16:27:00,
2013-03-02 11:28:00,30.0,18.6,29.68,West,278,0.0,0.0,62,0.00,,,0.00,273.00,VWS V14.01,2013-03-02 16:28:00,
2013-03-02 11:29:00,29.8,18.8,29.68,WSW,243,0.0,0.0,63,0.00,,,0.00,239.00,VWS V14.01,2013-03-02 16:29:00,
2013-03-02 11:30:00,29.8,18.8,29.68,WNW,295,0.0,0.0,63,0.00,,,0.00,232.00,VWS V14.01,2013-03-02 16:30:00,
2013-03-02 11:31:00,29.8,18.8,29.68,West,263,0.0,0.0,63,0.00,,,0.00,223.00,VWS V14.01,2013-03-02 16:31:00,
2013-03-02 11:32:00,30.0,18.6,29.68,SW,233,0.0,0.0,62,0.00,,,0.00,280.00,VWS V14.01,2013-03-02 16:32:00,
2013-03-02 11:33:00,29.8,19.1,29.68,West,274,0.0,0.0,64,0.00,,,0.00,209.00,VWS V14.01,2013-03-02 16:33:00,
2013-03-02 11:34:00,29.8,19.1,29.68,West,260,0.0,0.0,64,0.00,,,0.00,208.00,VWS V14.01,2013-03-02 16:34:00,
2013-03-02 11:35:00,29.8,19.1,29.68,SW,229,0.0,0.0,64,0.00,,,0.00,201.00,VWS V14.01,2013-03-02 16:35:00,
2013-03-02 11:36:00,29.8,19.1,29.68,WSW,248,0.0,0.0,64,0.00,,,0.00,195.00,VWS V14.01,2013-03-02 16:36:00,
2013-03-02 11:37:00,29.8,19.1,29.68,ESE,116,0.0,0.0,64,0.00,,,0.00,215.00,VWS V14.01,2013-03-02 16:37:00,
2013-03-02 11:38:00,29.8,19.1,29.68,West,268,0.0,0.0,64,0.00,,,0.00,201.00,VWS V14.01,2013-03-02 16:38:00,
2013-03-02 11:39:00,29.8,19.1,29.68,West,278,0.0,0.0,64,0.00,,,0.00,223.00,VWS V14.01,2013-03-02 16:39:00,
2013-03-02 11:40:00,29.7,19.0,29.68,West,275,0.0,0.0,64,0.00,,,0.00,222.00,VWS V14.01,2013-03-02 16:40:00,
2013-03-02 11:41:00,29.7,19.0,29.68,West,271,0.0,0.0,64,0.00,,,0.00,222.00,VWS V14.01,2013-03-02 16:41:00,
2013-03-02 11:42:00,29.7,19.0,29.68,WNW,289,0.0,0.0,64,0.00,,,0.00,223.00,VWS V14.01,2013-03-02 16:42:00,
2013-03-02 11:43:00,29.8,19.1,29.68,West,268,0.0,0.0,64,0.00,,,0.00,201.00,VWS V14.01,2013-03-02 16:43:00,
2013-03-02 11:44:00,29.7,19.0,29.68,West,280,0.0,0.0,64,0.00,,,0.00,216.00,VWS V14.01,2013-03-02 16:44:00,
2013-03-02 11:45:00,29.5,18.8,29.68,WSW,256,0.0,0.0,64,0.00,,,0.00,216.00,VWS V14.01,2013-03-02 16:45:00,
2013-03-02 11:46:00,29.4,18.7,29.68,West,272,0.0,0.0,64,0.00,,,0.00,222.00,VWS V14.01,2013-03-02 16:46:00,
2013-03-02 11:47:00,29.4,18.7,29.68,WSW,244,0.0,0.0,64,0.00,,,0.00,225.00,VWS V14.01,2013-03-02 16:47:00,
2013-03-02 11:48:00,29.4,19.1,29.68,West,261,0.0,0.0,65,0.00,,,0.00,225.00,VWS V14.01,2013-03-02 16:48:00,
2013-03-02 11:49:00,29.7,19.0,29.68,West,280,0.0,0.0,64,0.00,,,0.00,216.00,VWS V14.01,2013-03-02 16:49:00,
2013-03-02 11:50:00,29.4,19.1,29.68,SW,217,0.0,0.0,65,0.00,,,0.00,229.00,VWS V14.01,2013-03-02 16:50:00,
2013-03-02 11:51:00,29.4,19.1,29.68,West,261,0.0,0.0,65,0.00,,,0.00,238.00,VWS V14.01,2013-03-02 16:51:00,
2013-03-02 11:52:00,29.5,19.2,29.68,WSW,258,0.0,0.0,65,0.00,,,0.00,245.00,VWS V14.01,2013-03-02 16:52:00,
2013-03-02 11:53:00,29.5,19.2,29.68,West,278,0.0,0.0,65,0.00,,,0.00,245.00,VWS V14.01,2013-03-02 16:53:00,
2013-03-02 11:54:00,29.4,19.1,29.68,West,268,0.0,0.0,65,0.00,,,0.00,222.00,VWS V14.01,2013-03-02 16:54:00,
2013-03-02 11:55:00,29.4,19.1,29.68,West,268,0.0,0.0,65,0.00,,,0.00,241.00,VWS V14.01,2013-03-02 16:55:00,
2013-03-02 11:56:00,29.4,18.7,29.68,WNW,295,0.0,0.0,64,0.00,,,0.00,245.00,VWS V14.01,2013-03-02 16:56:00,
2013-03-02 11:57:00,29.4,18.7,29.68,South,185,0.0,0.0,64,0.00,,,0.00,246.00,VWS V14.01,2013-03-02 16:57:00,
2013-03-02 11:58:00,29.5,19.2,29.68,West,274,0.0,0.0,65,0.00,,,0.00,245.00,VWS V14.01,2013-03-02 16:58:00,
2013-03-02 11:59:00,29.5,19.2,29.68,SSW,193,0.0,0.0,65,0.00,,,0.00,241.00,VWS V14.01,2013-03-02 16:59:00,
2013-03-02 12:00:00,29.4,19.1,29.68,West,268,0.0,0.0,65,0.00,,,0.00,241.00,VWS V14.01,2013-03-02 17:00:00,
2013-03-02 12:01:00,29.7,19.0,29.68,NW,305,0.0,0.0,64,0.00,,,0.00,239.00,VWS V14.01,2013-03-02 17:01:00,
2013-03-02 12:02:00,29.8,19.1,29.68,West,278,0.0,0.0,64,0.00,,,0.00,238.00,VWS V14.01,2013-03-02 17:02:00,
2013-03-02 12:03:00,29.7,19.0,29.68,WSW,250,0.0,0.0,64,0.00,,,0.00,238.00,VWS V14.01,2013-03-02 17:03:00,
2013-03-02 12:04:00,29.7,18.7,29.68,WNW,289,0.0,0.0,63,0.00,,,0.00,238.00,VWS V14.01,2013-03-02 17:04:00,
2013-03-02 12:05:00,29.7,19.0,29.68,WSW,257,0.0,0.0,64,0.00,,,0.00,239.00,VWS V14.01,2013-03-02 17:05:00,
2013-03-02 12:06:00,29.7,19.0,29.68,NW,305,0.0,0.0,64,0.00,,,0.00,239.00,VWS V14.01,2013-03-02 17:06:00,
2013-03-02 12:07:00,29.8,19.1,29.68,West,281,0.0,0.0,64,0.00,,,0.00,236.00,VWS V14.01,2013-03-02 17:07:00,
2013-03-02 12:08:00,29.8,19.1,29.68,West,268,0.0,0.0,64,0.00,,,0.00,234.00,VWS V14.01,2013-03-02 17:08:00,
2013-03-02 12:09:00,29.8,18.8,29.68,West,270,0.0,0.0,63,0.00,,,0.00,239.00,VWS V14.01,2013-03-02 17:09:00,
2013-03-02 12:10:00,29.8,19.1,29.68,WSW,256,0.0,0.0,64,0.00,,,0.00,232.00,VWS V14.01,2013-03-02 17:10:00,
2013-03-02 12:11:00,29.7,19.0,29.68,WNW,282,0.0,0.0,64,0.00,,,0.00,225.00,VWS V14.01,2013-03-02 17:11:00,
2013-03-02 12:12:00,29.8,19.1,29.68,West,281,0.0,0.0,64,0.00,,,0.00,236.00,VWS V14.01,2013-03-02 17:12:00,
2013-03-02 12:13:00,29.7,19.0,29.68,West,275,0.0,0.0,64,0.00,,,0.00,234.00,VWS V14.01,2013-03-02 17:13:00,
2013-03-02 12:14:00,29.7,19.0,29.68,NNW,340,0.0,0.0,64,0.00,,,0.00,239.00,VWS V14.01,2013-03-02 17:14:00,
2013-03-02 12:15:00,29.8,19.1,29.68,West,275,0.0,0.0,64,0.00,,,0.00,245.00,VWS V14.01,2013-03-02 17:15:00,
2013-03-02 12:16:00,29.8,19.1,29.68,West,264,0.0,0.0,64,0.00,,,0.00,232.00,VWS V14.01,2013-03-02 17:16:00,
2013-03-02 12:17:00,29.7,19.0,29.68,WNW,287,0.0,0.0,64,0.00,,,0.00,229.00,VWS V14.01,2013-03-02 17:17:00,
2013-03-02 12:18:00,29.7,18.7,29.68,SW,220,0.0,0.0,63,0.00,,,0.00,225.00,VWS V14.01,2013-03-02 17:18:00,
2013-03-02 12:19:00,29.7,18.7,29.68,West,271,0.0,0.0,63,0.00,,,0.00,236.00,VWS V14.01,2013-03-02 17:19:00,
2013-03-02 12:20:00,29.5,18.5,29.68,SW,230,0.0,0.0,63,0.00,,,0.00,246.00,VWS V14.01,2013-03-02 17:20:00,
2013-03-02 12:21:00,29.5,18.8,29.68,SW,220,0.0,0.0,64,0.00,,,0.00,248.00,VWS V14.01,2013-03-02 17:21:00,
2013-03-02 12:22:00,29.7,19.0,29.68,West,270,0.0,0.0,64,0.00,,,0.00,227.00,VWS V14.01,2013-03-02 17:22:00,
2013-03-02 12:23:00,29.7,19.0,29.68,WSW,247,0.0,0.0,64,0.00,,,0.00,246.00,VWS V14.01,2013-03-02 17:23:00,
2013-03-02 12:24:00,29.7,19.0,29.68,SW,236,0.0,0.0,64,0.00,,,0.00,238.00,VWS V14.01,2013-03-02 17:24:00,
2013-03-02 12:25:00,29.7,18.7,29.68,West,263,0.0,0.0,63,0.00,,,0.00,234.00,VWS V14.01,2013-03-02 17:25:00,
2013-03-02 12:26:00,29.5,18.5,29.68,West,267,0.0,0.0,63,0.00,,,0.00,248.00,VWS V14.01,2013-03-02 17:26:00,
2013-03-02 12:27:00,29.5,18.8,29.68,WSW,240,0.0,0.0,64,0.00,,,0.00,248.00,VWS V14.01,2013-03-02 17:27:00,
2013-03-02 12:28:00,29.4,18.4,29.68,WSW,240,0.0,0.0,63,0.00,,,0.00,234.00,VWS V14.01,2013-03-02 17:28:00,
2013-03-02 12:29:00,29.4,18.7,29.68,WNW,285,0.0,0.0,64,0.00,,,0.00,232.00,VWS V14.01,2013-03-02 17:29:00,
2013-03-02 12:30:00,29.5,18.8,29.68,South,186,0.0,0.0,64,0.00,,,0.00,229.00,VWS V14.01,2013-03-02 17:30:00,
2013-03-02 12:31:00,29.5,18.8,29.68,WNW,294,0.0,0.0,64,0.00,,,0.00,232.00,VWS V14.01,2013-03-02 17:31:00,
2013-03-02 12:32:00,29.5,18.5,29.68,WSW,258,0.0,0.0,63,0.00,,,0.00,243.00,VWS V14.01,2013-03-02 17:32:00,
2013-03-02 12:33:00,29.5,18.8,29.68,SW,219,0.0,0.0,64,0.00,,,0.00,239.00,VWS V14.01,2013-03-02 17:33:00,
2013-03-02 12:34:00,29.5,18.8,29.68,West,275,0.0,0.0,64,0.00,,,0.00,243.00,VWS V14.01,2013-03-02 17:34:00,
2013-03-02 12:35:00,29.5,18.8,29.68,WSW,256,0.0,0.0,64,0.00,,,0.00,241.00,VWS V14.01,2013-03-02 17:35:00,
2013-03-02 12:36:00,29.5,18.8,29.68,West,271,0.0,0.0,64,0.00,,,0.00,236.00,VWS V14.01,2013-03-02 17:36:00,
2013-03-02 12:37:00,29.5,18.8,29.68,SSE,155,0.0,0.0,64,0.00,,,0.00,236.00,VWS V14.01,2013-03-02 17:37:00,
2013-03-02 12:38:00,29.5,18.8,29.68,West,272,0.0,0.0,64,0.00,,,0.00,239.00,VWS V14.01,2013-03-02 17:38:00,
2013-03-02 12:39:00,29.4,18.7,29.68,WSW,256,0.0,0.0,64,0.00,,,0.00,229.00,VWS V14.01,2013-03-02 17:39:00,
2013-03-02 12:40:00,29.4,18.7,29.68,West,264,0.0,0.0,64,0.00,,,0.00,223.00,VWS V14.01,2013-03-02 17:40:00,
2013-03-02 12:41:00,29.3,18.6,29.68,WSW,250,0.0,0.0,64,0.00,,,0.00,229.00,VWS V14.01,2013-03-02 17:41:00,
2013-03-02 12:42:00,29.5,18.8,29.68,WSW,256,0.0,0.0,64,0.00,,,0.00,238.00,VWS V14.01,2013-03-02 17:42:00,
2013-03-02 12:43:00,29.1,18.5,29.68,West,261,0.0,0.0,64,0.00,,,0.00,220.00,VWS V14.01,2013-03-02 17:43:00,
2013-03-02 12:44:00,29.0,18.4,29.68,WSW,253,0.0,0.0,64,0.00,,,0.00,211.00,VWS V14.01,2013-03-02 17:44:00,
2013-03-02 12:45:00,29.0,18.4,29.68,NW,313,0.0,0.0,64,0.00,,,0.00,206.00,VWS V14.01,2013-03-02 17:45:00,
2013-03-02 12:46:00,28.8,18.2,29.68,WNW,285,0.0,0.0,64,0.00,,,0.00,213.00,VWS V14.01,2013-03-02 17:46:00,
2013-03-02 12:47:00,29.1,18.5,29.68,West,265,0.0,0.0,64,0.00,,,0.00,232.00,VWS V14.01,2013-03-02 17:47:00,
2013-03-02 12:48:00,28.7,18.1,29.68,WSW,246,0.0,0.0,64,0.00,,,0.00,218.00,VWS V14.01,2013-03-02 17:48:00,
2013-03-02 12:49:00,28.7,18.4,29.68,West,267,0.0,0.0,65,0.00,,,0.00,218.00,VWS V14.01,2013-03-02 17:49:00,
2013-03-02 12:50:00,28.7,18.4,29.68,West,277,0.0,0.0,65,0.00,,,0.00,206.00,VWS V14.01,2013-03-02 17:50:00,
2013-03-02 12:51:00,28.7,18.4,29.68,West,265,0.0,0.0,65,0.00,,,0.00,199.00,VWS V14.01,2013-03-02 17:51:00,
2013-03-02 12:52:00,28.7,18.4,29.68,WNW,282,0.0,0.0,65,0.00,,,0.00,199.00,VWS V14.01,2013-03-02 17:52:00,
2013-03-02 12:53:00,28.7,18.1,29.68,WSW,246,0.0,0.0,64,0.00,,,0.00,218.00,VWS V14.01,2013-03-02 17:53:00,
2013-03-02 12:54:00,28.5,18.2,29.68,West,261,0.0,0.0,65,0.00,,,0.00,195.00,VWS V14.01,2013-03-02 17:54:00,
2013-03-02 12:55:00,28.7,18.4,29.68,SW,229,0.0,0.0,65,0.00,,,0.00,194.00,VWS V14.01,2013-03-02 17:55:00,
2013-03-02 12:56:00,28.7,18.4,29.68,WNW,302,0.0,0.0,65,0.00,,,0.00,197.00,VWS V14.01,2013-03-02 17:56:00,
2013-03-02 12:57:00,28.7,18.4,29.68,WNW,289,0.0,0.0,65,0.00,,,0.00,199.00,VWS V14.01,2013-03-02 17:57:00,
2013-03-02 12:58:00,28.7,18.4,29.68,West,281,0.0,0.0,65,0.00,,,0.00,197.00,VWS V14.01,2013-03-02 17:58:00,
2013-03-02 12:59:00,28.5,18.2,29.68,West,261,0.0,0.0,65,0.00,,,0.00,195.00,VWS V14.01,2013-03-02 17:59:00,
2013-03-02 13:00:00,28.8,18.5,29.67,WSW,243,0.0,0.0,65,0.00,,,0.00,197.00,VWS V14.01,2013-03-02 18:00:00,
2013-03-02 13:01:00,28.8,18.5,29.67,WNW,282,0.0,0.0,65,0.00,,,0.00,202.00,VWS V14.01,2013-03-02 18:01:00,
2013-03-02 13:02:00,28.8,18.5,29.67,WSW,258,0.0,0.0,65,0.00,,,0.00,208.00,VWS V14.01,2013-03-02 18:02:00,
2013-03-02 13:03:00,28.8,18.5,29.67,West,271,0.0,0.0,65,0.00,,,0.00,209.00,VWS V14.01,2013-03-02 18:03:00,
2013-03-02 13:04:00,28.8,18.5,29.67,West,275,0.0,0.0,65,0.00,,,0.00,195.00,VWS V14.01,2013-03-02 18:04:00,
2013-03-02 13:05:00,28.8,18.5,29.67,West,267,0.0,0.0,65,0.00,,,0.00,197.00,VWS V14.01,2013-03-02 18:05:00,
2013-03-02 13:06:00,28.8,18.5,29.67,West,274,0.0,0.0,65,0.00,,,0.00,197.00,VWS V14.01,2013-03-02 18:06:00,
2013-03-02 13:07:00,28.8,18.5,29.67,WSW,254,0.0,0.0,65,0.00,,,0.00,202.00,VWS V14.01,2013-03-02 18:07:00,
2013-03-02 13:08:00,29.0,18.7,29.67,WNW,291,0.0,0.0,65,0.00,,,0.00,208.00,VWS V14.01,2013-03-02 18:08:00,
2013-03-02 13:09:00,29.0,18.7,29.67,West,261,0.0,0.0,65,0.00,,,0.00,213.00,VWS V14.01,2013-03-02 18:09:00,
2013-03-02 13:10:00,28.8,18.5,29.67,West,267,0.0,0.0,65,0.00,,,0.00,197.00,VWS V14.01,2013-03-02 18:10:00,
2013-03-02 13:11:00,29.0,18.4,29.67,West,277,0.0,0.0,64,0.00,,,0.00,223.00,VWS V14.01,2013-03-02 18:11:00,
2013-03-02 13:12:00,29.1,18.8,29.67,WSW,241,0.0,0.0,65,0.00,,,0.00,223.00,VWS V14.01,2013-03-02 18:12:00,
2013-03-02 13:13:00,29.1,18.5,29.67,WSW,248,0.0,0.0,64,0.00,,,0.00,222.00,VWS V14.01,2013-03-02 18:13:00,
2013-03-02 13:14:00,29.0,18.0,29.67,West,265,0.0,0.0,63,0.00,,,0.00,218.00,VWS V14.01,2013-03-02 18:14:00,
2013-03-02 13:15:00,29.0,18.7,29.67,West,280,0.0,0.0,65,0.00,,,0.00,218.00,VWS V14.01,2013-03-02 18:15:00,
2013-03-02 13:16:00,28.8,18.2,29.67,WSW,254,0.0,0.0,64,0.00,,,0.00,213.00,VWS V14.01,2013-03-02 18:16:00,
2013-03-02 13:17:00,28.8,18.2,29.67,SSW,202,0.0,0.0,64,0.00,,,0.00,211.00,VWS V14.01,2013-03-02 18:17:00,
2013-03-02 13:18:00,28.8,18.2,29.67,West,270,0.0,0.0,64,0.00,,,0.00,222.00,VWS V14.01,2013-03-02 18:18:00,
2013-03-02 13:19:00,28.8,18.2,29.67,WNW,289,0.0,0.0,64,0.00,,,0.00,229.00,VWS V14.01,2013-03-02 18:19:00,
2013-03-02 13:20:00,28.8,18.2,29.67,South,171,0.0,0.0,64,0.00,,,0.00,220.00,VWS V14.01,2013-03-02 18:20:00,
2013-03-02 13:21:00,28.8,18.2,29.67,WSW,254,0.0,0.0,64,0.00,,,0.00,213.00,VWS V14.01,2013-03-02 18:21:00,
2013-03-02 13:22:00,29.0,18.7,29.67,West,270,0.0,0.0,65,0.00,,,0.00,201.00,VWS V14.01,2013-03-02 18:22:00,
2013-03-02 13:23:00,29.0,18.7,29.67,West,260,0.0,0.0,65,0.00,,,0.00,199.00,VWS V14.01,2013-03-02 18:23:00,
2013-03-02 13:24:00,29.0,18.7,29.67,WNW,284,0.0,0.0,65,0.00,,,0.00,199.00,VWS V14.01,2013-03-02 18:24:00,
2013-03-02 13:25:00,29.1,18.5,29.67,WSW,256,0.0,0.0,64,0.00,,,0.00,208.00,VWS V14.01,2013-03-02 18:25:00,
2013-03-02 13:26:00,29.1,18.8,29.67,SSE,150,0.0,0.0,65,0.00,,,0.00,211.00,VWS V14.01,2013-03-02 18:26:00,
2013-03-02 13:27:00,29.0,18.7,29.67,West,270,0.0,0.0,65,0.00,,,0.00,201.00,VWS V14.01,2013-03-02 18:27:00,
2013-03-02 13:28:00,29.1,18.5,29.67,WNW,287,0.0,0.0,64,0.00,,,0.00,206.00,VWS V14.01,2013-03-02 18:28:00,
2013-03-02 13:29:00,29.1,18.5,29.67,SW,220,0.0,0.0,64,0.00,,,0.00,204.00,VWS V14.01,2013-03-02 18:29:00,
2013-03-02 13:30:00,29.0,18.4,29.67,WNW,287,0.0,0.0,64,0.00,,,0.00,204.00,VWS V14.01,2013-03-02 18:30:00,
2013-03-02 13:31:00,29.0,18.0,29.67,SW,220,0.0,0.0,63,0.00,,,0.00,206.00,VWS V14.01,2013-03-02 18:31:00,
2013-03-02 13:32:00,29.1,18.8,29.67,West,271,0.0,0.0,65,0.00,,,0.00,209.00,VWS V14.01,2013-03-02 18:32:00,
2013-03-02 13:33:00,28.8,17.8,29.67,WSW,250,0.0,0.0,63,0.00,,,0.00,206.00,VWS V14.01,2013-03-02 18:33:00,
2013-03-02 13:34:00,28.8,18.2,29.67,SW,220,0.0,0.0,64,0.00,,,0.00,204.00,VWS V14.01,2013-03-02 18:34:00,
2013-03-02 13:35:00,28.8,18.5,29.67,West,267,0.0,0.0,65,0.00,,,0.00,215.00,VWS V14.01,2013-03-02 18:35:00,
2013-03-02 13:36:00,29.0,18.7,29.67,West,265,0.0,0.0,65,0.00,,,0.00,223.00,VWS V14.01,2013-03-02 18:36:00,
2013-03-02 13:37:00,28.8,17.8,29.67,West,267,0.0,0.0,63,0.00,,,0.00,208.00,VWS V14.01,2013-03-02 18:37:00,
2013-03-02 13:38:00,29.0,18.7,29.67,West,271,0.0,0.0,65,0.00,,,0.00,227.00,VWS V14.01,2013-03-02 18:38:00,
2013-03-02 13:39:00,29.0,18.4,29.67,WSW,257,0.0,0.0,64,0.00,,,0.00,241.00,VWS V14.01,2013-03-02 18:39:00,
2013-03-02 13:40:00,29.0,18.7,29.67,SSW,193,0.0,0.0,65,0.00,,,0.00,257.00,VWS V14.01,2013-03-02 18:40:00,
2013-03-02 13:41:00,29.0,18.4,29.67,WSW,237,0.0,0.0,64,0.00,,,0.00,246.00,VWS V14.01,2013-03-02 18:41:00,
2013-03-02 13:42:00,29.0,18.7,29.67,SSW,212,0.0,0.0,65,0.00,,,0.00,225.00,VWS V14.01,2013-03-02 18:42:00,
2013-03-02 13:43:00,29.1,18.5,29.67,West,277,0.0,0.0,64,0.00,,,0.00,236.00,VWS V14.01,2013-03-02 18:43:00,
2013-03-02 13:44:00,29.1,18.1,29.67,West,281,0.0,0.0,63,0.00,,,0.00,239.00,VWS V14.01,2013-03-02 18:44:00,
2013-03-02 13:45:00,29.1,18.1,29.67,West,260,0.0,0.0,63,0.00,,,0.00,227.00,VWS V14.01,2013-03-02 18:45:00,
2013-03-02 13:46:00,29.3,18.3,29.67,WSW,250,0.0,0.0,63,0.00,,,0.00,215.00,VWS V14.01,2013-03-02 18:46:00,
2013-03-02 13:47:00,29.1,18.5,29.67,South,175,0.0,0.0,64,0.00,,,0.00,238.00,VWS V14.01,2013-03-02 18:47:00,
2013-03-02 13:48:00,29.3,18.3,29.67,WSW,248,0.0,0.0,63,0.00,,,0.00,209.00,VWS V14.01,2013-03-02 18:48:00,
2013-03-02 13:49:00,29.3,18.3,29.67,WSW,258,0.0,0.0,63,0.00,,,0.00,209.00,VWS V14.01,2013-03-02 18:49:00,
2013-03-02 13:50:00,29.1,18.1,29.67,WSW,239,0.0,0.0,63,0.00,,,0.00,222.00,VWS V14.01,2013-03-02 18:50:00,
2013-03-02 13:51:00,29.1,17.7,29.67,SSW,202,0.0,0.0,62,0.00,,,0.00,229.00,VWS V14.01,2013-03-02 18:51:00,
2013-03-02 13:52:00,29.0,18.0,29.67,WNW,282,0.0,0.0,63,0.00,,,0.00,229.00,VWS V14.01,2013-03-02 18:52:00,
2013-03-02 13:53:00,29.3,18.3,29.67,WSW,248,0.0,0.0,63,0.00,,,0.00,209.00,VWS V14.01,2013-03-02 18:53:00,
2013-03-02 13:54:00,29.0,18.0,29.67,SW,215,0.0,0.0,63,0.00,,,0.00,213.00,VWS V14.01,2013-03-02 18:54:00,
2013-03-02 13:55:00,29.0,18.0,29.67,SW,236,0.0,0.0,63,0.00,,,0.00,204.00,VWS V14.01,2013-03-02 18:55:00,
2013-03-02 13:56:00,29.1,18.5,29.67,WNW,282,0.0,0.0,64,0.00,,,0.00,206.00,VWS V14.01,2013-03-02 18:56:00,
2013-03-02 13:57:00,29.1,18.1,29.67,West,281,0.0,0.0,63,0.00,,,0.00,208.00,VWS V14.01,2013-03-02 18:57:00,
2013-03-02 13:58:00,29.0,18.0,29.67,West,280,0.0,0.0,63,0.00,,,0.00,220.00,VWS V14.01,2013-03-02 18:58:00,
2013-03-02 13:59:00,29.1,18.1,29.67,WNW,295,0.0,0.0,63,0.00,,,0.00,209.00,VWS V14.01,2013-03-02 18:59:00,
2013-03-02 14:00:00,29.1,18.1,29.67,SW,227,0.0,0.0,63,0.00,,,0.00,211.00,VWS V14.01,2013-03-02 19:00:00,
2013-03-02 14:01:00,29.1,18.1,29.67,SSW,198,0.0,0.0,63,0.00,,,0.00,208.00,VWS V14.01,2013-03-02 19:01:00,
2013-03-02 14:02:00,29.1,18.1,29.67,West,267,0.0,0.0,63,0.00,,,0.00,206.00,VWS V14.01,2013-03-02 19:02:00,
2013-03-02 14:03:00,29.1,18.5,29.67,West,264,0.0,0.0,64,0.00,,,0.00,206.00,VWS V14.01,2013-03-02 19:03:00,
2013-03-02 14:04:00,29.1,18.1,29.67,WNW,295,0.0,0.0,63,0.00,,,0.00,209.00,VWS V14.01,2013-03-02 19:04:00,
2013-03-02 14:05:00,29.1,17.7,29.67,NW,323,0.0,0.0,62,0.00,,,0.00,211.00,VWS V14.01,2013-03-02 19:05:00,
2013-03-02 14:06:00,29.0,17.6,29.67,WNW,289,0.0,0.0,62,0.00,,,0.00,216.00,VWS V14.01,2013-03-02 19:06:00,
2013-03-02 14:07:00,29.0,18.0,29.67,West,278,0.0,0.0,63,0.00,,,0.00,220.00,VWS V14.01,2013-03-02 19:07:00,
2013-03-02 14:08:00,29.0,17.6,29.67,WNW,282,0.0,0.0,62,0.00,,,0.00,216.00,VWS V14.01,2013-03-02 19:08:00,
2013-03-02 14:09:00,29.1,18.1,29.67,WSW,256,0.0,0.0,63,0.00,,,0.00,204.00,VWS V14.01,2013-03-02 19:09:00,
2013-03-02 14:10:00,28.8,17.8,29.67,SW,236,0.0,0.0,63,0.00,,,0.00,229.00,VWS V14.01,2013-03-02 19:10:00,
2013-03-02 14:11:00,28.8,17.8,29.67,WNW,288,0.0,0.0,63,0.00,,,0.00,211.00,VWS V14.01,2013-03-02 19:11:00,
2013-03-02 14:12:00,28.8,17.8,29.67,West,268,0.0,0.0,63,0.00,,,0.00,199.00,VWS V14.01,2013-03-02 19:12:00,
2013-03-02 14:13:00,28.8,17.8,29.67,WNW,285,0.0,0.0,63,0.00,,,0.00,202.00,VWS V14.01,2013-03-02 19:13:00,
2013-03-02 14:14:00,28.8,17.8,29.67,WNW,287,0.0,0.0,63,0.00,,,0.00,220.00,VWS V14.01,2013-03-02 19:14:00,
2013-03-02 14:15:00,28.8,17.8,29.67,WSW,257,0.0,0.0,63,0.00,,,0.00,208.00,VWS V14.01,2013-03-02 19:15:00,
2013-03-02 14:16:00,28.8,17.8,29.67,WNW,294,0.0,0.0,63,0.00,,,0.00,197.00,VWS V14.01,2013-03-02 19:16:00,
2013-03-02 14:17:00,28.8,17.8,29.67,West,261,0.0,0.0,63,0.00,,,0.00,197.00,VWS V14.01,2013-03-02 19:17:00,
2013-03-02 14:18:00,28.8,18.2,29.67,SSW,209,0.0,0.0,64,0.00,,,0.00,192.00,VWS V14.01,2013-03-02 19:18:00,
2013-03-02 14:19:00,28.8,17.8,29.67,West,274,0.0,0.0,63,0.00,,,0.00,206.00,VWS V14.01,2013-03-02 19:19:00,
2013-03-02 14:20:00,28.8,17.8,29.67,SSW,208,0.0,0.0,63,0.00,,,0.00,202.00,VWS V14.01,2013-03-02 19:20:00,
2013-03-02 14:21:00,28.8,17.8,29.67,WNW,282,0.0,0.0,63,0.00,,,0.00,211.00,VWS V14.01,2013-03-02 19:21:00,
2013-03-02 14:22:00,28.8,17.8,29.67,West,267,0.0,0.0,63,0.00,,,0.00,211.00,VWS V14.01,2013-03-02 19:22:00,
2013-03-02 14:23:00,28.8,17.8,29.67,SE,127,0.0,0.0,63,0.00,,,0.00,204.00,VWS V14.01,2013-03-02 19:23:00,
2013-03-02 14:24:00,29.0,18.0,29.67,SW,233,0.0,0.0,63,0.00,,,0.00,202.00,VWS V14.01,2013-03-02 19:24:00,
2013-03-02 14:25:00,28.8,17.8,29.67,SSW,208,0.0,0.0,63,0.00,,,0.00,202.00,VWS V14.01,2013-03-02 19:25:00,
2013-03-02 14:26:00,29.0,18.0,29.67,West,260,0.0,0.0,63,0.00,,,0.00,215.00,VWS V14.01,2013-03-02 19:26:00,
2013-03-02 14:27:00,29.0,17.6,29.67,SSW,212,0.0,0.0,62,0.00,,,0.00,215.00,VWS V14.01,2013-03-02 19:27:00,
2013-03-02 14:28:00,29.0,17.6,29.67,West,272,0.0,0.0,62,0.00,,,0.00,206.00,VWS V14.01,2013-03-02 19:28:00,
2013-03-02 14:29:00,29.0,17.6,29.67,WSW,256,0.0,0.0,62,0.00,,,0.00,194.00,VWS V14.01,2013-03-02 19:29:00,
2013-03-02 14:30:00,29.0,18.0,29.67,SSW,210,0.0,0.0,63,0.00,,,0.00,215.00,VWS V14.01,2013-03-02 19:30:00,
2013-03-02 14:31:00,29.0,17.6,29.67,WSW,243,0.0,0.0,62,0.00,,,0.00,176.00,VWS V14.01,2013-03-02 19:31:00,
2013-03-02 14:32:00,29.0,17.6,29.67,West,265,0.0,0.0,62,0.00,,,0.00,172.00,VWS V14.01,2013-03-02 19:32:00,
2013-03-02 14:33:00,29.1,17.7,29.67,West,271,0.0,0.0,62,0.00,,,0.00,174.00,VWS V14.01,2013-03-02 19:33:00,
2013-03-02 14:34:00,29.1,17.7,29.67,SSE,152,0.0,0.0,62,0.00,,,0.00,179.00,VWS V14.01,2013-03-02 19:34:00,
2013-03-02 14:35:00,29.1,17.7,29.67,WNW,295,0.0,0.0,62,0.00,,,0.00,190.00,VWS V14.01,2013-03-02 19:35:00,
2013-03-02 14:36:00,29.0,17.6,29.67,WSW,243,0.0,0.0,62,0.00,,,0.00,176.00,VWS V14.01,2013-03-02 19:36:00,
2013-03-02 14:37:00,29.0,17.6,29.67,West,265,0.0,0.0,62,0.00,,,0.00,195.00,VWS V14.01,2013-03-02 19:37:00,
2013-03-02 14:38:00,29.0,17.6,29.67,West,275,0.0,0.0,62,0.00,,,0.00,190.00,VWS V14.01,2013-03-02 19:38:00,
2013-03-02 14:39:00,29.0,18.0,29.67,WNW,292,0.0,0.0,63,0.00,,,0.00,181.00,VWS V14.01,2013-03-02 19:39:00,
2013-03-02 14:40:00,29.0,18.0,29.67,SW,227,0.0,0.0,63,0.00,,,0.00,172.00,VWS V14.01,2013-03-02 19:40:00,
2013-03-02 14:41:00,29.0,18.0,29.67,West,261,0.0,0.0,63,0.00,,,0.00,160.00,VWS V14.01,2013-03-02 19:41:00,
2013-03-02 14:42:00,29.0,17.6,29.67,West,265,0.0,0.0,62,0.00,,,0.00,195.00,VWS V14.01,2013-03-02 19:42:00,
2013-03-02 14:43:00,29.0,17.6,29.67,West,270,0.0,0.0,62,0.00,,,0.00,178.00,VWS V14.01,2013-03-02 19:43:00,
2013-03-02 14:44:00,29.0,17.6,29.67,West,271,0.0,0.0,62,0.00,,,0.00,197.00,VWS V14.01,2013-03-02 19:44:00,
2013-03-02 14:45:00,29.0,17.6,29.67,West,267,0.0,0.0,62,0.00,,,0.00,190.00,VWS V14.01,2013-03-02 19:45:00,
2013-03-02 14:46:00,29.0,17.6,29.67,WNW,287,0.0,0.0,62,0.00,,,0.00,183.00,VWS V14.01,2013-03-02 19:46:00,
2013-03-02 14:47:00,29.0,17.6,29.67,West,267,0.0,0.0,62,0.00,,,0.00,178.00,VWS V14.01,2013-03-02 19:47:00,
2013-03-02 14:48:00,29.0,17.6,29.67,West,270,0.0,0.0,62,0.00,,,0.00,178.00,VWS V14.01,2013-03-02 19:48:00,
2013-03-02 14:49:00,29.0,17.6,29.67,West,267,0.0,0.0,62,0.00,,,0.00,178.00,VWS V14.01,2013-03-02 19:49:00,
2013-03-02 14:50:00,29.0,17.6,29.67,West,272,0.0,0.0,62,0.00,,,0.00,213.00,VWS V14.01,2013-03-02 19:50:00,
2013-03-02 14:51:00,29.0,17.6,29.67,WSW,243,0.0,0.0,62,0.00,,,0.00,204.00,VWS V14.01,2013-03-02 19:51:00,
2013-03-02 14:52:00,29.0,18.0,29.67,SW,234,0.0,0.0,63,0.00,,,0.00,197.00,VWS V14.01,2013-03-02 19:52:00,
2013-03-02 14:53:00,29.0,17.6,29.67,West,270,0.0,0.0,62,0.00,,,0.00,174.00,VWS V14.01,2013-03-02 19:53:00,
2013-03-02 14:54:00,29.0,17.6,29.67,SSE,160,0.0,0.0,62,0.00,,,0.00,197.00,VWS V14.01,2013-03-02 19:54:00,
2013-03-02 14:55:00,29.0,17.6,29.67,WSW,256,0.0,0.0,62,0.00,,,0.00,216.00,VWS V14.01,2013-03-02 19:55:00,
2013-03-02 14:56:00,29.0,17.6,29.67,West,267,0.0,0.0,62,0.00,,,0.00,215.00,VWS V14.01,2013-03-02 19:56:00,
2013-03-02 14:57:00,29.0,17.6,29.67,WNW,284,0.0,0.0,62,0.00,,,0.00,188.00,VWS V14.01,2013-03-02 19:57:00,
2013-03-02 14:58:00,29.0,17.6,29.67,WSW,246,0.0,0.0,62,0.00,,,0.00,174.00,VWS V14.01,2013-03-02 19:58:00,
2013-03-02 14:59:00,29.0,17.6,29.67,SSE,160,0.0,0.0,62,0.00,,,0.00,197.00,VWS V14.01,2013-03-02 19:59:00,
2013-03-02 15:00:00,29.0,17.6,29.67,West,263,0.0,0.0,62,0.00,,,0.00,157.00,VWS V14.01,2013-03-02 20:00:00,
2013-03-02 15:01:00,29.0,17.6,29.67,WSW,248,0.0,0.0,62,0.00,,,0.00,157.00,VWS V14.01,2013-03-02 20:01:00,
2013-03-02 15:02:00,29.0,17.6,29.67,West,271,0.0,0.0,62,0.00,,,0.00,160.00,VWS V14.01,2013-03-02 20:02:00,
2013-03-02 15:03:00,29.0,17.6,29.67,West,267,0.0,0.0,62,0.00,,,0.00,169.00,VWS V14.01,2013-03-02 20:03:00,
2013-03-02 15:04:00,29.0,17.6,29.67,West,272,0.0,0.0,62,0.00,,,0.00,172.00,VWS V14.01,2013-03-02 20:04:00,
2013-03-02 15:05:00,29.0,17.6,29.67,WNW,289,0.0,0.0,62,0.00,,,0.00,181.00,VWS V14.01,2013-03-02 20:05:00,
2013-03-02 15:06:00,29.0,17.2,29.67,WSW,258,0.0,0.0,61,0.00,,,0.00,179.00,VWS V14.01,2013-03-02 20:06:00,
2013-03-02 15:07:00,29.0,17.2,29.67,West,277,0.0,0.0,61,0.00,,,0.00,164.00,VWS V14.01,2013-03-02 20:07:00,
2013-03-02 15:08:00,29.0,17.2,29.67,West,261,0.0,0.0,61,0.00,,,0.00,153.00,VWS V14.01,2013-03-02 20:08:00,
2013-03-02 15:09:00,29.0,17.6,29.67,SSW,200,0.0,0.0,62,0.00,,,0.00,179.00,VWS V14.01,2013-03-02 20:09:00,
2013-03-02 15:10:00,28.8,17.4,29.67,NW,319,0.0,0.0,62,0.00,,,0.00,183.00,VWS V14.01,2013-03-02 20:10:00,
2013-03-02 15:11:00,28.8,17.4,29.67,West,270,0.0,0.0,62,0.00,,,0.00,179.00,VWS V14.01,2013-03-02 20:11:00,
2013-03-02 15:12:00,28.8,17.4,29.67,West,281,0.0,0.0,62,0.00,,,0.00,171.00,VWS V14.01,2013-03-02 20:12:00,
2013-03-02 15:13:00,28.8,17.1,29.67,WNW,296,0.0,0.0,61,0.00,,,0.00,176.00,VWS V14.01,2013-03-02 20:13:00,
2013-03-02 15:14:00,28.8,17.1,29.67,West,281,0.0,0.0,61,0.00,,,0.00,181.00,VWS V14.01,2013-03-02 20:14:00,
2013-03-02 15:15:00,28.8,17.4,29.67,NW,319,0.0,0.0,62,0.00,,,0.00,183.00,VWS V14.01,2013-03-02 20:15:00,
2013-03-02 15:16:00,28.5,16.4,29.67,WNW,291,0.0,0.0,60,0.00,,,0.00,181.00,VWS V14.01,2013-03-02 20:16:00,
2013-03-02 15:17:00,28.4,16.3,29.67,WSW,253,0.0,0.0,60,0.00,,,0.00,174.00,VWS V14.01,2013-03-02 20:17:00,
2013-03-02 15:18:00,28.4,16.3,29.67,West,275,0.0,0.0,60,0.00,,,0.00,172.00,VWS V14.01,2013-03-02 20:18:00,
2013-03-02 15:19:00,28.4,16.7,29.67,WNW,299,0.0,0.0,61,0.00,,,0.00,171.00,VWS V14.01,2013-03-02 20:19:00,
2013-03-02 15:20:00,28.7,17.0,29.67,West,267,0.0,0.0,61,0.00,,,0.00,179.00,VWS V14.01,2013-03-02 20:20:00,
2013-03-02 15:21:00,28.2,16.1,29.67,WNW,284,0.0,0.0,60,0.00,,,0.00,167.00,VWS V14.01,2013-03-02 20:21:00,
2013-03-02 15:22:00,28.2,16.5,29.67,WNW,298,0.0,0.0,61,0.00,,,0.00,160.00,VWS V14.01,2013-03-02 20:22:00,
2013-03-02 15:23:00,28.2,16.5,29.67,NW,312,0.0,0.0,61,0.00,,,0.00,153.00,VWS V14.01,2013-03-02 20:23:00,
2013-03-02 15:24:00,28.4,16.7,29.67,West,267,0.0,0.0,61,0.00,,,0.00,158.00,VWS V14.01,2013-03-02 20:24:00,
2013-03-02 15:25:00,28.4,16.7,29.67,WNW,288,0.0,0.0,61,0.00,,,0.00,164.00,VWS V14.01,2013-03-02 20:25:00,
2013-03-02 15:26:00,28.4,16.3,29.67,West,271,0.0,0.0,60,0.00,,,0.00,169.00,VWS V14.01,2013-03-02 20:26:00,
2013-03-02 15:27:00,28.4,16.3,29.67,WNW,285,0.0,0.0,60,0.00,,,0.00,172.00,VWS V14.01,2013-03-02 20:27:00,
2013-03-02 15:28:00,28.4,16.3,29.67,WNW,285,0.0,0.0,60,0.00,,,0.00,151.00,VWS V14.01,2013-03-02 20:28:00,
2013-03-02 15:29:00,28.2,16.1,29.67,WSW,253,0.0,0.0,60,0.00,,,0.00,153.00,VWS V14.01,2013-03-02 20:29:00,
2013-03-02 15:30:00,28.2,16.1,29.67,WSW,256,0.0,0.0,60,0.00,,,0.00,160.00,VWS V14.01,2013-03-02 20:30:00,
2013-03-02 15:31:00,28.4,16.3,29.67,West,271,0.0,0.0,60,0.00,,,0.00,169.00,VWS V14.01,2013-03-02 20:31:00,
2013-03-02 15:32:00,28.4,16.3,29.67,North,357,0.0,0.0,60,0.00,,,0.00,151.00,VWS V14.01,2013-03-02 20:32:00,
2013-03-02 15:33:00,28.4,16.3,29.67,WSW,244,0.0,0.0,60,0.00,,,0.00,155.00,VWS V14.01,2013-03-02 20:33:00,
2013-03-02 15:34:00,28.4,16.3,29.67,West,261,0.0,0.0,60,0.00,,,0.00,162.00,VWS V14.01,2013-03-02 20:34:00,
2013-03-02 15:35:00,28.4,16.3,29.67,WSW,253,0.0,0.0,60,0.00,,,0.00,176.00,VWS V14.01,2013-03-02 20:35:00,
2013-03-02 15:36:00,28.2,16.1,29.67,West,260,0.0,0.0,60,0.00,,,0.00,157.00,VWS V14.01,2013-03-02 20:36:00,
2013-03-02 15:37:00,28.5,16.4,29.67,WNW,285,0.0,0.0,60,0.00,,,0.00,188.00,VWS V14.01,2013-03-02 20:37:00,
2013-03-02 15:38:00,28.5,16.4,29.67,West,281,0.0,0.0,60,0.00,,,0.00,195.00,VWS V14.01,2013-03-02 20:38:00,
2013-03-02 15:39:00,28.5,16.4,29.67,WNW,288,0.0,0.0,60,0.00,,,0.00,195.00,VWS V14.01,2013-03-02 20:39:00,
2013-03-02 15:40:00,28.5,16.4,29.67,West,280,0.0,0.0,60,0.00,,,0.00,190.00,VWS V14.01,2013-03-02 20:40:00,
2013-03-02 15:41:00,28.7,16.2,29.67,SSW,200,0.0,0.0,59,0.00,,,0.00,185.00,VWS V14.01,2013-03-02 20:41:00,
2013-03-02 15:42:00,28.5,16.4,29.67,WNW,285,0.0,0.0,60,0.00,,,0.00,188.00,VWS V14.01,2013-03-02 20:42:00,
2013-03-02 15:43:00,28.7,16.6,29.67,West,268,0.0,0.0,60,0.00,,,0.00,185.00,VWS V14.01,2013-03-02 20:43:00,
2013-03-02 15:44:00,28.7,16.6,29.67,SW,223,0.0,0.0,60,0.00,,,0.00,174.00,VWS V14.01,2013-03-02 20:44:00,
2013-03-02 15:45:00,28.7,16.6,29.67,West,281,0.0,0.0,60,0.00,,,0.00,171.00,VWS V14.01,2013-03-02 20:45:00,
2013-03-02 15:46:00,28.7,16.6,29.67,West,272,0.0,0.0,60,0.00,,,0.00,151.00,VWS V14.01,2013-03-02 20:46:00,
2013-03-02 15:47:00,28.7,16.6,29.67,West,270,0.0,0.0,60,0.00,,,0.00,190.00,VWS V14.01,2013-03-02 20:47:00,
2013-03-02 15:48:00,28.8,16.7,29.67,North,0,0.0,0.0,60,0.00,,,0.00,141.00,VWS V14.01,2013-03-02 20:48:00,
2013-03-02 15:49:00,28.8,16.7,29.67,WNW,296,0.0,0.0,60,0.00,,,0.00,141.00,VWS V14.01,2013-03-02 20:49:00,
2013-03-02 15:50:00,28.8,16.7,29.67,WNW,291,0.0,0.0,60,0.00,,,0.00,148.00,VWS V14.01,2013-03-02 20:50:00,
2013-03-02 15:51:00,28.8,16.3,29.67,West,275,0.0,0.0,59,0.00,,,0.00,162.00,VWS V14.01,2013-03-02 20:51:00,
2013-03-02 15:52:00,28.7,16.2,29.67,West,281,0.0,0.0,59,0.00,,,0.00,164.00,VWS V14.01,2013-03-02 20:52:00,
2013-03-02 15:53:00,28.8,16.7,29.67,North,0,0.0,0.0,60,0.00,,,0.00,141.00,VWS V14.01,2013-03-02 20:53:00,
2013-03-02 15:54:00,28.7,16.2,29.67,West,260,0.0,0.0,59,0.00,,,0.00,151.00,VWS V14.01,2013-03-02 20:54:00,
2013-03-02 15:55:00,28.7,16.2,29.67,WSW,256,0.0,0.0,59,0.00,,,0.00,158.00,VWS V14.01,2013-03-02 20:55:00,
2013-03-02 15:56:00,28.7,16.2,29.67,WNW,289,0.0,0.0,59,0.00,,,0.00,160.00,VWS V14.01,2013-03-02 20:56:00,
2013-03-02 15:57:00,28.7,16.2,29.67,WNW,282,0.0,0.0,59,0.00,,,0.00,157.00,VWS V14.01,2013-03-02 20:57:00,
2013-03-02 15:58:00,28.5,16.0,29.67,WNW,301,0.0,0.0,59,0.00,,,0.00,148.00,VWS V14.01,2013-03-02 20:58:00,
2013-03-02 15:59:00,28.7,16.2,29.67,West,260,0.0,0.0,59,0.00,,,0.00,151.00,VWS V14.01,2013-03-02 20:59:00,
2013-03-02 16:00:00,28.4,15.9,29.67,West,280,0.0,0.0,59,0.00,,,0.00,151.00,VWS V14.01,2013-03-02 21:00:00,
2013-03-02 16:01:00,28.4,15.9,29.67,West,264,0.0,0.0,59,0.00,,,0.00,167.00,VWS V14.01,2013-03-02 21:01:00,
2013-03-02 16:02:00,28.4,16.3,29.67,WNW,299,0.0,0.0,60,0.00,,,0.00,141.00,VWS V14.01,2013-03-02 21:02:00,
2013-03-02 16:03:00,28.2,16.1,29.67,West,264,0.0,0.0,60,0.00,,,0.00,143.00,VWS V14.01,2013-03-02 21:03:00,
2013-03-02 16:04:00,28.5,16.0,29.67,WSW,244,0.0,0.0,59,0.00,,,0.00,146.00,VWS V14.01,2013-03-02 21:04:00,
2013-03-02 16:05:00,28.2,15.7,29.67,West,270,0.0,0.0,59,0.00,,,0.00,151.00,VWS V14.01,2013-03-02 21:05:00,
2013-03-02 16:06:00,28.2,15.7,29.67,West,271,0.0,0.0,59,0.00,,,0.00,150.00,VWS V14.01,2013-03-02 21:06:00,
2013-03-02 16:07:00,28.1,15.6,29.67,WSW,244,0.0,0.0,59,0.00,,,0.00,143.00,VWS V14.01,2013-03-02 21:07:00,
2013-03-02 16:08:00,28.1,16.0,29.67,West,278,0.0,0.0,60,0.00,,,0.00,134.00,VWS V14.01,2013-03-02 21:08:00,
2013-03-02 16:09:00,28.2,15.7,29.67,WNW,302,0.0,0.0,59,0.00,,,0.00,139.00,VWS V14.01,2013-03-02 21:09:00,
2013-03-02 16:10:00,28.1,16.0,29.67,WNW,292,0.0,0.0,60,0.00,,,0.00,125.00,VWS V14.01,2013-03-02 21:10:00,
2013-03-02 16:11:00,28.1,16.0,29.67,NNW,336,0.0,0.0,60,0.00,,,0.00,137.00,VWS V14.01,2013-03-02 21:11:00,
2013-03-02 16:12:00,28.1,16.0,29.67,West,272,0.0,0.0,60,0.00,,,0.00,148.00,VWS V14.01,2013-03-02 21:12:00,
2013-03-02 16:13:00,27.9,15.8,29.67,West,268,0.0,0.0,60,0.00,,,0.00,148.00,VWS V14.01,2013-03-02 21:13:00,
2013-03-02 16:14:00,27.9,15.8,29.67,West,265,0.0,0.0,60,0.00,,,0.00,185.00,VWS V14.01,2013-03-02 21:14:00,
2013-03-02 16:15:00,28.1,16.0,29.67,WNW,292,0.0,0.0,60,0.00,,,0.00,125.00,VWS V14.01,2013-03-02 21:15:00,
2013-03-02 16:16:00,27.9,15.8,29.68,West,271,0.0,0.0,60,0.00,,,0.00,148.00,VWS V14.01,2013-03-02 21:16:00,
2013-03-02 16:17:00,27.9,15.8,29.68,WSW,239,0.0,0.0,60,0.00,,,0.00,169.00,VWS V14.01,2013-03-02 21:17:00,
2013-03-02 16:18:00,27.9,15.4,29.68,SSW,206,0.0,0.0,59,0.00,,,0.00,169.00,VWS V14.01,2013-03-02 21:18:00,
2013-03-02 16:19:00,27.9,15.4,29.68,NNW,333,0.0,0.0,59,0.00,,,0.00,327.00,VWS V14.01,2013-03-02 21:19:00,
2013-03-02 16:20:00,27.9,15.8,29.68,West,271,0.0,0.0,60,0.00,,,0.00,148.00,VWS V14.01,2013-03-02 21:20:00,
2013-03-02 16:21:00,27.9,15.8,29.68,WNW,284,0.0,0.0,60,0.00,,,0.00,144.00,VWS V14.01,2013-03-02 21:21:00,
2013-03-02 16:22:00,27.9,15.8,29.68,WNW,294,0.0,0.0,60,0.00,,,0.00,167.00,VWS V14.01,2013-03-02 21:22:00,
2013-03-02 16:23:00,27.9,15.8,29.68,NW,305,0.0,0.0,60,0.00,,,0.00,167.00,VWS V14.01,2013-03-02 21:23:00,
2013-03-02 16:24:00,28.1,16.0,29.68,WNW,288,0.0,0.0,60,0.00,,,0.00,167.00,VWS V14.01,2013-03-02 21:24:00,
2013-03-02 16:25:00,27.9,15.4,29.68,WNW,298,0.0,0.0,59,0.00,,,0.00,137.00,VWS V14.01,2013-03-02 21:25:00,
2013-03-02 16:26:00,28.1,16.0,29.68,SW,236,0.0,0.0,60,0.00,,,0.00,109.00,VWS V14.01,2013-03-02 21:26:00,
2013-03-02 16:27:00,28.1,16.0,29.68,WNW,301,0.0,0.0,60,0.00,,,0.00,99.00,VWS V14.01,2013-03-02 21:27:00,
2013-03-02 16:28:00,28.1,16.0,29.68,West,278,0.0,0.0,60,0.00,,,0.00,91.00,VWS V14.01,2013-03-02 21:28:00,
2013-03-02 16:29:00,27.9,15.8,29.68,West,265,0.0,0.0,60,0.00,,,0.00,86.00,VWS V14.01,2013-03-02 21:29:00,
2013-03-02 16:30:00,27.9,15.8,29.68,West,272,0.0,0.0,60,0.00,,,0.00,79.00,VWS V14.01,2013-03-02 21:30:00,
2013-03-02 16:31:00,28.1,16.0,29.68,SW,236,0.0,0.0,60,0.00,,,0.00,109.00,VWS V14.01,2013-03-02 21:31:00,
2013-03-02 16:32:00,27.9,15.8,29.68,West,278,0.0,0.0,60,0.00,,,0.00,77.00,VWS V14.01,2013-03-02 21:32:00,
2013-03-02 16:33:00,27.9,15.8,29.68,WNW,287,0.0,0.0,60,0.00,,,0.00,77.00,VWS V14.01,2013-03-02 21:33:00,
2013-03-02 16:34:00,27.8,16.1,29.68,WNW,299,0.0,0.0,61,0.00,,,0.00,74.00,VWS V14.01,2013-03-02 21:34:00,
2013-03-02 16:35:00,27.9,16.2,29.68,West,278,0.0,0.0,61,0.00,,,0.00,76.00,VWS V14.01,2013-03-02 21:35:00,
2013-03-02 16:36:00,27.8,16.1,29.68,WSW,239,0.0,0.0,61,0.00,,,0.00,74.00,VWS V14.01,2013-03-02 21:36:00,
2013-03-02 16:37:00,27.9,15.8,29.68,West,278,0.0,0.0,60,0.00,,,0.00,77.00,VWS V14.01,2013-03-02 21:37:00,
2013-03-02 16:38:00,27.8,16.1,29.68,West,278,0.0,0.0,61,0.00,,,0.00,77.00,VWS V14.01,2013-03-02 21:38:00,
2013-03-02 16:39:00,27.6,16.3,29.68,West,277,0.0,0.0,62,0.00,,,0.00,83.00,VWS V14.01,2013-03-02 21:39:00,
2013-03-02 16:40:00,27.6,16.3,29.68,WSW,253,0.0,0.0,62,0.00,,,0.00,79.00,VWS V14.01,2013-03-02 21:40:00,
2013-03-02 16:41:00,27.5,16.2,29.68,West,274,0.0,0.0,62,0.00,,,0.00,76.00,VWS V14.01,2013-03-02 21:41:00,
2013-03-02 16:42:00,27.5,16.2,29.68,West,277,0.0,0.0,62,0.00,,,0.00,74.00,VWS V14.01,2013-03-02 21:42:00,
2013-03-02 16:43:00,27.8,16.1,29.68,West,278,0.0,0.0,61,0.00,,,0.00,77.00,VWS V14.01,2013-03-02 21:43:00,
2013-03-02 16:44:00,27.3,16.0,29.68,West,263,0.0,0.0,62,0.00,,,0.00,81.00,VWS V14.01,2013-03-02 21:44:00,
2013-03-02 16:45:00,27.3,16.0,29.69,West,264,0.0,0.0,62,0.00,,,0.00,79.00,VWS V14.01,2013-03-02 21:45:00,
2013-03-02 16:46:00,27.3,16.0,29.69,West,263,0.0,0.0,62,0.00,,,0.00,70.00,VWS V14.01,2013-03-02 21:46:00,
2013-03-02 16:47:00,27.3,16.0,29.69,WSW,258,0.0,0.0,62,0.00,,,0.00,67.00,VWS V14.01,2013-03-02 21:47:00,
2013-03-02 16:48:00,27.3,16.0,29.69,South,191,0.0,0.0,62,0.00,,,0.00,65.00,VWS V14.01,2013-03-02 21:48:00,
2013-03-02 16:49:00,27.3,16.0,29.68,West,263,0.0,0.0,62,0.00,,,0.00,81.00,VWS V14.01,2013-03-02 21:49:00,
2013-03-02 16:50:00,27.3,16.4,29.69,West,260,0.0,0.0,63,0.00,,,0.00,60.00,VWS V14.01,2013-03-02 21:50:00,
2013-03-02 16:51:00,27.3,16.4,29.69,WSW,239,0.0,0.0,63,0.00,,,0.00,67.00,VWS V14.01,2013-03-02 21:51:00,
2013-03-02 16:52:00,27.3,16.4,29.69,WSW,243,0.0,0.0,63,0.00,,,0.00,74.00,VWS V14.01,2013-03-02 21:52:00,
2013-03-02 16:53:00,27.3,16.4,29.69,West,281,0.0,0.0,63,0.00,,,0.00,74.00,VWS V14.01,2013-03-02 21:53:00,
2013-03-02 16:54:00,27.3,16.4,29.69,SW,233,0.0,0.0,63,0.00,,,0.00,62.00,VWS V14.01,2013-03-02 21:54:00,
2013-03-02 16:55:00,27.2,15.9,29.69,WNW,298,0.0,0.0,62,0.00,,,0.00,60.00,VWS V14.01,2013-03-02 21:55:00,
2013-03-02 16:56:00,27.2,15.9,29.69,West,277,0.0,0.0,62,0.00,,,0.00,58.00,VWS V14.01,2013-03-02 21:56:00,
2013-03-02 16:57:00,27.2,15.9,29.69,WSW,244,0.0,0.0,62,0.00,,,0.00,58.00,VWS V14.01,2013-03-02 21:57:00,
2013-03-02 16:58:00,27.2,15.9,29.69,WSW,247,0.0,0.0,62,0.00,,,0.00,58.00,VWS V14.01,2013-03-02 21:58:00,
2013-03-02 16:59:00,27.3,16.0,29.69,WSW,251,0.0,0.0,62,0.00,,,0.00,70.00,VWS V14.01,2013-03-02 21:59:00,
2013-03-02 17:00:00,27.2,16.3,29.69,SW,217,0.0,0.0,63,0.00,,,0.00,62.00,VWS V14.01,2013-03-02 22:00:00,
2013-03-02 17:01:00,27.2,16.3,29.69,West,271,0.0,0.0,63,0.00,,,0.00,67.00,VWS V14.01,2013-03-02 22:01:00,
2013-03-02 17:02:00,27.2,16.3,29.69,WSW,253,0.0,0.0,63,0.00,,,0.00,69.00,VWS V14.01,2013-03-02 22:02:00,
2013-03-02 17:03:00,27.2,16.3,29.69,SW,229,0.0,0.0,63,0.00,,,0.00,69.00,VWS V14.01,2013-03-02 22:03:00,
2013-03-02 17:04:00,27.2,16.3,29.69,WNW,296,0.0,0.0,63,0.00,,,0.00,56.00,VWS V14.01,2013-03-02 22:04:00,
2013-03-02 17:05:00,27.0,15.7,29.69,SW,217,0.0,0.0,62,0.00,,,0.00,65.00,VWS V14.01,2013-03-02 22:05:00,
2013-03-02 17:06:00,27.0,15.7,29.69,West,272,0.0,0.0,62,0.00,,,0.00,67.00,VWS V14.01,2013-03-02 22:06:00,
2013-03-02 17:07:00,27.0,15.7,29.69,WNW,299,0.0,0.0,62,0.00,,,0.00,69.00,VWS V14.01,2013-03-02 22:07:00,
2013-03-02 17:08:00,26.9,15.6,29.69,West,274,0.0,0.0,62,0.00,,,0.00,69.00,VWS V14.01,2013-03-02 22:08:00,
2013-03-02 17:09:00,26.9,15.6,29.69,NW,322,0.0,0.0,62,0.00,,,0.00,63.00,VWS V14.01,2013-03-02 22:09:00,
2013-03-02 17:10:00,27.0,15.7,29.69,SW,217,0.0,0.0,62,0.00,,,0.00,65.00,VWS V14.01,2013-03-02 22:10:00,
2013-03-02 17:11:00,26.9,15.6,29.69,West,264,0.0,0.0,62,0.00,,,0.00,55.00,VWS V14.01,2013-03-02 22:11:00,
2013-03-02 17:12:00,26.9,15.6,29.69,West,270,0.0,0.0,62,0.00,,,0.00,55.00,VWS V14.01,2013-03-02 22:12:00,
2013-03-02 17:13:00,26.7,15.4,29.69,SW,236,0.0,0.0,62,0.00,,,0.00,53.00,VWS V14.01,2013-03-02 22:13:00,
2013-03-02 17:14:00,26.7,15.8,29.69,West,280,0.0,0.0,63,0.00,,,0.00,55.00,VWS V14.01,2013-03-02 22:14:00,
2013-03-02 17:15:00,26.7,15.8,29.70,WSW,247,0.0,0.0,63,0.00,,,0.00,60.00,VWS V14.01,2013-03-02 22:15:00,
2013-03-02 17:16:00,26.9,15.6,29.69,West,264,0.0,0.0,62,0.00,,,0.00,55.00,VWS V14.01,2013-03-02 22:16:00,
2013-03-02 17:17:00,26.7,15.8,29.70,WSW,256,0.0,0.0,63,0.00,,,0.00,58.00,VWS V14.01,2013-03-02 22:17:00,
2013-03-02 17:18:00,26.7,15.8,29.70,West,265,0.0,0.0,63,0.00,,,0.00,58.00,VWS V14.01,2013-03-02 22:18:00,
2013-03-02 17:19:00,26.7,15.8,29.70,West,271,0.0,0.0,63,0.00,,,0.00,62.00,VWS V14.01,2013-03-02 22:19:00,
2013-03-02 17:20:00,26.7,15.8,29.70,West,270,0.0,0.0,63,0.00,,,0.00,53.00,VWS V14.01,2013-03-02 22:20:00,
2013-03-02 17:21:00,26.7,15.8,29.70,WSW,256,0.0,0.0,63,0.00,,,0.00,56.00,VWS V14.01,2013-03-02 22:21:00,
2013-03-02 17:22:00,26.7,15.8,29.70,West,281,0.0,0.0,63,0.00,,,0.00,60.00,VWS V14.01,2013-03-02 22:22:00,
2013-03-02 17:23:00,26.7,16.2,29.70,West,274,0.0,0.0,64,0.00,,,0.00,58.00,VWS V14.01,2013-03-02 22:23:00,
2013-03-02 17:24:00,26.7,16.2,29.70,WNW,296,0.0,0.0,64,0.00,,,0.00,56.00,VWS V14.01,2013-03-02 22:24:00,
2013-03-02 17:25:00,26.9,16.4,29.70,WNW,282,0.0,0.0,64,0.00,,,0.00,58.00,VWS V14.01,2013-03-02 22:25:00,
2013-03-02 17:26:00,26.7,15.8,29.70,West,268,0.0,0.0,63,0.00,,,0.00,55.00,VWS V14.01,2013-03-02 22:26:00,
2013-03-02 17:27:00,26.7,15.8,29.70,NW,309,0.0,0.0,63,0.00,,,0.00,51.00,VWS V14.01,2013-03-02 22:27:00,
2013-03-02 17:28:00,26.7,15.8,29.70,West,278,0.0,0.0,63,0.00,,,0.00,48.00,VWS V14.01,2013-03-02 22:28:00,
2013-03-02 17:29:00,26.7,15.4,29.70,West,277,0.0,0.0,62,0.00,,,0.00,44.00,VWS V14.01,2013-03-02 22:29:00,
2013-03-02 17:30:00,26.7,15.4,29.70,WNW,282,0.0,0.0,62,0.00,,,0.00,44.00,VWS V14.01,2013-03-02 22:30:00,
2013-03-02 17:31:00,26.7,15.4,29.70,West,267,0.0,0.0,62,0.00,,,0.00,42.00,VWS V14.01,2013-03-02 22:31:00,
2013-03-02 17:32:00,26.7,15.8,29.70,NW,309,0.0,0.0,63,0.00,,,0.00,51.00,VWS V14.01,2013-03-02 22:32:00,
2013-03-02 17:33:00,26.6,15.4,29.70,WSW,253,0.0,0.0,62,0.00,,,0.00,37.00,VWS V14.01,2013-03-02 22:33:00,
2013-03-02 17:34:00,26.6,15.4,29.70,WSW,256,0.0,0.0,62,0.00,,,0.00,35.00,VWS V14.01,2013-03-02 22:34:00,
2013-03-02 17:35:00,26.6,15.4,29.70,WSW,248,0.0,0.0,62,0.00,,,0.00,35.00,VWS V14.01,2013-03-02 22:35:00,
2013-03-02 17:36:00,26.6,15.7,29.70,West,275,0.0,0.0,63,0.00,,,0.00,30.00,VWS V14.01,2013-03-02 22:36:00,
2013-03-02 17:37:00,26.6,15.4,29.70,West,277,0.0,0.0,62,0.00,,,0.00,26.00,VWS V14.01,2013-03-02 22:37:00,
2013-03-02 17:38:00,26.6,15.4,29.70,WSW,253,0.0,0.0,62,0.00,,,0.00,37.00,VWS V14.01,2013-03-02 22:38:00,
2013-03-02 17:39:00,26.6,15.4,29.70,West,261,0.0,0.0,62,0.00,,,0.00,26.00,VWS V14.01,2013-03-02 22:39:00,
2013-03-02 17:40:00,26.6,15.4,29.70,NW,306,0.0,0.0,62,0.00,,,0.00,26.00,VWS V14.01,2013-03-02 22:40:00,
2013-03-02 17:41:00,26.6,15.4,29.70,WSW,257,0.0,0.0,62,0.00,,,0.00,26.00,VWS V14.01,2013-03-02 22:41:00,
2013-03-02 17:42:00,26.6,15.7,29.70,WNW,285,0.0,0.0,63,0.00,,,0.00,11.00,VWS V14.01,2013-03-02 22:42:00,
2013-03-02 17:43:00,26.6,15.4,29.70,West,277,0.0,0.0,62,0.00,,,0.00,26.00,VWS V14.01,2013-03-02 22:43:00,
2013-03-02 17:44:00,26.4,15.5,29.70,SW,236,0.0,0.0,63,0.00,,,0.00,11.00,VWS V14.01,2013-03-02 22:44:00,
2013-03-02 17:45:00,26.4,15.5,29.70,WSW,246,0.0,0.0,63,0.00,,,0.00,11.00,VWS V14.01,2013-03-02 22:45:00,
2013-03-02 17:46:00,26.4,15.5,29.70,West,275,0.0,0.0,63,0.00,,,0.00,5.00,VWS V14.01,2013-03-02 22:46:00,
2013-03-02 17:47:00,26.4,15.5,29.70,West,263,0.0,0.0,63,0.00,,,0.00,5.00,VWS V14.01,2013-03-02 22:47:00,
2013-03-02 17:48:00,26.4,15.5,29.70,West,277,0.0,0.0,63,0.00,,,0.00,5.00,VWS V14.01,2013-03-02 22:48:00,
2013-03-02 17:49:00,26.4,15.5,29.70,SW,236,0.0,0.0,63,0.00,,,0.00,11.00,VWS V14.01,2013-03-02 22:49:00,
2013-03-02 17:50:00,26.4,15.9,29.70,West,264,0.0,0.0,64,0.00,,,0.00,0.00,VWS V14.01,2013-03-02 22:50:00,
2013-03-02 17:51:00,26.4,15.9,29.70,WNW,282,0.0,0.0,64,0.00,,,0.00,0.00,VWS V14.01,2013-03-02 22:51:00,
2013-03-02 17:52:00,26.4,15.9,29.70,West,264,0.0,0.0,64,0.00,,,0.00,0.00,VWS V14.01,2013-03-02 22:52:00,
2013-03-02 17:53:00,26.4,15.9,29.70,WNW,301,0.0,0.0,64,0.00,,,0.00,0.00,VWS V14.01,2013-03-02 22:53:00,
2013-03-02 17:54:00,26.4,15.9,29.70,WSW,251,0.0,0.0,64,0.00,,,0.00,5.00,VWS V14.01,2013-03-02 22:54:00,
2013-03-02 17:55:00,26.4,16.2,29.70,WNW,296,0.0,0.0,65,0.00,,,0.00,0.00,VWS V14.01,2013-03-02 22:55:00,
2013-03-02 17:56:00,26.4,16.2,29.70,West,267,0.0,0.0,65,0.00,,,0.00,0.00,VWS V14.01,2013-03-02 22:56:00,
2013-03-02 17:57:00,26.4,16.2,29.70,West,264,0.0,0.0,65,0.00,,,0.00,0.00,VWS V14.01,2013-03-02 22:57:00,
2013-03-02 17:58:00,26.3,16.1,29.70,West,275,0.0,0.0,65,0.00,,,0.00,0.00,VWS V14.01,2013-03-02 22:58:00,
2013-03-02 17:59:00,26.3,16.1,29.70,West,268,0.0,0.0,65,0.00,,,0.00,0.00,VWS V14.01,2013-03-02 22:59:00,
2013-03-02 18:00:00,26.4,16.2,29.70,WNW,296,0.0,0.0,65,0.00,,,0.00,0.00,VWS V14.01,2013-03-02 23:00:00,
2013-03-02 18:01:00,26.3,15.8,29.71,West,277,0.0,0.0,64,0.00,,,0.00,0.00,VWS V14.01,2013-03-02 23:01:00,
2013-03-02 18:02:00,26.3,15.8,29.71,West,277,0.0,0.0,64,0.00,,,0.00,0.00,VWS V14.01,2013-03-02 23:02:00,
2013-03-02 18:03:00,26.3,15.8,29.71,NW,313,0.0,0.0,64,0.00,,,0.00,0.00,VWS V14.01,2013-03-02 23:03:00,
2013-03-02 18:04:00,26.3,15.8,29.71,NW,323,0.0,0.0,64,0.00,,,0.00,0.00,VWS V14.01,2013-03-02 23:04:00,
2013-03-02 18:05:00,26.3,15.8,29.71,NW,313,0.0,0.0,64,0.00,,,0.00,0.00,VWS V14.01,2013-03-02 23:05:00,
2013-03-02 18:06:00,26.3,15.8,29.71,West,277,0.0,0.0,64,0.00,,,0.00,0.00,VWS V14.01,2013-03-02 23:06:00,
2013-03-02 18:07:00,26.3,15.8,29.71,WSW,254,0.0,0.0,64,0.00,,,0.00,0.00,VWS V14.01,2013-03-02 23:07:00,
2013-03-02 18:08:00,26.3,16.1,29.71,West,277,0.0,0.0,65,0.00,,,0.00,0.00,VWS V14.01,2013-03-02 23:08:00,
2013-03-02 18:09:00,26.3,16.1,29.71,South,186,0.0,0.0,65,0.00,,,0.00,0.00,VWS V14.01,2013-03-02 23:09:00,
2013-03-02 18:10:00,26.3,16.1,29.71,West,270,0.0,0.0,65,0.00,,,0.00,0.00,VWS V14.01,2013-03-02 23:10:00,
2013-03-02 18:11:00,26.3,15.8,29.71,WNW,295,0.0,0.0,64,0.00,,,0.00,0.00,VWS V14.01,2013-03-02 23:11:00,
2013-03-02 18:12:00,26.3,16.1,29.71,WNW,285,0.0,0.0,65,0.00,,,0.00,0.00,VWS V14.01,2013-03-02 23:12:00,
2013-03-02 18:13:00,26.3,16.1,29.71,West,271,0.0,0.0,65,0.00,,,0.00,0.00,VWS V14.01,2013-03-02 23:13:00,
2013-03-02 18:14:00,26.3,16.1,29.71,West,278,0.0,0.0,65,0.00,,,0.00,0.00,VWS V14.01,2013-03-02 23:14:00,
2013-03-02 18:15:00,26.3,16.1,29.71,West,264,0.0,0.0,65,0.00,,,0.00,0.00,VWS V14.01,2013-03-02 23:15:00,
2013-03-02 18:16:00,26.3,16.1,29.71,WNW,295,0.0,0.0,65,0.00,,,0.00,0.00,VWS V14.01,2013-03-02 23:16:00,
2013-03-02 18:17:00,26.3,16.1,29.71,WNW,285,0.0,0.0,65,0.00,,,0.00,0.00,VWS V14.01,2013-03-02 23:17:00,
2013-03-02 18:18:00,26.3,16.1,29.71,West,277,0.0,0.0,65,0.00,,,0.00,0.00,VWS V14.01,2013-03-02 23:18:00,
2013-03-02 18:19:00,26.1,16.0,29.71,West,274,0.0,0.0,65,0.00,,,0.00,0.00,VWS V14.01,2013-03-02 23:19:00,
2013-03-02 18:20:00,26.1,16.0,29.71,West,265,0.0,0.0,65,0.00,,,0.00,0.00,VWS V14.01,2013-03-02 23:20:00,
2013-03-02 18:21:00,26.1,16.0,29.71,West,265,0.0,0.0,65,0.00,,,0.00,0.00,VWS V14.01,2013-03-02 23:21:00,
2013-03-02 18:22:00,26.1,16.0,29.71,SW,236,0.0,0.0,65,0.00,,,0.00,0.00,VWS V14.01,2013-03-02 23:22:00,
2013-03-02 18:23:00,26.3,16.1,29.71,West,277,0.0,0.0,65,0.00,,,0.00,0.00,VWS V14.01,2013-03-02 23:23:00,
2013-03-02 18:24:00,26.1,16.0,29.71,WSW,258,0.0,0.0,65,0.00,,,0.00,0.00,VWS V14.01,2013-03-02 23:24:00,
2013-03-02 18:25:00,26.1,16.0,29.71,WNW,285,0.0,0.0,65,0.00,,,0.00,0.00,VWS V14.01,2013-03-02 23:25:00,
2013-03-02 18:26:00,26.0,15.9,29.71,WNW,295,0.0,0.0,65,0.00,,,0.00,0.00,VWS V14.01,2013-03-02 23:26:00,
2013-03-02 18:27:00,26.0,15.9,29.71,West,260,0.0,0.0,65,0.00,,,0.00,0.00,VWS V14.01,2013-03-02 23:27:00,
2013-03-02 18:28:00,26.1,16.0,29.71,West,264,0.0,0.0,65,0.00,,,0.00,0.00,VWS V14.01,2013-03-02 23:28:00,
2013-03-02 18:29:00,26.0,16.2,29.71,WNW,295,0.0,0.0,66,0.00,,,0.00,0.00,VWS V14.01,2013-03-02 23:29:00,
2013-03-02 18:30:00,26.0,15.9,29.72,NW,304,0.0,0.0,65,0.00,,,0.00,0.00,VWS V14.01,2013-03-02 23:30:00,
2013-03-02 18:31:00,26.0,15.9,29.72,WNW,295,0.0,0.0,65,0.00,,,0.00,0.00,VWS V14.01,2013-03-02 23:31:00,
2013-03-02 18:32:00,26.0,15.9,29.72,WNW,295,0.0,0.0,65,0.00,,,0.00,0.00,VWS V14.01,2013-03-02 23:32:00,
2013-03-02 18:33:00,26.0,16.2,29.71,West,260,0.0,0.0,66,0.00,,,0.00,0.00,VWS V14.01,2013-03-02 23:33:00,
2013-03-02 18:34:00,26.0,15.9,29.72,West,272,0.0,0.0,65,0.00,,,0.00,0.00,VWS V14.01,2013-03-02 23:34:00,
2013-03-02 18:35:00,26.0,15.9,29.72,WSW,254,0.0,0.0,65,0.00,,,0.00,0.00,VWS V14.01,2013-03-02 23:35:00,
2013-03-02 18:36:00,26.0,15.9,29.72,West,267,0.0,0.0,65,0.00,,,0.00,0.00,VWS V14.01,2013-03-02 23:36:00,
2013-03-02 18:37:00,26.0,15.9,29.72,NNW,330,0.0,0.0,65,0.00,,,0.00,0.00,VWS V14.01,2013-03-02 23:37:00,
2013-03-02 18:38:00,26.0,15.9,29.72,NW,304,0.0,0.0,65,0.00,,,0.00,0.00,VWS V14.01,2013-03-02 23:38:00,
2013-03-02 18:39:00,26.0,15.9,29.72,West,272,0.0,0.0,65,0.00,,,0.00,0.00,VWS V14.01,2013-03-02 23:39:00,
2013-03-02 18:40:00,26.0,15.9,29.72,West,267,0.0,0.0,65,0.00,,,0.00,0.00,VWS V14.01,2013-03-02 23:40:00,
2013-03-02 18:41:00,26.0,16.2,29.72,West,271,0.0,0.0,66,0.00,,,0.00,0.00,VWS V14.01,2013-03-02 23:41:00,
2013-03-02 18:42:00,26.0,16.2,29.72,SSW,198,0.0,0.0,66,0.00,,,0.00,0.00,VWS V14.01,2013-03-02 23:42:00,
2013-03-02 18:43:00,26.0,16.2,29.72,South,191,0.0,0.0,66,0.00,,,0.00,0.00,VWS V14.01,2013-03-02 23:43:00,
2013-03-02 18:44:00,26.0,15.9,29.72,West,272,0.0,0.0,65,0.00,,,0.00,0.00,VWS V14.01,2013-03-02 23:44:00,
2013-03-02 18:45:00,26.0,16.2,29.72,West,270,0.0,0.0,66,0.00,,,0.00,0.00,VWS V14.01,2013-03-02 23:45:00,
2013-03-02 18:46:00,26.0,16.2,29.72,West,268,0.0,0.0,66,0.00,,,0.00,0.00,VWS V14.01,2013-03-02 23:46:00,
2013-03-02 18:47:00,26.0,15.9,29.72,WSW,254,0.0,0.0,65,0.00,,,0.00,0.00,VWS V14.01,2013-03-02 23:47:00,
2013-03-02 18:48:00,26.0,15.9,29.72,West,263,0.0,0.0,65,0.00,,,0.00,0.00,VWS V14.01,2013-03-02 23:48:00,
2013-03-02 18:49:00,25.8,15.7,29.72,West,268,0.0,0.0,65,0.00,,,0.00,0.00,VWS V14.01,2013-03-02 23:49:00,
2013-03-02 18:50:00,26.0,16.2,29.72,West,270,0.0,0.0,66,0.00,,,0.00,0.00,VWS V14.01,2013-03-02 23:50:00,
2013-03-02 18:51:00,25.8,15.7,29.72,West,261,0.0,0.0,65,0.00,,,0.00,0.00,VWS V14.01,2013-03-02 23:51:00,
2013-03-02 18:52:00,25.8,15.7,29.72,West,264,0.0,0.0,65,0.00,,,0.00,0.00,VWS V14.01,2013-03-02 23:52:00,
2013-03-02 18:53:00,25.8,15.7,29.72,West,268,0.0,0.0,65,0.00,,,0.00,0.00,VWS V14.01,2013-03-02 23:53:00,
2013-03-02 18:54:00,25.8,15.7,29.72,West,277,0.0,0.0,65,0.00,,,0.00,0.00,VWS V14.01,2013-03-02 23:54:00,
2013-03-02 18:55:00,25.8,15.7,29.72,West,265,0.0,0.0,65,0.00,,,0.00,0.00,VWS V14.01,2013-03-02 23:55:00,
2013-03-02 18:56:00,25.8,15.3,29.72,WSW,254,0.0,0.0,64,0.00,,,0.00,0.00,VWS V14.01,2013-03-02 23:56:00,
2013-03-02 18:57:00,25.8,15.3,29.72,WNW,282,0.0,0.0,64,0.00,,,0.00,0.00,VWS V14.01,2013-03-02 23:57:00,
2013-03-02 18:58:00,25.8,15.0,29.72,WSW,246,0.0,0.0,63,0.00,,,0.00,0.00,VWS V14.01,2013-03-02 23:58:00,
2013-03-02 18:59:00,25.8,15.0,29.73,NW,305,0.0,0.0,63,0.00,,,0.00,0.00,VWS V14.01,2013-03-02 23:59:00,
2013-03-02 19:00:00,25.8,15.0,29.73,North,0,0.0,0.0,63,0.00,,,0.00,0.00,VWS V14.01,2013-03-03 00:00:00,
2013-03-02 19:01:00,25.8,15.3,29.72,WSW,254,0.0,0.0,64,0.00,,,0.00,0.00,VWS V14.01,2013-03-03 00:01:00,
2013-03-02 19:02:00,25.8,15.0,29.73,North,0,0.0,0.0,63,0.00,,,0.00,0.00,VWS V14.01,2013-03-03 00:02:00,
2013-03-02 19:03:00,25.8,15.0,29.73,North,0,0.0,0.0,63,0.00,,,0.00,0.00,VWS V14.01,2013-03-03 00:03:00,
2013-03-02 19:04:00,25.8,15.0,29.73,North,0,0.0,0.0,63,0.00,,,0.00,0.00,VWS V14.01,2013-03-03 00:04:00,
2013-03-02 19:05:00,25.8,15.0,29.73,North,0,0.0,0.0,63,0.00,,,0.00,0.00,VWS V14.01,2013-03-03 00:05:00,
2013-03-02 19:06:00,25.8,14.6,29.73,North,0,0.0,0.0,62,0.00,,,0.00,0.00,VWS V14.01,2013-03-03 00:06:00,
2013-03-02 19:07:00,25.8,14.6,29.73,North,0,0.0,0.0,62,0.00,,,0.00,0.00,VWS V14.01,2013-03-03 00:07:00,
2013-03-02 19:08:00,25.8,14.6,29.73,North,0,0.0,0.0,62,0.00,,,0.00,0.00,VWS V14.01,2013-03-03 00:08:00,
2013-03-02 19:09:00,25.8,14.6,29.73,North,0,0.0,0.0,62,0.00,,,0.00,0.00,VWS V14.01,2013-03-03 00:09:00,
2013-03-02 19:10:00,25.8,14.6,29.73,North,0,0.0,0.0,62,0.00,,,0.00,0.00,VWS V14.01,2013-03-03 00:10:00,
2013-03-02 19:11:00,25.8,14.6,29.73,North,0,0.0,0.0,62,0.00,,,0.00,0.00,VWS V14.01,2013-03-03 00:11:00,
2013-03-02 19:12:00,25.8,15.0,29.73,North,0,0.0,0.0,63,0.00,,,0.00,0.00,VWS V14.01,2013-03-03 00:12:00,
2013-03-02 19:13:00,25.8,15.0,29.73,North,0,0.0,0.0,63,0.00,,,0.00,0.00,VWS V14.01,2013-03-03 00:13:00,
2013-03-02 19:14:00,25.8,15.0,29.73,North,0,0.0,0.0,63,0.00,,,0.00,0.00,VWS V14.01,2013-03-03 00:14:00,
2013-03-02 19:15:00,25.8,15.0,29.73,North,0,0.0,0.0,63,0.00,,,0.00,0.00,VWS V14.01,2013-03-03 00:15:00,
2013-03-02 19:16:00,25.8,15.0,29.73,North,0,0.0,0.0,63,0.00,,,0.00,0.00,VWS V14.01,2013-03-03 00:16:00,
2013-03-02 19:17:00,25.8,15.0,29.73,North,0,0.0,0.0,63,0.00,,,0.00,0.00,VWS V14.01,2013-03-03 00:17:00,
2013-03-02 19:18:00,25.8,15.0,29.73,North,0,0.0,0.0,63,0.00,,,0.00,0.00,VWS V14.01,2013-03-03 00:18:00,
2013-03-02 19:19:00,25.8,15.3,29.73,North,0,0.0,0.0,64,0.00,,,0.00,0.00,VWS V14.01,2013-03-03 00:19:00,
2013-03-02 19:20:00,25.7,15.2,29.73,North,0,0.0,0.0,64,0.00,,,0.00,0.00,VWS V14.01,2013-03-03 00:20:00,
2013-03-02 19:21:00,25.7,15.2,29.73,North,0,0.0,0.0,64,0.00,,,0.00,0.00,VWS V14.01,2013-03-03 00:21:00,
2013-03-02 19:22:00,25.7,15.2,29.73,North,0,0.0,0.0,64,0.00,,,0.00,0.00,VWS V14.01,2013-03-03 00:22:00,
2013-03-02 19:23:00,25.7,15.2,29.73,North,0,0.0,0.0,64,0.00,,,0.00,0.00,VWS V14.01,2013-03-03 00:23:00,
2013-03-02 19:24:00,25.7,15.2,29.73,North,0,0.0,0.0,64,0.00,,,0.00,0.00,VWS V14.01,2013-03-03 00:24:00,
2013-03-02 19:25:00,25.7,15.2,29.73,North,0,0.0,0.0,64,0.00,,,0.00,0.00,VWS V14.01,2013-03-03 00:25:00,
2013-03-02 19:26:00,25.7,15.2,29.73,North,0,0.0,0.0,64,0.00,,,0.00,0.00,VWS V14.01,2013-03-03 00:26:00,
2013-03-02 19:27:00,25.7,15.2,29.73,North,0,0.0,0.0,64,0.00,,,0.00,0.00,VWS V14.01,2013-03-03 00:27:00,
2013-03-02 19:28:00,25.7,15.2,29.73,North,0,0.0,0.0,64,0.00,,,0.00,0.00,VWS V14.01,2013-03-03 00:28:00,
2013-03-02 19:33:00,25.7,15.2,29.73,North,0,0.0,0.0,64,0.00,,,0.00,0.00,VWS V14.01,2013-03-03 00:33:00,
2013-03-02 19:34:00,25.7,14.9,29.73,North,0,0.0,0.0,63,0.00,,,0.00,0.00,VWS V14.01,2013-03-03 00:34:00,
2013-03-02 19:35:00,25.7,14.9,29.73,North,0,0.0,0.0,63,0.00,,,0.00,0.00,VWS V14.01,2013-03-03 00:35:00,
2013-03-02 19:36:00,25.7,14.9,29.73,North,0,0.0,0.0,63,0.00,,,0.00,0.00,VWS V14.01,2013-03-03 00:36:00,
2013-03-02 19:37:00,25.7,14.9,29.73,North,0,0.0,0.0,63,0.00,,,0.00,0.00,VWS V14.01,2013-03-03 00:37:00,
2013-03-02 19:38:00,25.7,14.9,29.73,North,0,0.0,0.0,63,0.00,,,0.00,0.00,VWS V14.01,2013-03-03 00:38:00,
2013-03-02 19:39:00,25.7,14.9,29.73,North,0,0.0,0.0,63,0.00,,,0.00,0.00,VWS V14.01,2013-03-03 00:39:00,
2013-03-02 19:40:00,25.7,14.9,29.73,North,0,0.0,0.0,63,0.00,,,0.00,0.00,VWS V14.01,2013-03-03 00:40:00,
2013-03-02 19:41:00,25.7,14.9,29.73,North,0,0.0,0.0,63,0.00,,,0.00,0.00,VWS V14.01,2013-03-03 00:41:00,
2013-03-02 19:42:00,25.7,14.9,29.73,North,0,0.0,0.0,63,0.00,,,0.00,0.00,VWS V14.01,2013-03-03 00:42:00,
2013-03-02 19:43:00,25.8,15.0,29.73,North,0,0.0,0.0,63,0.00,,,0.00,0.00,VWS V14.01,2013-03-03 00:43:00,
2013-03-02 19:44:00,25.8,15.0,29.73,North,0,0.0,0.0,63,0.00,,,0.00,0.00,VWS V14.01,2013-03-03 00:44:00,
2013-03-02 19:45:00,25.8,15.0,29.73,North,0,0.0,0.0,63,0.00,,,0.00,0.00,VWS V14.01,2013-03-03 00:45:00,
2013-03-02 19:46:00,25.8,15.3,29.73,North,0,0.0,0.0,64,0.00,,,0.00,0.00,VWS V14.01,2013-03-03 00:46:00,
2013-03-02 19:47:00,25.8,15.3,29.73,North,0,0.0,0.0,64,0.00,,,0.00,0.00,VWS V14.01,2013-03-03 00:47:00,
2013-03-02 19:48:00,25.8,15.3,29.73,North,0,0.0,0.0,64,0.00,,,0.00,0.00,VWS V14.01,2013-03-03 00:48:00,
2013-03-02 19:49:00,25.8,15.0,29.73,North,0,0.0,0.0,63,0.00,,,0.00,0.00,VWS V14.01,2013-03-03 00:49:00,
2013-03-02 19:50:00,25.8,15.3,29.73,North,0,0.0,0.0,64,0.00,,,0.00,0.00,VWS V14.01,2013-03-03 00:50:00,
2013-03-02 19:51:00,25.8,15.3,29.73,North,0,0.0,0.0,64,0.00,,,0.00,0.00,VWS V14.01,2013-03-03 00:51:00,
2013-03-02 19:52:00,25.8,15.3,29.73,North,0,0.0,0.0,64,0.00,,,0.00,0.00,VWS V14.01,2013-03-03 00:52:00,
2013-03-02 19:53:00,25.8,15.3,29.73,North,0,0.0,0.0,64,0.00,,,0.00,0.00,VWS V14.01,2013-03-03 00:53:00,
2013-03-02 19:54:00,25.8,15.3,29.73,North,0,0.0,0.0,64,0.00,,,0.00,0.00,VWS V14.01,2013-03-03 00:54:00,
2013-03-02 19:55:00,25.8,15.3,29.73,North,0,0.0,0.0,64,0.00,,,0.00,0.00,VWS V14.01,2013-03-03 00:55:00,
2013-03-02 19:56:00,25.8,15.3,29.73,North,0,0.0,0.0,64,0.00,,,0.00,0.00,VWS V14.01,2013-03-03 00:56:00,
2013-03-02 19:57:00,25.8,15.3,29.73,North,0,0.0,0.0,64,0.00,,,0.00,0.00,VWS V14.01,2013-03-03 00:57:00,
2013-03-02 19:58:00,25.8,15.3,29.73,North,0,0.0,0.0,64,0.00,,,0.00,0.00,VWS V14.01,2013-03-03 00:58:00,
2013-03-02 19:59:00,25.8,15.3,29.73,North,0,0.0,0.0,64,0.00,,,0.00,0.00,VWS V14.01,2013-03-03 00:59:00,
2013-03-02 20:00:00,25.8,15.3,29.73,North,0,0.0,0.0,64,0.00,,,0.00,0.00,VWS V14.01,2013-03-03 01:00:00,
2013-03-02 20:01:00,25.8,15.3,29.73,North,0,0.0,0.0,64,0.00,,,0.00,0.00,VWS V14.01,2013-03-03 01:01:00,
2013-03-02 20:02:00,25.8,15.7,29.73,North,0,0.0,0.0,65,0.00,,,0.00,0.00,VWS V14.01,2013-03-03 01:02:00,
2013-03-02 20:03:00,25.8,15.3,29.73,North,0,0.0,0.0,64,0.00,,,0.00,0.00,VWS V14.01,2013-03-03 01:03:00,
2013-03-02 20:04:00,25.8,15.7,29.73,North,0,0.0,0.0,65,0.00,,,0.00,0.00,VWS V14.01,2013-03-03 01:04:00,
2013-03-02 20:05:00,25.8,15.7,29.73,North,0,0.0,0.0,65,0.00,,,0.00,0.00,VWS V14.01,2013-03-03 01:05:00,
2013-03-02 20:06:00,25.8,15.7,29.73,North,0,0.0,0.0,65,0.00,,,0.00,0.00,VWS V14.01,2013-03-03 01:06:00,
2013-03-02 20:07:00,25.8,15.7,29.73,North,0,0.0,0.0,65,0.00,,,0.00,0.00,VWS V14.01,2013-03-03 01:07:00,
2013-03-02 20:08:00,25.8,15.7,29.73,North,0,0.0,0.0,65,0.00,,,0.00,0.00,VWS V14.01,2013-03-03 01:08:00,
2013-03-02 20:09:00,25.8,15.7,29.73,North,0,0.0,0.0,65,0.00,,,0.00,0.00,VWS V14.01,2013-03-03 01:09:00,
2013-03-02 20:10:00,25.8,15.7,29.73,North,0,0.0,0.0,65,0.00,,,0.00,0.00,VWS V14.01,2013-03-03 01:10:00,
2013-03-02 20:11:00,25.8,15.7,29.73,North,0,0.0,0.0,65,0.00,,,0.00,0.00,VWS V14.01,2013-03-03 01:11:00,
2013-03-02 20:12:00,25.8,15.7,29.73,North,0,0.0,0.0,65,0.00,,,0.00,0.00,VWS V14.01,2013-03-03 01:12:00,
2013-03-02 20:13:00,25.8,16.0,29.73,North,0,0.0,0.0,66,0.00,,,0.00,0.00,VWS V14.01,2013-03-03 01:13:00,
2013-03-02 20:14:00,25.8,16.0,29.73,North,0,0.0,0.0,66,0.00,,,0.00,0.00,VWS V14.01,2013-03-03 01:14:00,
2013-03-02 20:15:00,25.8,16.0,29.73,North,0,0.0,0.0,66,0.00,,,0.00,0.00,VWS V14.01,2013-03-03 01:15:00,
2013-03-02 20:17:00,25.7,15.9,29.73,North,0,0.0,0.0,66,0.00,,,0.00,0.00,VWS V14.01,2013-03-03 01:17:00,
2013-03-02 20:18:00,25.7,16.3,29.73,North,0,0.0,0.0,67,0.00,,,0.00,0.00,VWS V14.01,2013-03-03 01:18:00,
2013-03-02 20:19:00,25.7,16.3,29.73,North,0,0.0,0.0,67,0.00,,,0.00,0.00,VWS V14.01,2013-03-03 01:19:00,
2013-03-02 20:20:00,25.7,16.3,29.73,North,0,0.0,0.0,67,0.00,,,0.00,0.00,VWS V14.01,2013-03-03 01:20:00,
2013-03-02 20:21:00,25.7,15.9,29.73,North,0,0.0,0.0,66,0.00,,,0.00,0.00,VWS V14.01,2013-03-03 01:21:00,
2013-03-02 20:22:00,25.7,16.3,29.73,North,0,0.0,0.0,67,0.00,,,0.00,0.00,VWS V14.01,2013-03-03 01:22:00,
2013-03-02 20:23:00,25.7,16.3,29.73,North,0,0.0,0.0,67,0.00,,,0.00,0.00,VWS V14.01,2013-03-03 01:23:00,
2013-03-02 20:24:00,25.7,16.3,29.73,North,0,0.0,0.0,67,0.00,,,0.00,0.00,VWS V14.01,2013-03-03 01:24:00,
2013-03-02 20:25:00,25.7,16.3,29.73,North,0,0.0,0.0,67,0.00,,,0.00,0.00,VWS V14.01,2013-03-03 01:25:00,
2013-03-02 20:26:00,25.7,16.6,29.73,North,0,0.0,0.0,68,0.00,,,0.00,0.00,VWS V14.01,2013-03-03 01:26:00,
2013-03-02 20:27:00,25.7,16.6,29.73,North,0,0.0,0.0,68,0.00,,,0.00,0.00,VWS V14.01,2013-03-03 01:27:00,
2013-03-02 20:28:00,25.7,16.6,29.73,North,0,0.0,0.0,68,0.00,,,0.00,0.00,VWS V14.01,2013-03-03 01:28:00,
2013-03-02 20:29:00,25.7,16.6,29.73,North,0,0.0,0.0,68,0.00,,,0.00,0.00,VWS V14.01,2013-03-03 01:29:00,
2013-03-02 20:30:00,25.7,16.6,29.73,North,0,0.0,0.0,68,0.00,,,0.00,0.00,VWS V14.01,2013-03-03 01:30:00,
2013-03-02 20:31:00,25.7,16.6,29.73,North,0,0.0,0.0,68,0.00,,,0.00,0.00,VWS V14.01,2013-03-03 01:31:00,
2013-03-02 20:32:00,25.7,17.0,29.73,North,0,0.0,0.0,69,0.00,,,0.00,0.00,VWS V14.01,2013-03-03 01:32:00,
2013-03-02 20:33:00,25.7,17.0,29.73,North,0,0.0,0.0,69,0.00,,,0.00,0.00,VWS V14.01,2013-03-03 01:33:00,
2013-03-02 20:34:00,25.7,17.0,29.73,North,0,0.0,0.0,69,0.00,,,0.00,0.00,VWS V14.01,2013-03-03 01:34:00,
2013-03-02 20:35:00,25.7,17.0,29.73,North,0,0.0,0.0,69,0.00,,,0.00,0.00,VWS V14.01,2013-03-03 01:35:00,
2013-03-02 20:36:00,25.7,17.0,29.73,North,0,0.0,0.0,69,0.00,,,0.00,0.00,VWS V14.01,2013-03-03 01:36:00,
2013-03-02 20:37:00,25.7,17.3,29.73,North,0,0.0,0.0,70,0.00,,,0.00,0.00,VWS V14.01,2013-03-03 01:37:00,
2013-03-02 20:38:00,25.6,17.2,29.73,North,0,0.0,0.0,70,0.00,,,0.00,0.00,VWS V14.01,2013-03-03 01:38:00,
2013-03-02 20:39:00,25.6,17.2,29.73,North,0,0.0,0.0,70,0.00,,,0.00,0.00,VWS V14.01,2013-03-03 01:39:00,
2013-03-02 20:40:00,25.6,17.2,29.73,North,0,0.0,0.0,70,0.00,,,0.00,0.00,VWS V14.01,2013-03-03 01:40:00,
2013-03-02 20:41:00,25.6,17.2,29.73,North,0,0.0,0.0,70,0.00,,,0.00,0.00,VWS V14.01,2013-03-03 01:41:00,
2013-03-02 20:42:00,25.6,17.2,29.73,North,0,0.0,0.0,70,0.00,,,0.00,0.00,VWS V14.01,2013-03-03 01:42:00,
2013-03-02 20:43:00,25.6,16.9,29.73,North,0,0.0,0.0,69,0.00,,,0.00,0.00,VWS V14.01,2013-03-03 01:43:00,
2013-03-02 20:44:00,25.6,16.9,29.73,North,0,0.0,0.0,69,0.00,,,0.00,0.00,VWS V14.01,2013-03-03 01:44:00,
2013-03-02 20:45:00,25.5,16.8,29.73,North,0,0.0,0.0,69,0.00,,,0.00,0.00,VWS V14.01,2013-03-03 01:45:00,
2013-03-02 20:46:00,25.4,16.7,29.73,North,0,0.0,0.0,69,0.00,,,0.00,0.00,VWS V14.01,2013-03-03 01:46:00,
2013-03-02 20:47:00,25.4,16.7,29.73,North,0,0.0,0.0,69,0.00,,,0.00,0.00,VWS V14.01,2013-03-03 01:47:00,
2013-03-02 20:48:00,25.4,16.7,29.73,North,0,0.0,0.0,69,0.00,,,0.00,0.00,VWS V14.01,2013-03-03 01:48:00,
2013-03-02 20:49:00,25.4,16.7,29.73,North,0,0.0,0.0,69,0.00,,,0.00,0.00,VWS V14.01,2013-03-03 01:49:00,
2013-03-02 20:50:00,25.4,16.7,29.73,North,0,0.0,0.0,69,0.00,,,0.00,0.00,VWS V14.01,2013-03-03 01:50:00,
2013-03-02 20:51:00,25.4,16.7,29.73,North,0,0.0,0.0,69,0.00,,,0.00,0.00,VWS V14.01,2013-03-03 01:51:00,
2013-03-02 20:52:00,25.4,16.7,29.73,North,0,0.0,0.0,69,0.00,,,0.00,0.00,VWS V14.01,2013-03-03 01:52:00,
2013-03-02 20:53:00,25.4,16.7,29.73,North,0,0.0,0.0,69,0.00,,,0.00,0.00,VWS V14.01,2013-03-03 01:53:00,
2013-03-02 20:54:00,25.4,16.7,29.73,North,0,0.0,0.0,69,0.00,,,0.00,0.00,VWS V14.01,2013-03-03 01:54:00,
2013-03-02 20:55:00,25.4,16.7,29.73,North,0,0.0,0.0,69,0.00,,,0.00,0.00,VWS V14.01,2013-03-03 01:55:00,
2013-03-02 20:56:00,25.4,16.7,29.73,North,0,0.0,0.0,69,0.00,,,0.00,0.00,VWS V14.01,2013-03-03 01:56:00,
2013-03-02 20:57:00,25.4,16.7,29.73,North,0,0.0,0.0,69,0.00,,,0.00,0.00,VWS V14.01,2013-03-03 01:57:00,
2013-03-02 20:58:00,25.4,16.7,29.73,North,0,0.0,0.0,69,0.00,,,0.00,0.00,VWS V14.01,2013-03-03 01:58:00,
2013-03-02 20:59:00,25.4,16.7,29.73,North,0,0.0,0.0,69,0.00,,,0.00,0.00,VWS V14.01,2013-03-03 01:59:00,
2013-03-02 21:00:00,25.4,16.7,29.74,North,0,0.0,0.0,69,0.00,,,0.00,0.00,VWS V14.01,2013-03-03 02:00:00,
2013-03-02 21:01:00,25.4,17.0,29.74,North,0,0.0,0.0,70,0.00,,,0.00,0.00,VWS V14.01,2013-03-03 02:01:00,
2013-03-02 21:02:00,25.4,17.0,29.74,North,0,0.0,0.0,70,0.00,,,0.00,0.00,VWS V14.01,2013-03-03 02:02:00,
2013-03-02 21:03:00,25.4,17.0,29.74,North,0,0.0,0.0,70,0.00,,,0.00,0.00,VWS V14.01,2013-03-03 02:03:00,
2013-03-02 21:04:00,25.4,17.0,29.74,North,0,0.0,0.0,70,0.00,,,0.00,0.00,VWS V14.01,2013-03-03 02:04:00,
2013-03-02 21:05:00,25.4,17.0,29.74,North,0,0.0,0.0,70,0.00,,,0.00,0.00,VWS V14.01,2013-03-03 02:05:00,
2013-03-02 21:06:00,25.4,17.0,29.74,North,0,0.0,0.0,70,0.00,,,0.00,0.00,VWS V14.01,2013-03-03 02:06:00,
2013-03-02 21:07:00,25.4,17.3,29.74,North,0,0.0,0.0,71,0.00,,,0.00,0.00,VWS V14.01,2013-03-03 02:07:00,
2013-03-02 21:08:00,25.4,17.3,29.74,North,0,0.0,0.0,71,0.00,,,0.00,0.00,VWS V14.01,2013-03-03 02:08:00,
2013-03-02 21:09:00,25.4,17.3,29.74,North,0,0.0,0.0,71,0.00,,,0.00,0.00,VWS V14.01,2013-03-03 02:09:00,
2013-03-02 21:10:00,25.4,17.3,29.74,North,0,0.0,0.0,71,0.00,,,0.00,0.00,VWS V14.01,2013-03-03 02:10:00,
2013-03-02 21:11:00,25.3,17.2,29.74,North,0,0.0,0.0,71,0.00,,,0.00,0.00,VWS V14.01,2013-03-03 02:11:00,
2013-03-02 21:12:00,25.3,17.2,29.74,North,0,0.0,0.0,71,0.00,,,0.00,0.00,VWS V14.01,2013-03-03 02:12:00,
2013-03-02 21:13:00,25.3,17.2,29.74,North,0,0.0,0.0,71,0.00,,,0.00,0.00,VWS V14.01,2013-03-03 02:13:00,
2013-03-02 21:14:00,25.3,17.2,29.74,North,0,0.0,0.0,71,0.00,,,0.00,0.00,VWS V14.01,2013-03-03 02:14:00,
2013-03-02 21:15:00,25.3,17.2,29.74,North,0,0.0,0.0,71,0.00,,,0.00,0.00,VWS V14.01,2013-03-03 02:15:00,
2013-03-02 21:16:00,25.3,17.2,29.74,North,0,0.0,0.0,71,0.00,,,0.00,0.00,VWS V14.01,2013-03-03 02:16:00,
2013-03-02 21:17:00,25.3,17.2,29.74,North,0,0.0,0.0,71,0.00,,,0.00,0.00,VWS V14.01,2013-03-03 02:17:00,
2013-03-02 21:18:00,25.3,17.2,29.74,North,0,0.0,0.0,71,0.00,,,0.00,0.00,VWS V14.01,2013-03-03 02:18:00,
2013-03-02 21:19:00,25.2,17.1,29.74,North,0,0.0,0.0,71,0.00,,,0.00,0.00,VWS V14.01,2013-03-03 02:19:00,
2013-03-02 21:20:00,25.1,17.0,29.74,North,0,0.0,0.0,71,0.00,,,0.00,0.00,VWS V14.01,2013-03-03 02:20:00,
2013-03-02 21:21:00,25.1,17.0,29.74,North,0,0.0,0.0,71,0.00,,,0.00,0.00,VWS V14.01,2013-03-03 02:21:00,
2013-03-02 21:22:00,25.1,17.4,29.74,North,0,0.0,0.0,72,0.00,,,0.00,0.00,VWS V14.01,2013-03-03 02:22:00,
2013-03-02 21:23:00,25.1,17.4,29.74,North,0,0.0,0.0,72,0.00,,,0.00,0.00,VWS V14.01,2013-03-03 02:23:00,
2013-03-02 21:24:00,25.1,17.4,29.74,North,0,0.0,0.0,72,0.00,,,0.00,0.00,VWS V14.01,2013-03-03 02:24:00,
2013-03-02 21:25:00,25.1,17.4,29.74,North,0,0.0,0.0,72,0.00,,,0.00,0.00,VWS V14.01,2013-03-03 02:25:00,
2013-03-02 21:26:00,25.1,17.4,29.74,North,0,0.0,0.0,72,0.00,,,0.00,0.00,VWS V14.01,2013-03-03 02:26:00,
2013-03-02 21:27:00,25.1,17.4,29.74,North,0,0.0,0.0,72,0.00,,,0.00,0.00,VWS V14.01,2013-03-03 02:27:00,
2013-03-02 21:28:00,25.1,17.4,29.74,North,0,0.0,0.0,72,0.00,,,0.00,0.00,VWS V14.01,2013-03-03 02:28:00,
2013-03-02 21:31:00,25.1,17.4,29.74,North,0,0.0,0.0,72,0.00,,,0.00,0.00,VWS V14.01,2013-03-03 02:31:00,
2013-03-02 21:32:00,25.1,17.4,29.74,North,0,0.0,0.0,72,0.00,,,0.00,0.00,VWS V14.01,2013-03-03 02:32:00,
2013-03-02 21:34:00,25.0,17.3,29.74,North,0,0.0,0.0,72,0.00,,,0.00,0.00,VWS V14.01,2013-03-03 02:34:00,
2013-03-02 21:35:00,25.0,17.6,29.74,North,0,0.0,0.0,73,0.00,,,0.00,0.00,VWS V14.01,2013-03-03 02:35:00,
2013-03-02 21:36:00,25.0,17.3,29.74,North,0,0.0,0.0,72,0.00,,,0.00,0.00,VWS V14.01,2013-03-03 02:36:00,
2013-03-02 21:39:00,25.0,17.6,29.74,North,0,0.0,0.0,73,0.00,,,0.00,0.00,VWS V14.01,2013-03-03 02:39:00,
2013-03-02 21:40:00,25.0,17.6,29.74,North,0,0.0,0.0,73,0.00,,,0.00,0.00,VWS V14.01,2013-03-03 02:40:00,
2013-03-02 21:41:00,25.0,17.6,29.74,North,0,0.0,0.0,73,0.00,,,0.00,0.00,VWS V14.01,2013-03-03 02:41:00,
2013-03-02 21:42:00,25.0,17.6,29.74,North,0,0.0,0.0,73,0.00,,,0.00,0.00,VWS V14.01,2013-03-03 02:42:00,
2013-03-02 21:44:00,24.9,17.5,29.74,North,0,0.0,0.0,73,0.00,,,0.00,0.00,VWS V14.01,2013-03-03 02:44:00,
2013-03-02 21:45:00,24.8,17.4,29.74,North,0,0.0,0.0,73,0.00,,,0.00,0.00,VWS V14.01,2013-03-03 02:45:00,
2013-03-02 21:46:00,24.8,17.4,29.74,North,0,0.0,0.0,73,0.00,,,0.00,0.00,VWS V14.01,2013-03-03 02:46:00,
2013-03-02 21:47:00,24.8,17.4,29.74,North,0,0.0,0.0,73,0.00,,,0.00,0.00,VWS V14.01,2013-03-03 02:47:00,
2013-03-02 21:49:00,24.8,17.4,29.74,North,0,0.0,0.0,73,0.00,,,0.00,0.00,VWS V14.01,2013-03-03 02:49:00,
2013-03-02 21:52:00,24.7,17.0,29.74,North,0,0.0,0.0,72,0.00,,,0.00,0.00,VWS V14.01,2013-03-03 02:52:00,
2013-03-02 21:53:00,24.7,17.0,29.74,North,0,0.0,0.0,72,0.00,,,0.00,0.00,VWS V14.01,2013-03-03 02:53:00,
2013-03-02 21:54:00,24.7,17.0,29.74,North,0,0.0,0.0,72,0.00,,,0.00,0.00,VWS V14.01,2013-03-03 02:54:00,
2013-03-02 21:55:00,24.7,17.0,29.74,North,0,0.0,0.0,72,0.00,,,0.00,0.00,VWS V14.01,2013-03-03 02:55:00,
2013-03-02 21:56:00,24.7,17.0,29.74,North,0,0.0,0.0,72,0.00,,,0.00,0.00,VWS V14.01,2013-03-03 02:56:00,
2013-03-02 21:57:00,24.7,16.6,29.74,North,0,0.0,0.0,71,0.00,,,0.00,0.00,VWS V14.01,2013-03-03 02:57:00,
2013-03-02 21:58:00,24.7,16.6,29.74,North,0,0.0,0.0,71,0.00,,,0.00,0.00,VWS V14.01,2013-03-03 02:58:00,
2013-03-02 21:59:00,24.7,16.6,29.74,North,0,0.0,0.0,71,0.00,,,0.00,0.00,VWS V14.01,2013-03-03 02:59:00,
2013-03-02 22:00:00,24.7,16.6,29.74,North,0,0.0,0.0,71,0.00,,,0.00,0.00,VWS V14.01,2013-03-03 03:00:00,
2013-03-02 22:01:00,24.7,17.0,29.74,North,0,0.0,0.0,72,0.00,,,0.00,0.00,VWS V14.01,2013-03-03 03:01:00,
2013-03-02 22:02:00,24.7,17.0,29.74,North,0,0.0,0.0,72,0.00,,,0.00,0.00,VWS V14.01,2013-03-03 03:02:00,
2013-03-02 22:03:00,24.8,17.1,29.74,North,0,0.0,0.0,72,0.00,,,0.00,0.00,VWS V14.01,2013-03-03 03:03:00,
2013-03-02 22:04:00,24.8,17.1,29.74,North,0,0.0,0.0,72,0.00,,,0.00,0.00,VWS V14.01,2013-03-03 03:04:00,
2013-03-02 22:05:00,24.8,17.1,29.74,North,0,0.0,0.0,72,0.00,,,0.00,0.00,VWS V14.01,2013-03-03 03:05:00,
2013-03-02 22:06:00,24.8,17.1,29.74,North,0,0.0,0.0,72,0.00,,,0.00,0.00,VWS V14.01,2013-03-03 03:06:00,
2013-03-02 22:07:00,24.8,17.1,29.74,North,0,0.0,0.0,72,0.00,,,0.00,0.00,VWS V14.01,2013-03-03 03:07:00,
2013-03-02 22:08:00,24.8,17.1,29.74,North,0,0.0,0.0,72,0.00,,,0.00,0.00,VWS V14.01,2013-03-03 03:08:00,
2013-03-02 22:09:00,24.7,17.3,29.74,North,0,0.0,0.0,73,0.00,,,0.00,0.00,VWS V14.01,2013-03-03 03:09:00,
2013-03-02 22:10:00,24.8,17.4,29.74,North,0,0.0,0.0,73,0.00,,,0.00,0.00,VWS V14.01,2013-03-03 03:10:00,
2013-03-02 22:11:00,24.7,17.3,29.74,North,0,0.0,0.0,73,0.00,,,0.00,0.00,VWS V14.01,2013-03-03 03:11:00,
2013-03-02 22:12:00,24.7,17.3,29.74,North,0,0.0,0.0,73,0.00,,,0.00,0.00,VWS V14.01,2013-03-03 03:12:00,
2013-03-02 22:13:00,24.7,17.0,29.74,North,0,0.0,0.0,72,0.00,,,0.00,0.00,VWS V14.01,2013-03-03 03:13:00,
2013-03-02 22:14:00,24.7,17.0,29.74,North,0,0.0,0.0,72,0.00,,,0.00,0.00,VWS V14.01,2013-03-03 03:14:00,
2013-03-02 22:15:00,24.7,17.0,29.74,North,0,0.0,0.0,72,0.00,,,0.00,0.00,VWS V14.01,2013-03-03 03:15:00,
2013-03-02 22:16:00,24.7,17.0,29.74,North,0,0.0,0.0,72,0.00,,,0.00,0.00,VWS V14.01,2013-03-03 03:16:00,
2013-03-02 22:17:00,24.7,16.6,29.74,North,0,0.0,0.0,71,0.00,,,0.00,0.00,VWS V14.01,2013-03-03 03:17:00,
2013-03-02 22:18:00,24.7,16.6,29.74,North,0,0.0,0.0,71,0.00,,,0.00,0.00,VWS V14.01,2013-03-03 03:18:00,
2013-03-02 22:19:00,24.7,16.6,29.74,North,0,0.0,0.0,71,0.00,,,0.00,0.00,VWS V14.01,2013-03-03 03:19:00,
2013-03-02 22:20:00,24.7,16.3,29.74,North,0,0.0,0.0,70,0.00,,,0.00,0.00,VWS V14.01,2013-03-03 03:20:00,
2013-03-02 22:21:00,24.7,16.3,29.74,North,0,0.0,0.0,70,0.00,,,0.00,0.00,VWS V14.01,2013-03-03 03:21:00,
2013-03-02 22:22:00,24.7,16.0,29.74,North,0,0.0,0.0,69,0.00,,,0.00,0.00,VWS V14.01,2013-03-03 03:22:00,
2013-03-02 22:23:00,24.7,16.0,29.74,North,0,0.0,0.0,69,0.00,,,0.00,0.00,VWS V14.01,2013-03-03 03:23:00,
2013-03-02 22:24:00,24.7,16.0,29.74,North,0,0.0,0.0,69,0.00,,,0.00,0.00,VWS V14.01,2013-03-03 03:24:00,
2013-03-02 22:25:00,24.7,16.0,29.74,North,0,0.0,0.0,69,0.00,,,0.00,0.00,VWS V14.01,2013-03-03 03:25:00,
2013-03-02 22:26:00,24.7,15.7,29.74,North,0,0.0,0.0,68,0.00,,,0.00,0.00,VWS V14.01,2013-03-03 03:26:00,
2013-03-02 22:27:00,24.7,15.7,29.74,North,0,0.0,0.0,68,0.00,,,0.00,0.00,VWS V14.01,2013-03-03 03:27:00,
2013-03-02 22:28:00,24.7,15.7,29.74,North,0,0.0,0.0,68,0.00,,,0.00,0.00,VWS V14.01,2013-03-03 03:28:00,
2013-03-02 22:29:00,24.7,15.3,29.74,North,0,0.0,0.0,67,0.00,,,0.00,0.00,VWS V14.01,2013-03-03 03:29:00,
2013-03-02 22:30:00,24.7,15.0,29.74,North,0,0.0,0.0,66,0.00,,,0.00,0.00,VWS V14.01,2013-03-03 03:30:00,
2013-03-02 22:31:00,24.7,15.0,29.74,North,0,0.0,0.0,66,0.00,,,0.00,0.00,VWS V14.01,2013-03-03 03:31:00,
2013-03-02 22:32:00,24.7,15.3,29.74,North,0,0.0,0.0,67,0.00,,,0.00,0.00,VWS V14.01,2013-03-03 03:32:00,
2013-03-02 22:33:00,24.7,15.3,29.74,North,0,0.0,0.0,67,0.00,,,0.00,0.00,VWS V14.01,2013-03-03 03:33:00,
2013-03-02 22:34:00,24.7,15.3,29.74,North,0,0.0,0.0,67,0.00,,,0.00,0.00,VWS V14.01,2013-03-03 03:34:00,
2013-03-02 22:35:00,24.7,15.0,29.74,North,0,0.0,0.0,66,0.00,,,0.00,0.00,VWS V14.01,2013-03-03 03:35:00,
2013-03-02 22:36:00,24.7,15.0,29.74,North,0,0.0,0.0,66,0.00,,,0.00,0.00,VWS V14.01,2013-03-03 03:36:00,
2013-03-02 22:37:00,24.7,14.6,29.74,North,0,0.0,0.0,65,0.00,,,0.00,0.00,VWS V14.01,2013-03-03 03:37:00,
2013-03-02 22:38:00,24.7,14.6,29.74,North,0,0.0,0.0,65,0.00,,,0.00,0.00,VWS V14.01,2013-03-03 03:38:00,
2013-03-02 22:39:00,24.7,14.6,29.74,North,0,0.0,0.0,65,0.00,,,0.00,0.00,VWS V14.01,2013-03-03 03:39:00,
2013-03-02 22:40:00,24.7,14.6,29.74,North,0,0.0,0.0,65,0.00,,,0.00,0.00,VWS V14.01,2013-03-03 03:40:00,
2013-03-02 22:41:00,24.7,14.6,29.74,North,0,0.0,0.0,65,0.00,,,0.00,0.00,VWS V14.01,2013-03-03 03:41:00,
2013-03-02 22:42:00,24.7,14.6,29.74,North,0,0.0,0.0,65,0.00,,,0.00,0.00,VWS V14.01,2013-03-03 03:42:00,
2013-03-02 22:43:00,24.8,14.7,29.74,North,0,0.0,0.0,65,0.00,,,0.00,0.00,VWS V14.01,2013-03-03 03:43:00,
2013-03-02 22:44:00,24.7,14.6,29.74,North,0,0.0,0.0,65,0.00,,,0.00,0.00,VWS V14.01,2013-03-03 03:44:00,
2013-03-02 22:45:00,24.7,14.6,29.74,North,0,0.0,0.0,65,0.00,,,0.00,0.00,VWS V14.01,2013-03-03 03:45:00,
2013-03-02 22:46:00,24.7,14.6,29.74,North,0,0.0,0.0,65,0.00,,,0.00,0.00,VWS V14.01,2013-03-03 03:46:00,
2013-03-02 22:47:00,24.7,14.6,29.74,North,0,0.0,0.0,65,0.00,,,0.00,0.00,VWS V14.01,2013-03-03 03:47:00,
2013-03-02 22:48:00,24.7,14.3,29.74,North,0,0.0,0.0,64,0.00,,,0.00,0.00,VWS V14.01,2013-03-03 03:48:00,
2013-03-02 22:49:00,24.7,14.3,29.74,North,0,0.0,0.0,64,0.00,,,0.00,0.00,VWS V14.01,2013-03-03 03:49:00,
2013-03-02 22:50:00,24.7,14.3,29.74,North,0,0.0,0.0,64,0.00,,,0.00,0.00,VWS V14.01,2013-03-03 03:50:00,
2013-03-02 22:51:00,24.7,14.3,29.74,North,0,0.0,0.0,64,0.00,,,0.00,0.00,VWS V14.01,2013-03-03 03:51:00,
2013-03-02 22:52:00,24.7,13.9,29.74,North,0,0.0,0.0,63,0.00,,,0.00,0.00,VWS V14.01,2013-03-03 03:52:00,
2013-03-02 22:53:00,24.7,13.9,29.74,North,0,0.0,0.0,63,0.00,,,0.00,0.00,VWS V14.01,2013-03-03 03:53:00,
2013-03-02 22:54:00,24.7,14.3,29.74,North,0,0.0,0.0,64,0.00,,,0.00,0.00,VWS V14.01,2013-03-03 03:54:00,
2013-03-02 22:55:00,24.7,14.3,29.74,North,0,0.0,0.0,64,0.00,,,0.00,0.00,VWS V14.01,2013-03-03 03:55:00,
2013-03-02 22:56:00,24.7,13.9,29.74,North,0,0.0,0.0,63,0.00,,,0.00,0.00,VWS V14.01,2013-03-03 03:56:00,
2013-03-02 22:57:00,24.7,14.3,29.74,North,0,0.0,0.0,64,0.00,,,0.00,0.00,VWS V14.01,2013-03-03 03:57:00,
2013-03-02 22:58:00,24.7,13.9,29.74,North,0,0.0,0.0,63,0.00,,,0.00,0.00,VWS V14.01,2013-03-03 03:58:00,
2013-03-02 22:59:00,24.7,13.9,29.74,North,0,0.0,0.0,63,0.00,,,0.00,0.00,VWS V14.01,2013-03-03 03:59:00,
2013-03-02 23:00:00,24.7,13.9,29.73,North,0,0.0,0.0,63,0.00,,,0.00,0.00,VWS V14.01,2013-03-03 04:00:00,
2013-03-02 23:01:00,24.7,13.9,29.73,North,0,0.0,0.0,63,0.00,,,0.00,0.00,VWS V14.01,2013-03-03 04:01:00,
2013-03-02 23:02:00,24.7,13.9,29.73,North,0,0.0,0.0,63,0.00,,,0.00,0.00,VWS V14.01,2013-03-03 04:02:00,
2013-03-02 23:03:00,24.7,13.9,29.73,North,0,0.0,0.0,63,0.00,,,0.00,0.00,VWS V14.01,2013-03-03 04:03:00,
2013-03-02 23:04:00,24.7,13.9,29.73,North,0,0.0,0.0,63,0.00,,,0.00,0.00,VWS V14.01,2013-03-03 04:04:00,
2013-03-02 23:05:00,24.7,13.9,29.73,North,0,0.0,0.0,63,0.00,,,0.00,0.00,VWS V14.01,2013-03-03 04:05:00,
2013-03-02 23:06:00,24.7,13.6,29.73,North,0,0.0,0.0,62,0.00,,,0.00,0.00,VWS V14.01,2013-03-03 04:06:00,
2013-03-02 23:07:00,24.7,13.6,29.73,North,0,0.0,0.0,62,0.00,,,0.00,0.00,VWS V14.01,2013-03-03 04:07:00,
2013-03-02 23:08:00,24.7,13.9,29.73,North,0,0.0,0.0,63,0.00,,,0.00,0.00,VWS V14.01,2013-03-03 04:08:00,
2013-03-02 23:09:00,24.7,13.9,29.73,North,0,0.0,0.0,63,0.00,,,0.00,0.00,VWS V14.01,2013-03-03 04:09:00,
2013-03-02 23:10:00,24.7,13.6,29.73,North,0,0.0,0.0,62,0.00,,,0.00,0.00,VWS V14.01,2013-03-03 04:10:00,
2013-03-02 23:11:00,24.7,13.6,29.73,North,0,0.0,0.0,62,0.00,,,0.00,0.00,VWS V14.01,2013-03-03 04:11:00,
2013-03-02 23:12:00,24.7,13.6,29.73,North,0,0.0,0.0,62,0.00,,,0.00,0.00,VWS V14.01,2013-03-03 04:12:00,
2013-03-02 23:13:00,24.7,13.6,29.73,North,0,0.0,0.0,62,0.00,,,0.00,0.00,VWS V14.01,2013-03-03 04:13:00,
2013-03-02 23:14:00,24.7,13.6,29.73,North,0,0.0,0.0,62,0.00,,,0.00,0.00,VWS V14.01,2013-03-03 04:14:00,
2013-03-02 23:15:00,24.7,13.9,29.73,North,0,0.0,0.0,63,0.00,,,0.00,0.00,VWS V14.01,2013-03-03 04:15:00,
2013-03-02 23:16:00,24.7,13.9,29.73,North,0,0.0,0.0,63,0.00,,,0.00,0.00,VWS V14.01,2013-03-03 04:16:00,
2013-03-02 23:17:00,24.7,13.9,29.73,North,0,0.0,0.0,63,0.00,,,0.00,0.00,VWS V14.01,2013-03-03 04:17:00,
2013-03-02 23:18:00,24.7,13.9,29.73,North,0,0.0,0.0,63,0.00,,,0.00,0.00,VWS V14.01,2013-03-03 04:18:00,
2013-03-02 23:19:00,24.7,13.9,29.73,North,0,0.0,0.0,63,0.00,,,0.00,0.00,VWS V14.01,2013-03-03 04:19:00,
2013-03-02 23:20:00,24.7,13.9,29.73,North,0,0.0,0.0,63,0.00,,,0.00,0.00,VWS V14.01,2013-03-03 04:20:00,
2013-03-02 23:21:00,24.7,13.6,29.73,North,0,0.0,0.0,62,0.00,,,0.00,0.00,VWS V14.01,2013-03-03 04:21:00,
2013-03-02 23:22:00,24.6,13.4,29.73,North,0,0.0,0.0,62,0.00,,,0.00,0.00,VWS V14.01,2013-03-03 04:22:00,
2013-03-02 23:23:00,24.5,13.4,29.73,North,0,0.0,0.0,62,0.00,,,0.00,0.00,VWS V14.01,2013-03-03 04:23:00,
2013-03-02 23:24:00,24.5,13.7,29.73,North,0,0.0,0.0,63,0.00,,,0.00,0.00,VWS V14.01,2013-03-03 04:24:00,
2013-03-02 23:25:00,24.5,13.7,29.73,North,0,0.0,0.0,63,0.00,,,0.00,0.00,VWS V14.01,2013-03-03 04:25:00,
2013-03-02 23:26:00,24.5,13.4,29.73,North,0,0.0,0.0,62,0.00,,,0.00,0.00,VWS V14.01,2013-03-03 04:26:00,
2013-03-02 23:27:00,24.5,13.4,29.73,North,0,0.0,0.0,62,0.00,,,0.00,0.00,VWS V14.01,2013-03-03 04:27:00,
2013-03-02 23:28:00,24.5,13.4,29.73,North,0,0.0,0.0,62,0.00,,,0.00,0.00,VWS V14.01,2013-03-03 04:28:00,
2013-03-02 23:29:00,24.5,13.4,29.73,North,0,0.0,0.0,62,0.00,,,0.00,0.00,VWS V14.01,2013-03-03 04:29:00,
2013-03-02 23:30:00,24.5,13.4,29.73,North,0,0.0,0.0,62,0.00,,,0.00,0.00,VWS V14.01,2013-03-03 04:30:00,
2013-03-02 23:31:00,24.5,13.4,29.73,North,0,0.0,0.0,62,0.00,,,0.00,0.00,VWS V14.01,2013-03-03 04:31:00,
2013-03-02 23:32:00,24.5,13.7,29.73,North,0,0.0,0.0,63,0.00,,,0.00,0.00,VWS V14.01,2013-03-03 04:32:00,
2013-03-02 23:33:00,24.5,13.7,29.73,North,0,0.0,0.0,63,0.00,,,0.00,0.00,VWS V14.01,2013-03-03 04:33:00,
2013-03-02 23:34:00,24.5,13.7,29.73,North,0,0.0,0.0,63,0.00,,,0.00,0.00,VWS V14.01,2013-03-03 04:34:00,
2013-03-02 23:35:00,24.5,13.7,29.73,North,0,0.0,0.0,63,0.00,,,0.00,0.00,VWS V14.01,2013-03-03 04:35:00,
2013-03-02 23:36:00,24.5,13.7,29.73,North,0,0.0,0.0,63,0.00,,,0.00,0.00,VWS V14.01,2013-03-03 04:36:00,
2013-03-02 23:37:00,24.5,13.4,29.73,North,0,0.0,0.0,62,0.00,,,0.00,0.00,VWS V14.01,2013-03-03 04:37:00,
2013-03-02 23:38:00,24.5,13.4,29.73,North,0,0.0,0.0,62,0.00,,,0.00,0.00,VWS V14.01,2013-03-03 04:38:00,
2013-03-02 23:39:00,24.5,13.7,29.73,North,0,0.0,0.0,63,0.00,,,0.00,0.00,VWS V14.01,2013-03-03 04:39:00,
2013-03-02 23:40:00,24.5,13.7,29.73,North,0,0.0,0.0,63,0.00,,,0.00,0.00,VWS V14.01,2013-03-03 04:40:00,
2013-03-02 23:41:00,24.5,13.7,29.73,North,0,0.0,0.0,63,0.00,,,0.00,0.00,VWS V14.01,2013-03-03 04:41:00,
2013-03-02 23:42:00,24.5,13.7,29.73,North,0,0.0,0.0,63,0.00,,,0.00,0.00,VWS V14.01,2013-03-03 04:42:00,
2013-03-02 23:43:00,24.5,13.7,29.73,North,0,0.0,0.0,63,0.00,,,0.00,0.00,VWS V14.01,2013-03-03 04:43:00,
2013-03-02 23:44:00,24.5,13.7,29.73,North,0,0.0,0.0,63,0.00,,,0.00,0.00,VWS V14.01,2013-03-03 04:44:00,
2013-03-02 23:45:00,24.5,13.7,29.73,North,0,0.0,0.0,63,0.00,,,0.00,0.00,VWS V14.01,2013-03-03 04:45:00,
2013-03-02 23:46:00,24.5,13.7,29.73,North,0,0.0,0.0,63,0.00,,,0.00,0.00,VWS V14.01,2013-03-03 04:46:00,
2013-03-02 23:47:00,24.5,13.7,29.73,North,0,0.0,0.0,63,0.00,,,0.00,0.00,VWS V14.01,2013-03-03 04:47:00,
2013-03-02 23:48:00,24.5,13.7,29.73,North,0,0.0,0.0,63,0.00,,,0.00,0.00,VWS V14.01,2013-03-03 04:48:00,
2013-03-02 23:49:00,24.5,13.7,29.73,North,0,0.0,0.0,63,0.00,,,0.00,0.00,VWS V14.01,2013-03-03 04:49:00,
2013-03-02 23:50:00,24.5,13.7,29.73,North,0,0.0,0.0,63,0.00,,,0.00,0.00,VWS V14.01,2013-03-03 04:50:00,
2013-03-02 23:51:00,24.5,13.7,29.73,North,0,0.0,0.0,63,0.00,,,0.00,0.00,VWS V14.01,2013-03-03 04:51:00,
2013-03-02 23:52:00,24.5,13.7,29.73,North,0,0.0,0.0,63,0.00,,,0.00,0.00,VWS V14.01,2013-03-03 04:52:00,
2013-03-02 23:53:00,24.5,13.7,29.73,North,0,0.0,0.0,63,0.00,,,0.00,0.00,VWS V14.01,2013-03-03 04:53:00,
2013-03-02 23:54:00,24.5,13.7,29.73,North,0,0.0,0.0,63,0.00,,,0.00,0.00,VWS V14.01,2013-03-03 04:54:00,
2013-03-02 23:55:00,24.5,13.7,29.73,North,0,0.0,0.0,63,0.00,,,0.00,0.00,VWS V14.01,2013-03-03 04:55:00,
2013-03-02 23:56:00,24.5,13.7,29.73,North,0,0.0,0.0,63,0.00,,,0.00,0.00,VWS V14.01,2013-03-03 04:56:00,
2013-03-02 23:57:00,24.5,13.7,29.73,North,0,0.0,0.0,63,0.00,,,0.00,0.00,VWS V14.01,2013-03-03 04:57:00,
2013-03-02 23:58:00,24.5,13.7,29.73,North,0,0.0,0.0,63,0.00,,,0.00,0.00,VWS V14.01,2013-03-03 04:58:00,
2013-03-02 23:59:00,24.4,13.6,29.73,North,0,0.0,0.0,63,0.00,,,0.00,0.00,VWS V14.01,2013-03-03 04:59:00,